[[[{"header":{"parameterUnit":"kt","parameterCategory":2,"dx":1,"dy":1,"la1":29.587661999999998,"la2":31.0,"lo1":-88.76705300000003,"lo2":-86.6583820000003,"nx":115,"ny":88,"refTime":"2022-11-02T06:00:00:Z","depth":0,"parameterNumber":1,"parameterNumberName":"U-component_of_WINDS"},"data":[6.0118,6.0118,6.0118,6.0118,6.0118,6.0118,6.0118,6.0118,6.0118,6.0118,6.0118,6.0118,6.0118,6.0118,6.0118,6.0118,6.0118,6.0118,6.0118,6.0118,6.0118,6.0118,6.0118,6.0118,6.0118,6.0118,6.0118,6.0118,6.0118,6.0118,6.0118,6.0118,6.0118,6.0118,6.0118,6.0118,6.0118,6.0118,6.0118,6.0118,6.0118,6.0118,6.0118,6.0118,6.0118,6.0118,6.0118,6.0118,6.0118,6.0118,6.0118,6.0118,6.0118,6.0118,6.0118,6.0118,6.0118,6.0477,6.0853,6.059,6.1284,6.1172,6.1602,6.1377,6.042,6.042,6.0797,6.0797,6.0213,6.0213,6.0269,6.0269,6.0213,6.0213,6.0156,6.0156,6.0099,6.0118,6.0118,6.0118,6.0099,6.0156,6.0156,6.0156,6.0213,6.1526,6.1563,6.253,6.2844,6.2438,6.2366,6.257,6.2792,6.5142,6.7598,6.749,6.7867,6.8167,6.8435,6.868,6.8947,6.9288,6.9425,6.9372,6.7877,6.6116,6.4847,6.4173,6.2884,6.1658,6.1059,6.0383,6.0118,6.0118,6.0118,6.0118,6.0118,6.0118,6.0118,6.0118,6.0118,6.0118,6.0118,6.0118,6.0118,6.0118,6.0118,6.0118,6.0118,6.0118,6.0118,6.0118,6.0118,6.0118,6.0118,6.0118,6.0118,6.0118,6.0118,6.0118,6.0118,6.0118,6.0118,6.0118,6.0118,6.0118,6.0118,6.0118,6.0118,6.0118,6.0118,6.0118,6.0118,6.0118,6.0118,6.0118,6.0118,6.0118,6.0118,6.0118,6.0118,6.0118,6.0118,6.0118,6.0118,6.0118,6.0118,6.0118,6.0533,6.0477,6.0909,6.1078,6.2346,6.2864,6.2179,6.255,6.3086,6.36,6.3086,6.1434,6.1321,6.1899,6.1695,6.0797,6.0533,6.0533,6.0533,6.0439,6.0383,6.0326,6.025,6.0156,6.0118,6.0118,6.0118,6.0156,6.0269,6.0326,6.0326,6.1302,6.3228,6.4436,6.5563,6.6107,6.5264,6.5995,6.6734,6.7274,6.7544,6.8563,6.9257,6.9841,7.0317,7.1211,7.1188,7.1555,7.2924,7.3464,7.2671,7.1345,6.9849,6.8542,6.668,6.5319,6.3987,6.3086,6.2067,6.1377,6.0118,6.0118,6.0118,6.0118,6.0118,6.0118,6.0118,6.0118,6.0118,6.0118,6.0118,6.0118,6.0118,6.0118,6.0118,6.0118,6.0118,6.0118,6.0118,6.0118,6.0118,6.0118,6.0118,6.0118,6.0118,6.0118,6.0118,6.0118,6.0118,6.0118,6.0118,6.0118,6.0118,6.0118,6.0118,6.0118,6.0118,6.0118,6.0118,6.0118,6.0118,6.0118,6.0118,6.0118,6.0118,6.0118,6.0118,6.0118,6.0118,6.0118,6.0118,6.0118,6.0118,6.0118,6.0326,6.1434,6.2179,6.2717,6.3786,6.5361,6.5974,6.5974,6.5831,6.63,6.6658,6.5374,6.3676,6.6082,6.6658,6.4847,6.3952,6.3751,6.3731,6.3585,6.3475,6.2737,6.2438,6.1751,6.1228,6.1172,6.1135,6.1397,6.2087,6.2235,6.2661,6.2808,6.4607,6.652,6.6724,6.7694,6.7856,6.749,7.0083,7.1809,7.2924,7.3412,7.2457,7.2226,7.2278,7.3027,7.4053,7.4053,7.4259,7.6136,7.689,7.5151,7.3698,7.2722,7.1083,6.8915,6.7393,6.617,6.4991,6.3711,6.1695,6.0118,6.0118,6.0118,6.0118,6.0118,6.0118,6.0118,6.0118,6.0118,6.0118,6.0118,6.0118,6.0118,6.0118,6.0118,6.0118,6.0118,6.0118,6.0118,6.0118,6.0118,6.0118,6.0118,6.0118,6.0118,6.0118,6.0118,6.0118,6.0118,6.0118,6.0118,6.0118,6.0118,6.0118,6.0118,6.0118,6.0118,6.0118,6.0118,6.0118,6.0118,6.0118,6.0118,6.0118,6.0118,6.0118,6.0118,6.0118,6.0118,6.0118,6.0118,6.0099,6.0118,6.0156,6.0269,6.2808,6.4407,6.5538,6.6983,6.8274,6.8809,6.8488,6.8595,6.9022,6.9288,6.7716,6.7984,7.1031,7.1555,6.95,6.8274,6.8167,6.806,6.7845,6.7544,6.6333,6.5319,6.3987,6.2717,6.2625,6.257,6.3364,6.4428,6.51,6.566,6.6832,6.8561,6.9359,6.9593,7.0055,7.0454,7.142,7.4002,7.4692,7.6463,7.6839,7.6563,7.5933,7.5276,7.5706,7.5706,7.6261,7.689,7.7165,7.7065,7.6287,7.5834,7.5025,7.3595,7.1577,6.9796,6.8199,6.6908,6.5264,6.3253,6.1059,6.0646,6.0118,6.0118,6.0118,6.0118,6.0118,6.0118,6.0118,6.0118,6.0118,6.0118,6.0118,6.0118,6.0118,6.0118,6.0118,6.0118,6.0118,6.0118,6.0118,6.0118,6.0118,6.0118,6.0118,6.0118,6.0118,6.0118,6.0118,6.0118,6.0118,6.0118,6.0118,6.0118,6.0118,6.0118,6.0118,6.0118,6.0118,6.0118,6.0118,6.0118,6.0118,6.0118,6.0118,6.0118,6.0118,6.0118,6.0118,6.0118,6.0118,6.0099,6.0213,6.0552,6.1509,6.3399,6.6028,6.7684,6.9288,7.0716,7.163,7.1054,7.1136,7.1816,7.2515,7.1136,7.0663,7.2486,7.2745,7.1211,7.1001,7.0948,7.1001,7.0896,7.0083,6.8915,6.8092,6.7199,6.6137,6.5668,6.5668,6.6103,6.7112,6.7984,6.8658,6.9958,7.1633,7.2337,7.2858,7.3713,7.4442,7.5456,7.6412,7.6513,7.7065,7.7065,7.7165,7.7165,7.7165,7.7165,7.694,7.7165,7.7165,7.7165,7.7165,7.689,7.6563,7.6337,7.6111,7.5429,7.3824,7.1188,6.8466,6.6821,6.4847,6.2717,6.2123,6.0118,6.0118,6.0118,6.0118,6.0118,6.0118,6.0118,6.0118,6.0118,6.0118,6.0118,6.0118,6.0118,6.0118,6.0118,6.0118,6.0118,6.0118,6.0118,6.0118,6.0118,6.0118,6.0118,6.0118,6.0118,6.0118,6.0118,6.0118,6.0118,6.0118,6.0118,6.0118,6.0118,6.0118,6.0269,6.0477,6.0326,6.0326,6.0213,6.0118,6.0118,6.0118,6.0118,6.0118,6.0118,6.0118,6.0118,6.0118,6.1172,6.2438,6.2606,6.3308,6.5449,6.6082,6.8167,7.061,7.2151,7.3979,7.4617,7.3876,7.4463,7.5151,7.5429,7.4566,7.4463,7.4053,7.3773,7.3464,7.3515,7.3515,7.3619,7.3567,7.2434,7.142,7.0948,7.0475,6.9766,6.9022,6.9022,6.9203,6.9894,7.0873,7.1926,7.3259,7.4337,7.476,7.5419,7.5977,7.6546,7.7165,7.7165,7.7165,7.7165,7.7165,7.7165,7.7165,7.7165,7.7165,7.7165,7.7165,7.7165,7.7165,7.7165,7.7165,7.7165,7.699,7.6714,7.694,7.6438,7.3131,7.003,6.9394,6.8145,6.5592,6.4593,6.0118,6.0118,6.0118,6.0118,6.0118,6.0118,6.0118,6.0118,6.0118,6.0118,6.0118,6.0118,6.0118,6.0118,6.0118,6.0118,6.0118,6.0118,6.0118,6.0118,6.0118,6.0118,6.0118,6.0118,6.0118,6.0118,6.0118,6.0118,6.0118,6.0118,6.0118,6.0156,6.0118,6.0118,6.0703,6.1751,6.1863,6.1919,6.1695,6.1695,6.1658,6.059,6.0946,6.1377,6.1695,6.2625,6.2995,6.3217,6.3786,6.5264,6.5483,6.6137,6.8809,6.9553,7.0294,7.3033,7.5327,7.7165,7.7165,7.7115,7.694,7.6739,7.694,7.7165,7.7165,7.6789,7.6688,7.6186,7.5933,7.5656,7.5554,7.5554,7.5049,7.4412,7.4105,7.3619,7.3183,7.2665,7.2665,7.2895,7.3309,7.4081,7.4286,7.5387,7.5616,7.6616,7.709,7.6991,7.7165,7.7165,7.7165,7.7165,7.7165,7.7165,7.7165,7.7165,7.7165,7.7165,7.7165,7.7165,7.7165,7.7165,7.7165,7.7165,7.7165,7.7165,7.7165,7.704,7.689,7.3927,7.2099,7.2099,7.1502,6.9022,6.749,6.0118,6.0118,6.0118,6.0118,6.0118,6.0118,6.0118,6.0118,6.0118,6.0118,6.0118,6.0118,6.0118,6.0118,6.0118,6.0118,6.0118,6.0118,6.0118,6.0118,6.0118,6.0118,6.0118,6.0118,6.0118,6.0118,6.0118,6.0118,6.0118,6.0118,6.025,6.042,6.1341,6.1621,6.2884,6.4483,6.5647,6.4682,6.4208,6.4208,6.3952,6.2366,6.2773,6.3621,6.4263,6.523,6.6191,6.7145,6.7684,6.8328,6.8542,6.8702,6.9682,7.1345,7.2255,7.3698,7.5706,7.6789,7.7165,7.7165,7.7165,7.7165,7.7165,7.7165,7.7165,7.7165,7.7165,7.7165,7.7165,7.7165,7.7165,7.704,7.694,7.6739,7.6463,7.6261,7.5933,7.5757,7.573,7.5883,7.6136,7.6287,7.6287,7.6463,7.6591,7.7165,7.7165,7.7165,7.7165,7.7165,7.7165,7.7165,7.7165,7.7165,7.7165,7.7165,7.7165,7.7165,7.7165,7.7165,7.7165,7.7165,7.7165,7.7165,7.7165,7.7165,7.7165,7.7115,7.694,7.6136,7.4361,7.4081,7.3852,7.163,7.0791,6.0118,6.0118,6.0118,6.0118,6.0118,6.0118,6.0118,6.0118,6.0118,6.0118,6.0118,6.0118,6.0118,6.0118,6.0118,6.0118,6.0118,6.0118,6.0118,6.0118,6.0118,6.0118,6.0118,6.0118,6.0477,6.0118,6.0118,6.0326,6.0703,6.0269,6.1228,6.2995,6.4758,6.5087,6.6158,6.7166,6.8328,6.7716,6.7145,6.7145,6.6767,6.6246,6.5974,6.6767,6.7253,6.7684,6.8381,6.8915,6.9394,7.0873,7.1734,7.2307,7.3927,7.5174,7.553,7.5682,7.6739,7.694,7.7165,7.7165,7.7165,7.7165,7.7165,7.7165,7.7165,7.7165,7.7165,7.7165,7.7165,7.7165,7.7165,7.7165,7.7115,7.7115,7.694,7.689,7.6688,7.6614,7.6588,7.6688,7.6839,7.694,7.699,7.7165,7.7165,7.7165,7.7165,7.7165,7.7165,7.7165,7.7165,7.7165,7.7165,7.7165,7.7165,7.7165,7.7165,7.7165,7.7165,7.7165,7.7165,7.7165,7.7165,7.7165,7.7165,7.7165,7.7165,7.7165,7.7115,7.6563,7.5808,7.5682,7.5733,7.5378,7.51,6.0118,6.0118,6.0118,6.0118,6.0118,6.0118,6.0118,6.0118,6.0118,6.0118,6.0118,6.0118,6.0118,6.0118,6.0118,6.0118,6.0118,6.0118,6.0118,6.0118,6.0118,6.0099,6.059,6.1059,6.1695,6.1751,6.2773,6.3364,6.2737,6.3585,6.4593,6.5449,6.722,6.95,7.1001,7.1473,7.0716,7.0189,7.0083,7.003,6.9902,6.9075,6.8862,6.9955,7.003,7.0716,7.1966,7.2226,7.2924,7.4081,7.4361,7.4998,7.6261,7.6739,7.699,7.704,7.7115,7.7165,7.7165,7.7165,7.7165,7.7165,7.7165,7.7165,7.7165,7.7165,7.7165,7.7165,7.7165,7.7165,7.7165,7.7165,7.7165,7.7165,7.7165,7.7165,7.7165,7.7165,7.7165,7.7165,7.7165,7.7165,7.7165,7.7165,7.7165,7.7165,7.7165,7.7165,7.7165,7.7165,7.7165,7.7165,7.7165,7.7165,7.7165,7.7165,7.7165,7.7165,7.7165,7.7165,7.7165,7.7165,7.7165,7.7165,7.7165,7.7165,7.7165,7.7165,7.7165,7.7165,7.6839,7.6614,7.6513,7.6765,7.7141,6.0118,6.0118,6.0118,6.0118,6.0118,6.0118,6.0118,6.0118,6.0118,6.0118,6.0118,6.0118,6.0118,6.0118,6.0118,6.0118,6.0118,6.0118,6.042,6.0684,6.1003,6.074,6.1639,6.3142,6.4483,6.5155,6.6028,6.7037,6.7791,6.7112,6.7845,6.8755,6.9977,7.1966,7.6563,7.699,7.5581,7.3441,7.3056,7.3004,7.2567,7.1031,7.1525,7.2463,7.3004,7.3876,7.4947,7.5453,7.5554,7.6237,7.6362,7.6638,7.7115,7.7165,7.7165,7.7165,7.7165,7.7165,7.7165,7.7165,7.7165,7.7165,7.7165,7.7165,7.7165,7.7165,7.7165,7.7165,7.7165,7.7165,7.7165,7.7165,7.7165,7.7165,7.7165,7.7165,7.7165,7.7165,7.7165,7.7165,7.7165,7.7165,7.7165,7.7165,7.7165,7.7165,7.7165,7.7165,7.7165,7.7165,7.7165,7.7165,7.7165,7.7165,7.7165,7.7165,7.7165,7.7165,7.7165,7.7165,7.7165,7.7165,7.7165,7.7165,7.7165,7.7165,7.7165,7.7165,7.7165,7.7165,7.7165,7.7165,7.7165,7.7165,7.7165,6.0118,6.0118,6.0118,6.0118,6.0118,6.0118,6.0118,6.0118,6.0118,6.0118,6.0118,6.0118,6.0118,6.0118,6.0156,6.0213,6.0383,6.0646,6.1546,6.2438,6.3344,6.4352,6.5722,6.6842,6.7361,6.7468,6.8435,6.8915,6.9235,6.8755,6.9977,7.1839,7.3544,7.4743,7.7165,7.7115,7.6789,7.6085,7.5909,7.5909,7.5808,7.4794,7.5225,7.5327,7.5656,7.6388,7.6839,7.7165,7.7165,7.7165,7.7165,7.7165,7.7165,7.7165,7.7165,7.7165,7.7165,7.7165,7.7165,7.7165,7.7165,7.7165,7.7165,7.7165,7.7165,7.7165,7.7165,7.7165,7.7165,7.7165,7.7165,7.7165,7.7165,7.7165,7.7165,7.7165,7.7165,7.7165,7.7165,7.7165,7.7165,7.7165,7.7165,7.7165,7.7165,7.7165,7.7165,7.7165,7.7165,7.7165,7.7165,7.7165,7.7165,7.7165,7.7165,7.7165,7.7165,7.7165,7.7165,7.7165,7.7165,7.7165,7.7165,7.7165,7.7165,7.7165,7.7165,7.7165,7.7165,7.7165,7.7165,7.7165,7.7165,7.7165,7.7165,6.0118,6.0118,6.0118,6.0118,6.0118,6.0118,6.0118,6.0118,6.0118,6.0118,6.0118,6.0118,6.0118,6.0477,6.0853,6.1695,6.1863,6.2681,6.4373,6.5592,6.6007,6.6983,6.8306,6.9288,7.0294,7.0505,7.16,7.1913,7.1682,7.2486,7.3389,7.4259,7.5858,7.7014,7.7165,7.7165,7.7115,7.7065,7.7065,7.7115,7.7165,7.7165,7.7165,7.7165,7.7165,7.7165,7.7165,7.7165,7.7165,7.7165,7.7165,7.7165,7.7165,7.7165,7.7165,7.7165,7.7165,7.7165,7.7165,7.7165,7.7165,7.7165,7.7165,7.7165,7.7165,7.7165,7.7165,7.7165,7.7165,7.7165,7.7165,7.7165,7.7165,7.7165,7.7165,7.7165,7.7165,7.7165,7.7165,7.7165,7.7165,7.7165,7.7165,7.7165,7.7165,7.7165,7.7165,7.7165,7.7165,7.7165,7.7165,7.7165,7.7165,7.7165,7.7165,7.7165,7.7165,7.7165,7.7165,7.7165,7.7165,7.7165,7.7165,7.7165,7.7165,7.7165,7.7165,7.7165,7.7165,7.7165,7.7165,7.7165,7.7165,7.7165,7.7165,6.0118,6.0118,6.0118,6.0118,6.0118,6.0118,6.0118,6.0118,6.0118,6.0118,6.0118,6.0099,6.0269,6.1172,6.3253,6.4627,6.4717,6.7361,6.822,6.8595,6.8969,6.9394,7.0738,7.2203,7.3263,7.3595,7.4719,7.6034,7.6739,7.5656,7.6412,7.7165,7.7014,7.7115,7.7165,7.7165,7.7165,7.7165,7.7165,7.7165,7.7165,7.7165,7.7165,7.7165,7.7165,7.7165,7.7165,7.7165,7.7165,7.7165,7.7165,7.7165,7.7165,7.7165,7.7165,7.7165,7.7165,7.7165,7.7165,7.7165,7.7165,7.7165,7.7165,7.7165,7.7165,7.7165,7.7165,7.7165,7.7165,7.7165,7.7165,7.7165,7.7165,7.7165,7.7165,7.7165,7.7165,7.7165,7.7165,7.7165,7.7165,7.7165,7.7165,7.7165,7.7165,7.7165,7.7165,7.7165,7.7165,7.7165,7.7165,7.7165,7.7165,7.7165,7.7165,7.7165,7.7165,7.7165,7.7165,7.7165,7.7165,7.7165,7.7165,7.7165,7.7165,7.7165,7.7165,7.7165,7.7165,7.7165,7.7165,7.7165,7.7165,7.7165,7.7165,6.0118,6.0118,6.0118,6.0118,6.0118,6.0118,6.0118,6.0118,6.0118,6.0118,6.0118,6.0269,6.1377,6.351,6.5974,6.7576,6.7651,6.8296,6.9818,7.1263,7.2047,7.2953,7.4156,7.5124,7.5909,7.6186,7.689,7.709,7.7165,7.7165,7.7165,7.7165,7.7165,7.7165,7.7165,7.7165,7.7165,7.7165,7.7165,7.7165,7.7165,7.7165,7.7165,7.7165,7.7165,7.7165,7.7165,7.7165,7.7165,7.7165,7.7165,7.7165,7.7165,7.7165,7.7165,7.7165,7.7165,7.7165,7.7165,7.7165,7.7165,7.7165,7.7165,7.7165,7.7165,7.7165,7.7165,7.7165,7.7165,7.7165,7.7165,7.7165,7.7165,7.7165,7.7165,7.7165,7.7165,7.7165,7.7165,7.7165,7.7165,7.7165,7.7165,7.7165,7.7165,7.7165,7.7165,7.7165,7.7165,7.7165,7.7165,7.7165,7.7165,7.7165,7.7165,7.7165,7.7165,7.7165,7.7165,7.7165,7.7165,7.7165,7.7165,7.7165,7.7165,7.7165,7.7165,7.7165,7.7165,7.7165,7.7165,7.7165,7.7165,7.7165,7.7165,6.0118,6.0118,6.0118,6.0118,6.0118,6.0118,6.0118,6.0118,6.0118,6.0118,6.025,6.1209,6.2753,6.4881,6.8809,7.04,7.0791,7.1988,7.3361,7.4566,7.4845,7.553,7.689,7.7165,7.7165,7.699,7.7165,7.7165,7.7165,7.7165,7.7165,7.7165,7.7165,7.7165,7.7165,7.7165,7.7165,7.7165,7.7165,7.7165,7.7165,7.7165,7.7165,7.7165,7.7165,7.7165,7.7165,7.7165,7.7165,7.7165,7.7165,7.7165,7.7165,7.7165,7.7165,7.7165,7.7165,7.7165,7.7165,7.7165,7.7165,7.7165,7.7165,7.7165,7.7165,7.7165,7.7165,7.7165,7.7165,7.7165,7.7165,7.7165,7.7165,7.7165,7.7165,7.7165,7.7165,7.7165,7.7165,7.7165,7.7165,7.7165,7.7165,7.7165,7.7165,7.7165,7.7165,7.7165,7.7165,7.7165,7.7165,7.7165,7.7165,7.7165,7.7165,7.7165,7.7165,7.7165,7.7165,7.7165,7.7165,7.7165,7.7165,7.7165,7.7165,7.7165,7.7165,7.7165,7.7165,7.7165,7.7165,7.7165,7.7165,7.7165,7.7165,6.0118,6.0118,6.0118,6.0118,6.0118,6.0118,6.0118,6.0118,6.0118,6.0118,6.0213,6.2808,6.4407,6.617,7.0558,7.2826,7.3904,7.5276,7.6362,7.6513,7.6664,7.6839,7.7165,7.7165,7.7165,7.7165,7.7165,7.7165,7.7165,7.7165,7.7165,7.7165,7.7165,7.7165,7.7165,7.7165,7.7165,7.7165,7.7165,7.7165,7.7165,7.7165,7.7165,7.7165,7.7165,7.7165,7.7165,7.7165,7.7165,7.7165,7.7165,7.7165,7.7165,7.7165,7.7165,7.7165,7.7165,7.7165,7.7165,7.7165,7.7165,7.7165,7.7165,7.7165,7.7165,7.7165,7.7165,7.7165,7.7165,7.7165,7.7165,7.7165,7.7165,7.7165,7.7165,7.7165,7.7165,7.7165,7.7165,7.7165,7.7165,7.7165,7.7165,7.7165,7.7165,7.7165,7.7165,7.7165,7.7165,7.7165,7.7165,7.7165,7.7165,7.7165,7.7165,7.7165,7.7165,7.7165,7.7165,7.7165,7.7165,7.7165,7.7165,7.7165,7.7165,7.7165,7.7165,7.7165,7.7165,7.7165,7.7165,7.7165,7.7165,7.7165,7.7165,6.0118,6.0118,6.0118,6.0118,6.0118,6.0118,6.0099,6.0118,6.0213,6.0269,6.0477,6.3177,6.5865,6.8167,7.1241,7.416,7.6337,7.6664,7.7165,7.7165,7.7165,7.7165,7.7165,7.7165,7.7165,7.7165,7.7165,7.7165,7.7165,7.7165,7.7165,7.7165,7.7165,7.7165,7.7165,7.7165,7.7165,7.7165,7.7165,7.7165,7.7165,7.7165,7.7165,7.7165,7.7165,7.7165,7.7165,7.7165,7.7165,7.7165,7.7165,7.7165,7.7165,7.7165,7.7165,7.7165,7.7165,7.7165,7.7165,7.7165,7.7165,7.7165,7.7165,7.7165,7.7165,7.7165,7.7165,7.7165,7.7165,7.7165,7.7165,7.7165,7.7165,7.7165,7.7165,7.7165,7.7165,7.7165,7.7165,7.7165,7.7165,7.7165,7.7165,7.7165,7.7165,7.7165,7.7165,7.7165,7.7165,7.7165,7.7165,7.7165,7.7165,7.7165,7.7165,7.7165,7.7165,7.7165,7.7165,7.7165,7.7165,7.7165,7.7165,7.7165,7.7165,7.7165,7.7165,7.7165,7.7165,7.7165,7.7165,7.7165,7.7165,7.7165,7.7165,6.0118,6.0118,6.0118,6.0118,6.0118,6.0118,6.0797,6.1955,6.2123,6.2123,6.3344,6.6442,6.868,6.966,7.2849,7.5581,7.6839,7.7165,7.7165,7.7165,7.7165,7.7165,7.7165,7.7165,7.7165,7.7165,7.7165,7.7165,7.7165,7.7165,7.7165,7.7165,7.7165,7.7165,7.7165,7.7165,7.7165,7.7165,7.7165,7.7165,7.7165,7.7165,7.7165,7.7165,7.7165,7.7165,7.7165,7.7165,7.7165,7.7165,7.7165,7.7165,7.7165,7.7165,7.7165,7.7165,7.7165,7.7165,7.7165,7.7165,7.7165,7.7165,7.7165,7.7165,7.7165,7.7165,7.7165,7.7165,7.7165,7.7165,7.7165,7.7165,7.7165,7.7165,7.7165,7.7165,7.7165,7.7165,7.7165,7.7165,7.7165,7.7165,7.7165,7.7165,7.7165,7.7165,7.7165,7.7165,7.7165,7.7165,7.7165,7.7165,7.7165,7.7165,7.7165,7.7165,7.7165,7.7165,7.7165,7.7165,7.7165,7.7165,7.7165,7.7165,7.7165,7.7165,7.7165,7.7165,7.7165,7.7165,7.7165,7.7165,7.7165,7.7165,7.7165,6.0118,6.0118,6.0118,6.0118,6.0118,6.0118,6.1321,6.3454,6.3821,6.4297,6.5046,7.0144,7.1136,7.1263,7.4998,7.699,7.7065,7.7165,7.7165,7.7165,7.7165,7.7165,7.7165,7.7165,7.7165,7.7165,7.7165,7.7165,7.7165,7.7165,7.7165,7.7165,7.7165,7.7165,7.7165,7.7165,7.7165,7.7165,7.7165,7.7165,7.7165,7.7165,7.7165,7.7165,7.7165,7.7165,7.7165,7.7165,7.7165,7.7165,7.7165,7.7165,7.7165,7.7165,7.7165,7.7165,7.7165,7.7165,7.7165,7.7165,7.7165,7.7165,7.7165,7.7165,7.7165,7.7165,7.7165,7.7165,7.7165,7.7165,7.7165,7.7165,7.7165,7.7165,7.7165,7.7165,7.7165,7.7165,7.7165,7.7165,7.7165,7.7165,7.7165,7.7165,7.7165,7.7165,7.7165,7.7165,7.7165,7.7165,7.7165,7.7165,7.7165,7.7165,7.7165,7.7165,7.7165,7.7165,7.7165,7.7165,7.7165,7.7165,7.7165,7.7165,7.7165,7.7165,7.7165,7.7165,7.7165,7.7165,7.7165,7.7165,7.7165,7.7165,7.7165,6.0118,6.0118,6.0118,6.0118,6.0118,6.0099,6.0477,6.1265,6.3233,6.4462,6.5483,7.0355,7.2619,7.2901,7.5757,7.704,7.7165,7.7165,7.7165,7.7165,7.7165,7.7165,7.7165,7.7165,7.7165,7.7165,7.7165,7.7165,7.7165,7.7165,7.7165,7.7165,7.7165,7.7165,7.7165,7.7165,7.7165,7.7165,7.7165,7.7165,7.7165,7.7165,7.7165,7.7165,7.7165,7.7165,7.7165,7.7165,7.7165,7.7165,7.7165,7.7165,7.7165,7.7165,7.7165,7.7165,7.7165,7.7165,7.7165,7.7165,7.7165,7.7165,7.7165,7.7165,7.7165,7.7165,7.7165,7.7165,7.7165,7.7165,7.7165,7.7165,7.7165,7.7165,7.7165,7.7165,7.7165,7.7165,7.7165,7.7165,7.7165,7.7165,7.7165,7.7165,7.7165,7.7165,7.7165,7.7165,7.7165,7.7165,7.7165,7.7165,7.7165,7.7165,7.7165,7.7165,7.7165,7.7165,7.7165,7.7165,7.7165,7.7165,7.7165,7.7165,7.7165,7.7165,7.7165,7.7165,7.7165,7.7165,7.7165,7.7165,7.7165,7.7165,7.7165,6.0118,6.0118,6.0118,6.0118,6.0118,6.0118,6.089,6.2438,6.3821,6.5155,6.7307,7.0903,7.2878,7.3159,7.5757,7.7165,7.7165,7.7165,7.7165,7.7165,7.7165,7.7165,7.7165,7.7165,7.7165,7.7165,7.7165,7.7165,7.7165,7.7165,7.7165,7.7165,7.7165,7.7165,7.7165,7.7165,7.7165,7.7165,7.7165,7.7165,7.7165,7.7165,7.7165,7.7165,7.7165,7.7165,7.7165,7.7165,7.7165,7.7165,7.7165,7.7165,7.7165,7.7165,7.7165,7.7165,7.7165,7.7165,7.7165,7.7165,7.7165,7.7165,7.7165,7.7165,7.7165,7.7165,7.7165,7.7165,7.7165,7.7165,7.7165,7.7165,7.7165,7.7165,7.7165,7.7165,7.7165,7.7165,7.7165,7.7165,7.7165,7.7165,7.7165,7.7165,7.7165,7.7165,7.7165,7.7165,7.7165,7.7165,7.7165,7.7165,7.7165,7.7165,7.7165,7.7165,7.7165,7.7165,7.7165,7.7165,7.7165,7.7165,7.7165,7.7165,7.7165,7.7165,7.7165,7.7165,7.7165,7.7165,7.7165,7.7165,7.7165,7.7165,7.7165,6.0118,6.0118,6.0118,6.0118,6.0118,6.0099,6.1321,6.3288,6.3967,6.5483,6.806,7.1345,7.2826,7.3108,7.5757,7.7165,7.7165,7.7165,7.7165,7.7165,7.7165,7.7165,7.7165,7.7165,7.7165,7.7165,7.7165,7.7165,7.7165,7.7165,7.7165,7.7165,7.7165,7.7165,7.7165,7.7165,7.7165,7.7165,7.7165,7.7165,7.7165,7.7165,7.7165,7.7165,7.7165,7.7165,7.7165,7.7165,7.7165,7.7165,7.7165,7.7165,7.7165,7.7165,7.7165,7.7165,7.7165,7.7165,7.7165,7.7165,7.7165,7.7165,7.7165,7.7165,7.7165,7.7165,7.7165,7.7165,7.7165,7.7165,7.7165,7.7165,7.7165,7.7165,7.7165,7.7165,7.7165,7.7165,7.7165,7.7165,7.7165,7.7165,7.7165,7.7165,7.7165,7.7165,7.7165,7.7165,7.7165,7.7165,7.7165,7.7165,7.7165,7.7165,7.7165,7.7165,7.7165,7.7165,7.7165,7.7165,7.7165,7.7165,7.7165,7.7165,7.7165,7.7165,7.7165,7.7165,7.7165,7.7165,7.7165,7.7165,7.7165,7.7165,7.7165,6.0118,6.0118,6.0118,6.0118,6.0118,6.0118,6.0364,6.1059,6.3066,6.4497,6.6225,7.0641,7.2722,7.3108,7.596,7.7165,7.7165,7.7165,7.7165,7.7165,7.7165,7.7165,7.7165,7.7165,7.7165,7.7165,7.7165,7.7165,7.7165,7.7165,7.7165,7.7165,7.7165,7.7165,7.7165,7.7165,7.7165,7.7165,7.7165,7.7165,7.7165,7.7165,7.7165,7.7165,7.7165,7.7165,7.7165,7.7165,7.7165,7.7165,7.7165,7.7165,7.7165,7.7165,7.7165,7.7165,7.7165,7.7165,7.7165,7.7165,7.7165,7.7165,7.7165,7.7165,7.7165,7.7165,7.7165,7.7165,7.7165,7.7165,7.7165,7.7165,7.7165,7.7165,7.7165,7.7165,7.7165,7.7165,7.7165,7.7165,7.7165,7.7165,7.7165,7.7165,7.7165,7.7165,7.7165,7.7165,7.7165,7.7165,7.7165,7.7165,7.7165,7.7165,7.7165,7.7165,7.7165,7.7165,7.7165,7.7165,7.7165,7.7165,7.7165,7.7165,7.7165,7.7165,7.7165,7.7165,7.7165,7.7165,7.7165,7.7165,7.7165,7.7165,7.7165,6.1546,6.0118,6.0118,6.0118,6.0118,6.0118,6.0118,6.0326,6.149,6.351,6.6875,6.9531,7.2203,7.5303,7.6614,7.7165,7.7165,7.7165,7.7165,7.7165,7.7165,7.7165,7.7165,7.7165,7.7165,7.7165,7.7165,7.7165,7.7165,7.7165,7.7165,7.7165,7.7165,7.7165,7.7165,7.7165,7.7165,7.7165,7.7165,7.7165,7.7165,7.7165,7.7165,7.7165,7.7165,7.7165,7.7165,7.7165,7.7165,7.7165,7.7165,7.7165,7.7165,7.7165,7.7165,7.7165,7.7165,7.7165,7.7165,7.7165,7.7165,7.7165,7.7165,7.7165,7.7165,7.7165,7.7165,7.7165,7.7165,7.7165,7.7165,7.7165,7.7165,7.7165,7.7165,7.7165,7.7165,7.7165,7.7165,7.7165,7.7165,7.7165,7.7165,7.7165,7.7165,7.7165,7.7165,7.7165,7.7165,7.7165,7.7165,7.7165,7.7165,7.7165,7.7165,7.7165,7.7165,7.7165,7.7165,7.7165,7.7165,7.7165,7.7165,7.7165,7.7165,7.7165,7.7165,7.7165,7.7165,7.7165,7.7165,7.7165,7.7165,7.7165,7.7165,6.4208,6.2366,6.231,6.1863,6.1209,6.1209,6.0853,6.0213,6.089,6.3731,6.7112,6.9022,7.2255,7.5858,7.6688,7.7165,7.7165,7.7165,7.7165,7.7165,7.7165,7.7165,7.7165,7.7165,7.7165,7.7165,7.7165,7.7165,7.7165,7.7165,7.7165,7.7165,7.7165,7.7165,7.7165,7.7165,7.7165,7.7165,7.7165,7.7165,7.7165,7.7165,7.7165,7.7165,7.7165,7.7165,7.7165,7.7165,7.7165,7.7165,7.7165,7.7165,7.7165,7.7165,7.7165,7.7165,7.7165,7.7165,7.7165,7.7165,7.7165,7.7165,7.7165,7.7165,7.7165,7.7165,7.7165,7.7165,7.7165,7.7165,7.7165,7.7165,7.7165,7.7165,7.7165,7.7165,7.7165,7.7165,7.7165,7.7165,7.7165,7.7165,7.7165,7.7165,7.7165,7.7165,7.7165,7.7165,7.7165,7.7165,7.7165,7.7165,7.7165,7.7165,7.7165,7.7165,7.7165,7.7165,7.7165,7.7165,7.7165,7.7165,7.7165,7.7165,7.7165,7.7165,7.7165,7.7165,7.7165,7.7165,7.7165,7.7165,7.7165,7.7165,7.7165,6.822,6.8167,6.8081,6.63,6.3987,6.4077,6.2828,6.1059,6.292,6.4607,6.617,7.0272,7.2953,7.3852,7.6237,7.7165,7.7165,7.7165,7.7165,7.7165,7.7165,7.7165,7.7165,7.7165,7.7165,7.7165,7.7165,7.7165,7.7165,7.7165,7.7165,7.7165,7.7165,7.7165,7.7165,7.7165,7.7165,7.7165,7.7165,7.7165,7.7165,7.7165,7.7165,7.7165,7.7165,7.7165,7.7165,7.7165,7.7165,7.7165,7.7165,7.7165,7.7165,7.7165,7.7165,7.7165,7.7165,7.7165,7.7165,7.7165,7.7165,7.7165,7.7165,7.7165,7.7165,7.7165,7.7165,7.7165,7.7165,7.7165,7.7165,7.7165,7.7165,7.7165,7.7165,7.7165,7.7165,7.7165,7.7165,7.7165,7.7165,7.7165,7.7165,7.7165,7.7165,7.7165,7.7165,7.7165,7.7165,7.7165,7.7165,7.7165,7.7165,7.7165,7.7165,7.7165,7.7165,7.7165,7.7165,7.7165,7.7165,7.7165,7.7165,7.7165,7.7165,7.7165,7.7165,7.7165,7.7165,7.7165,7.7165,7.7165,7.7165,7.7165,7.7165,6.9235,6.6225,6.7845,6.6983,6.4607,6.6354,6.6354,6.5722,6.6625,6.8038,6.9796,7.2024,7.3852,7.553,7.6688,7.7165,7.7165,7.7165,7.7165,7.7165,7.7165,7.7165,7.7165,7.7165,7.7165,7.7165,7.7165,7.7165,7.7165,7.7165,7.7165,7.7165,7.7165,7.7165,7.7165,7.7165,7.7165,7.7165,7.7165,7.7165,7.7165,7.7165,7.7165,7.7165,7.7165,7.7165,7.7165,7.7165,7.7165,7.7165,7.7165,7.7165,7.7165,7.7165,7.7165,7.7165,7.7165,7.7165,7.7165,7.7165,7.7165,7.7165,7.7165,7.7165,7.7165,7.7165,7.7165,7.7165,7.7165,7.7165,7.7165,7.7165,7.7165,7.7165,7.7165,7.7165,7.7165,7.7165,7.7165,7.7165,7.7165,7.7165,7.7165,7.7165,7.7165,7.7165,7.7165,7.7165,7.7165,7.7165,7.7165,7.7165,7.7165,7.7165,7.7165,7.7165,7.7165,7.7165,7.7165,7.7165,7.7165,7.7165,7.7165,7.7165,7.7165,7.7165,7.7165,7.7165,7.7165,7.7165,7.7165,7.7165,7.7165,7.7165,7.7165,7.0187,6.7628,6.8648,6.7808,6.6399,6.8452,6.8879,6.8159,6.9549,7.1031,7.2826,7.3852,7.5252,7.6839,7.7165,7.7165,7.7165,7.7165,7.7165,7.7165,7.7165,7.7165,7.7165,7.7165,7.7165,7.7165,7.7165,7.7165,7.7165,7.7165,7.7165,7.7165,7.7165,7.7165,7.7165,7.7165,7.7165,7.7165,7.7165,7.7165,7.7165,7.7165,7.7165,7.7165,7.7165,7.7165,7.7165,7.7165,7.7165,7.7165,7.7165,7.7165,7.7165,7.7165,7.7165,7.7165,7.7165,7.7165,7.7165,7.7165,7.7165,7.7165,7.7165,7.7165,7.7165,7.7165,7.7165,7.7165,7.7165,7.7165,7.7165,7.7165,7.7165,7.7165,7.7165,7.7165,7.7165,7.7165,7.7165,7.7165,7.7165,7.7165,7.7165,7.7165,7.7165,7.7165,7.7165,7.7165,7.7165,7.7165,7.7165,7.7165,7.7165,7.7165,7.7165,7.7165,7.7165,7.7165,7.7165,7.7165,7.7165,7.7165,7.7165,7.7165,7.7165,7.7165,7.7165,7.7165,7.7165,7.7165,7.7165,7.7165,7.7165,7.7165,7.7165,7.1444,7.2686,7.1053,6.978,6.934,7.0674,6.9645,6.8414,7.1194,7.268,7.3277,7.5616,7.6523,7.7067,7.697,7.7043,7.6872,7.6799,7.6872,7.7019,7.7043,7.7067,7.7165,7.7165,7.7165,7.7165,7.7165,7.7165,7.7165,7.7165,7.7165,7.7165,7.7165,7.7165,7.7165,7.7165,7.7165,7.7165,7.7165,7.7165,7.7165,7.7165,7.7165,7.7165,7.7165,7.7165,7.7165,7.7165,7.7165,7.7165,7.7165,7.7165,7.7165,7.7165,7.7165,7.7165,7.7165,7.7165,7.7165,7.7165,7.7165,7.7165,7.7165,7.7165,7.7165,7.7165,7.7165,7.7165,7.7165,7.7165,7.7165,7.7165,7.7165,7.7165,7.7165,7.7165,7.7165,7.7165,7.7165,7.7165,7.7165,7.7165,7.7165,7.7165,7.7165,7.7165,7.7165,7.7165,7.7165,7.7165,7.7165,7.7165,7.7165,7.7165,7.7165,7.7165,7.7165,7.7165,7.7165,7.7165,7.7165,7.7165,7.7165,7.7165,7.7165,7.7165,7.7165,7.7165,7.7165,7.7165,7.7165,7.7165,7.7165,7.7165,7.7165,7.1341,7.1179,7.213,7.1471,6.9944,7.2046,7.2484,7.1917,7.2989,7.3525,7.3673,7.4505,7.5408,7.6019,7.6141,7.575,7.4993,7.4969,7.5359,7.6067,7.6116,7.6507,7.7067,7.7165,7.7165,7.7165,7.7165,7.7165,7.7165,7.7165,7.7165,7.7165,7.7165,7.7165,7.7165,7.7165,7.7165,7.7165,7.7165,7.7165,7.7165,7.7165,7.7165,7.7165,7.7165,7.7165,7.7165,7.7165,7.7165,7.7165,7.7165,7.7165,7.7165,7.7165,7.7165,7.7165,7.7141,7.7165,7.7165,7.7165,7.7165,7.7165,7.7165,7.7165,7.7165,7.7165,7.7165,7.7165,7.7165,7.7165,7.7165,7.7165,7.7165,7.7165,7.7165,7.7165,7.7165,7.7165,7.7165,7.7165,7.7165,7.7165,7.7165,7.7165,7.7165,7.7165,7.7165,7.7165,7.7165,7.7165,7.7165,7.7165,7.7165,7.7165,7.7165,7.7165,7.7165,7.7165,7.7165,7.7165,7.7165,7.7165,7.7165,7.7165,7.7165,7.7165,7.7165,7.7165,7.7165,7.7165,7.7165,7.7165,7.7165,7.7165,7.7165,7.0531,6.8784,7.06,7.0888,7.0262,7.2351,7.3285,7.3309,7.37,7.387,7.387,7.387,7.4261,7.4968,7.4602,7.4236,7.3895,7.387,7.4261,7.4871,7.4993,7.5579,7.6556,7.6579,7.68,7.7092,7.7165,7.7165,7.7165,7.7165,7.7165,7.7165,7.7165,7.7165,7.7165,7.7165,7.7165,7.7165,7.7165,7.7165,7.7165,7.7165,7.6945,7.6653,7.6189,7.5969,7.5969,7.5969,7.5969,7.5969,7.5969,7.5969,7.5969,7.5969,7.5969,7.6018,7.636,7.6629,7.6628,7.6971,7.7165,7.7165,7.7165,7.7165,7.7165,7.7165,7.7165,7.7165,7.7165,7.7165,7.7165,7.7165,7.7165,7.7165,7.7165,7.7165,7.7165,7.7165,7.7165,7.7165,7.7165,7.7165,7.7165,7.7165,7.7165,7.7165,7.7165,7.7165,7.7165,7.7165,7.7165,7.7165,7.7165,7.7165,7.7165,7.7165,7.7165,7.7165,7.7165,7.7165,7.7165,7.7165,7.7165,7.7165,7.7165,7.7165,7.7165,7.7165,7.7165,7.7165,7.7165,7.7165,7.7165,7.7165,7.7165,6.9331,6.7266,6.71,6.875,7.0771,7.1843,7.2258,7.2331,7.3212,7.3651,7.3578,7.3626,7.37,7.3626,7.2723,7.282,7.3578,7.3553,7.3651,7.3797,7.3774,7.4407,7.5481,7.5555,7.6043,7.6677,7.6701,7.6848,7.7019,7.7141,7.7165,7.7165,7.7165,7.7165,7.7165,7.7165,7.7165,7.7165,7.7165,7.7165,7.7165,7.7019,7.6408,7.5555,7.4481,7.4041,7.3992,7.3919,7.3944,7.3919,7.4017,7.3968,7.3944,7.3968,7.4017,7.4066,7.4968,7.553,7.5652,7.6482,7.6994,7.7043,7.7117,7.7265,7.7616,7.7391,7.7341,7.7441,7.7493,7.7468,7.7542,7.7441,7.7165,7.7165,7.7165,7.7165,7.7165,7.7165,7.7165,7.7165,7.7165,7.7165,7.7165,7.7165,7.7165,7.7165,7.7165,7.7165,7.7165,7.7165,7.7165,7.7165,7.7165,7.7165,7.7165,7.7165,7.7165,7.7165,7.7165,7.7165,7.7165,7.7165,7.7165,7.7165,7.7165,7.7165,7.7165,7.7165,7.7165,7.7165,7.7165,7.7165,7.7165,7.7165,7.7165,7.0305,6.9773,6.9702,7.0097,7.0814,7.1037,7.1159,7.1278,7.1476,7.1599,7.1599,7.1599,7.1623,7.155,7.1306,7.1306,7.1574,7.1599,7.1989,7.2722,7.2699,7.3332,7.4261,7.4358,7.4505,7.4749,7.4847,7.5286,7.6067,7.6776,7.7165,7.7165,7.7165,7.7165,7.7165,7.7165,7.7165,7.7141,7.7165,7.7165,7.6921,7.5603,7.4627,7.4358,7.4041,7.387,7.387,7.387,7.387,7.387,7.387,7.387,7.387,7.387,7.387,7.3919,7.4188,7.4334,7.4358,7.5408,7.6067,7.6116,7.675,7.7915,7.9101,7.8189,7.804,7.9416,7.8979,7.8878,7.9437,7.8213,7.7265,7.7165,7.7165,7.7165,7.7165,7.7165,7.7165,7.7165,7.7165,7.7165,7.7165,7.7165,7.7165,7.7165,7.7165,7.7165,7.7165,7.7165,7.7165,7.7165,7.7165,7.7165,7.7165,7.7165,7.7165,7.7165,7.7165,7.7165,7.7165,7.7165,7.7165,7.7165,7.7165,7.7165,7.7165,7.7165,7.7165,7.7165,7.7165,7.7165,7.7165,7.7165,7.7165,7.079,7.079,7.079,7.079,7.079,7.079,7.079,7.079,7.079,7.079,7.0692,6.9791,6.9624,7.0039,7.0039,7.0329,7.0719,7.079,7.1132,7.1647,7.1672,7.2258,7.3138,7.3236,7.3504,7.3822,7.387,7.4236,7.4871,7.5555,7.5823,7.5823,7.5823,7.5823,7.5823,7.5823,7.5823,7.5823,7.5823,7.5823,7.5627,7.4114,7.3284,7.3163,7.2797,7.2624,7.2624,7.2577,7.2577,7.2577,7.2624,7.2624,7.2577,7.2577,7.2577,7.2577,7.2624,7.2772,7.3212,7.4309,7.492,7.4944,7.5457,7.6827,7.9086,7.8133,7.8705,8.1341,8.0651,7.9485,7.9264,7.8107,7.705,7.6631,7.6556,7.6677,7.7092,7.7165,7.7165,7.7165,7.7165,7.7165,7.7165,7.7165,7.7165,7.7165,7.7165,7.7165,7.7165,7.7165,7.7165,7.7165,7.7165,7.7165,7.7165,7.7165,7.7165,7.7165,7.7165,7.7165,7.7165,7.7165,7.7165,7.7165,7.7165,7.7165,7.7165,7.7165,7.7165,7.7165,7.7165,7.7165,7.7165,7.7165,7.7165,7.0402,7.0497,7.0353,7.0472,7.0353,7.0378,7.0399,7.0399,7.0426,7.0426,7.0158,6.8311,6.8042,6.8823,6.8851,6.9384,7.035,7.0524,7.0573,7.0597,7.0741,7.1232,7.2111,7.2185,7.265,7.3407,7.348,7.3504,7.3724,7.3773,7.3822,7.387,7.387,7.3944,7.3919,7.3919,7.3919,7.3847,7.3675,7.3602,7.3504,7.2626,7.2185,7.2113,7.1159,7.0573,7.0646,7.0521,7.0426,7.0472,7.0426,7.0497,7.0472,7.0426,7.0497,7.0497,7.0497,7.0979,7.2095,7.3439,7.4313,7.4148,7.463,7.5893,7.805,7.7955,7.9617,8.2976,8.2258,8.0231,7.8287,7.7912,7.738,7.6332,7.5994,7.602,7.663,7.6921,7.7019,7.7043,7.7067,7.7315,7.7641,7.7391,7.7341,7.7816,7.7566,7.7165,7.7165,7.7165,7.7165,7.7165,7.7165,7.7165,7.7165,7.7165,7.7165,7.7165,7.7165,7.7165,7.7165,7.7165,7.7165,7.7165,7.7165,7.7165,7.7165,7.7165,7.7165,7.7165,7.7165,7.7165,7.7165,7.7165,7.7165,6.8189,6.8209,6.8209,6.8209,6.8164,6.8209,6.8164,6.8209,6.8164,6.8209,6.816,6.7677,6.7579,6.7799,6.7799,6.792,6.8306,6.9042,6.9408,6.9481,7.0329,7.0842,7.1107,7.1086,7.1208,7.1403,7.1452,7.1867,7.2553,7.2626,7.3041,7.3797,7.387,7.387,7.387,7.387,7.387,7.3773,7.2307,7.1452,7.1452,7.1254,7.1086,7.1012,6.999,6.9433,6.9359,6.8648,6.8233,6.8209,6.8209,6.8164,6.8209,6.8209,6.8209,6.8209,6.8209,6.8989,7.0919,7.432,7.6399,7.6451,7.8094,8.0168,8.2231,8.1138,8.1672,8.4743,8.3297,8.2139,8.2071,8.0948,7.9112,7.7241,7.6943,7.6391,7.5039,7.5408,7.597,7.6067,7.6702,7.7941,7.915,7.8362,7.794,7.9076,7.8312,7.7241,7.7165,7.7165,7.7165,7.7165,7.7165,7.7043,7.7165,7.7092,7.7043,7.7165,7.7092,7.6994,7.7092,7.7141,7.7165,7.7165,7.7165,7.7165,7.7165,7.7165,7.7165,7.7165,7.7165,7.7165,7.7165,7.7165,7.7165,6.7457,6.7457,6.7457,6.7457,6.7457,6.7457,6.7457,6.7335,6.5872,6.5482,6.5988,6.6037,6.6305,6.6701,6.6769,6.6969,6.7482,6.8067,6.8311,6.8315,6.8941,6.9279,6.9209,6.9234,6.9478,6.9941,6.9966,7.0503,7.1501,7.1574,7.1892,7.2404,7.2478,7.2431,7.2431,7.2431,7.2406,7.2429,7.0307,6.9279,6.9209,6.879,6.8546,6.8522,6.8408,6.8311,6.8266,6.775,6.7457,6.7457,6.7457,6.7457,6.7457,6.7457,6.7457,6.7501,6.8344,6.9372,7.0462,7.3678,7.5576,7.5671,7.7276,7.955,8.2374,8.1451,8.1499,8.322,8.2333,8.1422,8.0941,8.0305,7.9178,7.7429,7.6863,7.6304,7.5601,7.5251,7.5307,7.6294,7.6935,7.799,7.9765,7.8809,7.8499,7.8756,7.8189,7.7215,7.7165,7.6335,7.5627,7.5676,7.5652,7.5652,7.5627,7.5652,7.5652,7.5652,7.5652,7.5847,7.6434,7.6408,7.6678,7.7093,7.7165,7.7165,7.7165,7.7165,7.7165,7.7165,7.7165,7.7165,7.7165,7.7165,7.7165,6.6847,6.6994,6.7018,6.6994,6.6969,6.6823,6.6774,6.653,6.367,6.2913,6.3857,6.3882,6.4395,6.5231,6.5378,6.5939,6.6774,6.7091,6.7238,6.7238,6.7384,6.7457,6.7457,6.7457,6.7945,6.8729,6.8778,6.9331,7.0182,7.0255,7.0353,7.05,7.05,7.0573,7.0741,7.079,7.0573,7.0255,6.8384,6.7457,6.7433,6.6555,6.5988,6.5744,6.6677,6.7116,6.6799,6.6896,6.6725,6.614,6.6116,6.6018,6.5872,6.5726,6.6196,6.6975,6.8603,6.9875,7.0443,7.2086,7.3326,7.3819,7.5157,7.7093,7.9678,8.0103,8.0278,8.0481,8.0619,7.9646,7.786,7.8576,7.8714,7.7304,7.6352,7.6131,7.6778,7.5509,7.5338,7.7368,7.7726,7.8344,7.9768,7.9531,7.9024,7.8469,7.8007,7.72,7.6929,7.5528,7.4352,7.3918,7.387,7.387,7.4114,7.3895,7.4066,7.387,7.4017,7.4432,7.5261,7.531,7.5579,7.6507,7.6457,7.6506,7.6555,7.6701,7.6506,7.6433,7.6677,7.6898,7.6799,7.6604,7.6555,6.4036,6.4883,6.4883,6.4883,6.481,6.3823,6.3499,6.3336,6.1913,0.0,0.0,6.1635,6.1693,6.1937,6.2815,6.3304,6.3555,6.5378,6.6116,6.6232,6.7043,6.7457,6.7457,6.7457,6.7555,6.7725,6.7725,6.7823,6.8018,6.8062,6.8457,6.9237,6.9335,6.9819,7.0716,7.079,6.9865,6.8136,6.7652,6.7457,6.7457,6.7262,6.6378,6.4639,6.5622,6.5287,6.3531,6.4353,6.3271,5.9877,5.9619,5.9204,5.8263,5.8127,6.0017,6.3985,6.476,6.643,6.9687,7.0258,7.1609,7.4319,7.6662,7.7823,7.7249,7.8263,7.931,8.0394,8.0481,8.0276,7.9935,8.0071,7.9352,7.7241,7.6843,7.6485,7.6035,7.6199,7.6958,7.8565,7.9433,8.0897,8.2755,8.1555,8.0951,8.2072,7.9636,7.7359,7.7283,7.6859,7.5941,7.4224,7.3673,7.3748,7.3822,7.3748,7.387,7.37,7.3748,7.3944,7.4139,7.4188,7.4261,7.4603,7.4456,7.4529,7.4481,7.4627,7.4456,7.4481,7.5164,7.5872,7.5799,7.5139,7.4603,6.2132,6.2661,6.2661,6.2685,0.0,6.2035,6.1522,6.097,6.0473,6.0546,6.1049,6.1049,6.1049,6.1098,6.1571,6.1815,6.1864,6.2937,6.3426,6.3499,6.4524,6.497,6.4994,6.5598,6.6159,6.6628,6.6671,6.6964,6.7433,6.7457,6.7725,6.8193,6.8193,6.8213,6.8326,6.8839,6.855,6.7457,6.7469,6.694,6.5952,6.5262,6.4524,6.3523,6.4499,0.0,0.0,0.0,0.0,0.0,0.0,0.0,0.0,5.6455,0.0,5.7822,5.7397,5.7955,5.9906,6.1617,6.467,6.9417,7.1022,7.0643,6.7995,7.2588,7.4802,7.3004,7.5064,7.6547,7.6547,7.7164,7.7318,7.6869,7.6366,7.6185,7.6189,7.578,7.6342,7.8516,7.9476,8.0688,8.3052,8.222,8.1942,8.2215,8.0417,7.8678,7.7639,7.7399,7.6621,7.4363,7.3145,7.2282,7.2307,7.2307,7.2282,7.2307,7.2307,7.2479,7.3015,7.3065,7.326,7.3773,7.387,7.387,7.387,7.387,7.387,7.3919,7.4334,7.4602,7.4041,7.3943,7.387,6.0839,6.1049,6.1049,6.1049,6.1025,6.061,5.996,5.9165,5.9165,5.9667,6.0463,6.0424,6.0463,6.0488,6.0683,6.0741,6.0781,6.0912,6.1049,6.1034,6.1913,6.2327,6.2352,6.323,6.4133,6.4981,6.5318,6.5742,6.6256,6.6961,6.7158,6.6891,6.7214,6.6968,6.6275,0.0,0.0,0.0,6.7876,6.7019,6.5021,6.3968,6.3165,6.2352,6.3596,0.0,6.3491,6.3809,6.3108,6.1254,6.1067,0.0,0.0,0.0,0.0,0.0,0.0,0.0,0.0,0.0,0.0,0.0,6.1482,6.0668,5.901,6.5699,6.8375,6.4332,6.9189,7.2418,7.172,7.3203,7.4715,7.5693,7.5199,7.523,7.6337,7.5216,7.5364,7.8452,7.9041,7.9942,8.1784,8.2282,8.2047,8.137,8.0858,7.9784,7.7636,7.7602,7.694,7.4728,7.2888,7.1311,7.0542,7.028,7.0109,7.0109,7.0109,7.0451,7.1135,7.1284,7.1698,7.2579,7.292,7.2871,7.3187,7.3285,7.3138,7.3236,7.3407,7.3138,7.1723,7.2211,7.2944,6.0229,6.1049,6.1049,6.1049,6.0903,5.9057,5.8252,5.8106,5.813,5.8203,5.8325,5.8363,5.8339,5.8374,5.9301,5.9677,5.9726,6.0595,6.1049,6.1049,6.1156,6.1229,6.1269,6.1351,6.1538,6.174,6.3264,6.3261,6.2,6.5175,6.6063,6.4873,6.6343,6.7162,6.7279,6.8061,6.852,6.8635,6.9542,6.902,6.7125,6.6931,6.502,6.1544,6.3247,6.3052,6.0326,6.1823,6.058,5.597,5.5665,5.5177,5.4138,5.3559,5.2347,0.0,5.1211,0.0,0.0,0.0,0.0,0.0,0.0,0.0,0.0,5.9068,6.029,5.8659,6.7153,7.1371,6.8086,7.0905,7.3028,7.3169,7.3079,7.3556,7.4801,7.5711,7.6822,7.8381,7.9583,8.0365,8.0744,8.1754,8.2382,8.2035,8.1357,7.9899,7.7748,7.8031,7.7977,7.5739,7.4407,7.2416,7.0009,6.8595,6.7994,6.7989,6.8018,6.7965,6.8238,6.8213,6.8481,6.9457,6.9823,7.0067,7.0988,7.1159,7.1135,7.1183,7.1818,7.143,6.9185,6.9164,6.9582,5.8886,5.9315,5.934,5.9535,5.995,5.9896,6.0259,6.0959,6.0923,6.0039,5.8655,5.9452,5.9458,5.8865,6.0049,6.0563,6.0568,6.0749,6.0804,6.0779,6.0367,6.018,6.0204,6.0741,6.1553,6.2559,6.3357,6.3893,6.4223,6.5812,6.6328,6.5703,6.6477,6.5467,6.2925,6.5889,6.8164,6.9293,6.8687,6.7392,6.5482,6.5379,6.4008,6.1177,6.2002,6.1791,6.0424,6.1254,6.0375,5.7544,5.7349,5.6824,5.5726,4.9972,4.7545,0.0,0.0,0.0,0.0,0.0,0.0,0.0,0.0,0.0,0.0,0.0,5.1361,5.5113,6.4012,6.6835,6.0229,6.3663,6.6629,6.7326,6.5525,6.6746,7.2941,7.2214,7.2883,7.6919,7.7972,7.8845,8.0278,8.0947,8.1325,8.1354,8.0943,7.9962,7.8371,7.8952,7.8997,7.6697,7.5045,7.3036,7.0306,6.851,6.7457,6.7457,6.7457,6.7457,6.7457,6.7457,6.7579,6.7998,6.8164,6.8457,6.9352,6.923,6.9108,6.9401,6.9575,6.9087,6.775,6.7847,6.812,5.752,5.7386,5.6119,5.6471,5.7922,5.9117,6.0707,6.2456,6.2421,6.1242,5.9251,6.0171,5.9479,5.7691,5.7745,5.8421,5.9606,5.9525,5.9967,6.0786,6.0115,5.9987,6.0428,6.0767,6.191,6.361,6.3833,6.4568,6.5878,6.6469,6.5992,6.454,6.4785,6.3276,6.0191,6.3881,6.7383,7.0422,6.8896,6.7399,6.5918,6.4976,6.3587,6.171,6.1287,6.0912,6.0668,6.0668,6.018,5.9179,5.8332,5.723,5.5844,4.6794,0.0,0.0,0.0,0.0,0.0,0.0,0.0,0.0,0.0,4.0215,3.0958,0.0,4.4207,0.0,5.9679,6.215,5.5687,5.8196,0.0,0.0,5.8428,5.9241,6.6775,6.6746,6.7968,7.285,7.4739,7.6547,7.8823,7.9376,7.931,7.8706,7.8583,7.838,7.7834,7.8736,7.8986,7.7514,7.5917,7.388,7.1422,6.9225,6.759,6.6856,6.6652,6.6701,6.672,6.6701,6.6842,6.7018,6.7091,6.7184,6.7496,6.7574,6.7652,6.7812,6.7579,6.7241,6.7028,6.7165,6.7331,5.6336,5.5908,5.0905,5.0938,5.4201,5.4376,5.6511,5.9746,5.9806,5.968,5.9388,5.8421,5.5975,5.2268,4.8876,0.0,5.4521,5.566,5.7994,6.1325,6.0805,6.1431,6.296,6.1401,6.1632,6.3416,6.4016,6.4077,6.3813,6.5916,6.4004,5.8245,5.9266,6.0885,6.2762,6.3194,6.6434,7.233,7.2221,7.2111,7.1914,6.8458,6.5658,6.3562,6.1907,6.057,5.9629,5.9604,5.9155,5.8021,5.5082,5.235,4.9909,0.0,0.0,0.0,0.0,0.0,0.0,0.0,0.0,0.0,0.0,0.0,0.0,0.0,0.0,4.6068,5.3659,0.0,5.8807,5.8252,0.0,0.0,0.0,5.2519,5.3276,5.9359,6.3692,6.4187,0.0,0.0,7.4953,7.6169,7.6018,7.3605,7.3319,7.3726,7.4808,7.6053,7.7291,7.7998,7.7354,7.5586,7.2335,6.986,6.7492,6.5166,6.459,6.4632,6.4649,6.4674,6.5047,6.5926,6.6031,6.5848,6.4852,6.6404,6.7158,6.638,6.6482,6.6539,6.5968,6.6501,6.6912,5.1617,4.8869,4.6414,4.7065,4.9902,5.0955,5.4021,5.8285,5.8285,5.6367,5.3309,5.3837,5.0546,4.4464,4.3962,0.0,0.0,0.0,5.3285,5.7264,5.5721,5.7152,6.078,5.932,6.0013,6.2747,6.3042,6.3611,6.4469,6.5409,5.9538,4.7589,0.0,5.253,5.0727,5.7381,6.2472,6.5756,6.8838,7.0437,7.0404,6.7801,6.4964,6.2017,6.0125,5.896,5.8569,5.8545,5.7401,5.4948,5.2188,4.9282,0.0,0.0,0.0,0.0,0.0,0.0,0.0,0.0,0.0,0.0,0.0,2.7849,2.2348,0.0,0.0,0.0,3.9603,4.2218,4.4641,4.9683,0.0,0.0,0.0,0.0,0.0,0.0,0.0,5.9156,6.4012,6.7735,6.9832,7.1898,7.2825,7.1778,7.2243,7.2621,7.2451,0.0,7.4419,7.4948,7.3674,7.2181,7.095,6.6945,6.3996,6.3949,6.31,6.2682,6.3753,6.4006,6.4527,6.5932,6.6374,6.6324,6.623,6.6569,6.6906,6.6848,6.6746,6.661,6.6306,6.6527,6.6744,4.5264,0.0,0.0,0.0,0.0,4.5577,4.879,5.3184,5.3295,5.0849,4.6674,4.7494,0.0,0.0,0.0,0.0,0.0,0.0,4.9398,5.3654,5.3523,5.5749,5.9864,5.8292,5.9323,6.2558,6.1851,6.2027,6.2762,5.9621,5.1694,3.9635,0.0,0.0,0.0,0.0,5.8111,6.1339,6.6367,6.8986,6.8986,6.7657,6.5149,6.155,5.9191,5.7886,5.7886,5.7021,5.5022,5.1921,4.7987,0.0,0.0,0.0,0.0,0.0,0.0,0.0,0.0,0.0,0.0,0.0,0.0,0.0,0.0,0.0,0.0,0.0,0.0,0.0,3.6476,4.3495,4.599,0.0,0.0,0.0,0.0,0.0,0.0,0.0,0.0,0.0,6.2616,6.5875,6.8549,0.0,0.0,7.1458,7.1025,7.1694,7.2214,7.2214,7.0706,0.0,6.8286,6.4758,6.2465,6.3344,6.3053,6.253,6.2399,6.3621,6.4547,6.4351,6.5643,6.6706,6.6725,6.5624,6.4831,6.5478,6.5382,6.5182,6.5396,6.6354,6.6976,0.0,0.0,0.0,0.0,3.6624,0.0,0.0,0.0,4.3225,4.2326,0.0,3.9245,0.0,0.0,0.0,0.0,3.5659,4.1558,0.0,0.0,5.5813,5.9277,6.077,5.913,6.0011,6.285,6.0382,5.8607,5.7,4.6454,0.0,0.0,0.0,0.0,0.0,0.0,5.3751,6.1018,6.6309,6.8986,6.9015,6.892,6.7048,6.3348,5.9814,5.7912,5.7728,5.4719,5.1864,4.9335,4.1997,0.0,0.0,0.0,0.0,0.0,0.0,0.0,0.0,0.0,0.0,0.0,0.0,0.0,0.0,0.0,0.0,0.0,0.0,0.0,0.0,4.2175,0.0,0.0,0.0,0.0,0.0,0.0,0.0,0.0,0.0,5.6244,5.2781,5.7733,6.2937,6.666,0.0,0.0,0.0,0.0,7.0996,7.0996,6.9881,6.7906,6.4772,6.4966,6.4904,6.3063,0.0,0.0,5.9829,6.3139,6.4798,6.0156,6.3375,6.6328,6.5168,6.1693,5.9843,6.094,6.1173,6.1518,6.219,6.4233,6.6665,0.0,0.0,0.0,0.0,0.0,0.0,0.0,0.0,0.0,3.4139,3.1782,3.1353,0.0,0.0,0.0,0.0,0.0,0.0,0.0,0.0,4.441,4.8433,5.2409,5.2455,5.2727,5.3009,5.0605,4.6991,0.0,0.0,0.0,0.0,0.0,0.0,0.0,0.0,5.166,5.7088,6.4918,6.8986,6.8986,6.8986,6.7175,6.3521,6.2152,5.8373,5.1803,5.0025,4.8151,0.0,0.0,0.0,0.0,0.0,0.0,0.0,0.0,0.0,0.0,0.0,0.0,0.0,0.0,0.0,0.0,0.0,0.0,0.0,0.0,0.0,0.0,0.0,3.8313,0.0,0.0,0.0,0.0,0.0,0.0,0.0,0.0,0.0,4.5653,5.2525,5.8983,6.2762,6.5845,6.8232,6.9509,0.0,0.0,0.0,0.0,0.0,0.0,0.0,5.9183,5.9873,5.583,5.2313,5.1884,5.6364,5.987,5.9292,0.0,0.0,5.5269,5.2738,5.1953,5.2394,5.3867,5.4824,5.4134,5.5769,5.7234,0.0,0.0,0.0,0.0,0.0,0.0,0.0,0.0,0.0,2.6635,2.4285,0.0,0.0,0.0,0.0,0.0,0.0,0.0,0.0,0.0,0.0,0.0,4.459,4.5246,0.0,0.0,0.0,0.0,0.0,0.0,0.0,0.0,0.0,0.0,0.0,0.0,4.9045,5.4266,6.3541,6.8549,6.8986,6.8986,6.7236,6.3494,6.3356,5.8745,4.9057,0.0,0.0,0.0,0.0,0.0,0.0,0.0,0.0,0.0,0.0,0.0,0.0,0.0,0.0,0.0,0.0,0.0,0.0,0.0,0.0,0.0,0.0,0.0,0.0,0.0,3.432,0.0,0.0,0.0,0.0,0.0,0.0,0.0,0.0,0.0,0.0,4.6621,5.3509,5.8907,6.268,6.5915,6.8648,6.8658,6.8346,0.0,0.0,0.0,0.0,0.0,0.0,0.0,0.0,0.0,0.0,0.0,0.0,0.0,0.0,5.5491,4.7442,4.5028,4.437,4.4799,0.0,0.0,0.0,0.0,0.0,0.0,0.0,0.0,0.0,0.0,0.0,0.0,0.0,0.0,0.0,1.8298,0.0,0.0,1.5883,0.0,0.0,0.0,0.0,0.0,0.0,0.0,0.0,0.0,0.0,0.0,0.0,0.0,0.0,0.0,0.0,0.0,0.0,0.0,0.0,0.0,0.0,4.6022,5.268,6.2308,6.777,6.8867,6.8986,6.7207,6.3475,6.3329,5.9033,4.997,0.0,0.0,0.0,0.0,0.0,0.0,0.0,0.0,0.0,0.0,0.0,0.0,0.0,0.0,0.0,0.0,0.0,0.0,0.0,0.0,0.0,0.0,0.0,0.0,0.0,0.0,3.3508,3.4663,3.3765,0.0,0.0,0.0,0.0,0.0,0.0,0.0,0.0,0.0,5.5041,5.8783,6.2695,6.8087,6.7773,6.6956,6.704,6.5933,6.4652,6.3547,6.3024,6.1775,0.0,0.0,0.0,0.0,0.0,0.0,0.0,0.0,0.0,0.0,0.0,0.0,0.0,0.0,0.0,0.0,0.0,0.0,0.0,0.0,0.0,0.0,0.0,0.0,0.0,0.0,0.0,0.0,0.0,0.0,0.0,0.0,0.0,0.0,0.0,0.0,0.0,0.0,0.0,0.0,0.0,0.0,0.0,0.0,0.0,0.0,0.0,0.0,0.0,0.0,0.0,0.0,0.0,0.0,4.7054,5.2269,6.2949,6.8187,6.765,6.852,6.6846,6.2506,6.2283,5.8,0.0,0.0,0.0,0.0,0.0,0.0,0.0,0.0,0.0,0.0,0.0,0.0,0.0,0.0,0.0,0.0,0.0,0.0,0.0,0.0,0.0,0.0,0.0,0.0,0.0,0.0,0.0,0.0,3.6994,3.5842,3.1788,0.0,0.0,0.0,0.0,0.0,0.0,0.0,0.0,0.0,0.0,6.1956,6.5562,6.5196,6.4781,6.5588,6.3809,6.2908,6.4332,6.0544,5.7492,5.7514,0.0,0.0,0.0,0.0,0.0,0.0,0.0,0.0,0.0,0.0,0.0,0.0,0.0,0.0,0.0,0.0,0.0,0.0,0.0,0.0,0.0,0.0,0.0,0.0,0.0,0.0,0.0,0.0,0.0,0.0,0.0,0.0,0.0,0.0,0.0,0.0,0.0,0.0,0.0,0.0,0.0,0.0,0.0,0.0,0.0,0.0,0.0,0.0,0.0,0.0,0.0,0.0,0.0,4.6245,5.1291,6.2005,6.7148,6.6372,6.7095,6.5482,6.1166,6.11,5.6046,0.0,0.0,0.0,0.0,0.0,0.0,0.0,0.0,0.0,0.0,0.0,0.0,0.0,0.0,0.0,0.0,0.0,0.0,0.0,0.0,0.0,0.0,0.0,0.0,0.0,0.0,0.0,0.0,3.2234,3.2502,3.1717,0.0,0.0,0.0,0.0,0.0,0.0,0.0,0.0,0.0,0.0,5.8803,6.272,6.2022,0.0,0.0,6.2501,6.1541,6.4652,6.1204,5.7318,5.4958,4.9197,0.0,0.0,0.0,0.0,0.0,0.0,0.0,0.0,0.0,0.0,0.0,0.0,0.0,0.0,0.0,0.0,0.0,0.0,0.0,0.0,0.0,0.0,0.0,0.0,0.0,0.0,0.0,0.0,0.0,0.0,0.0,0.0,0.0,0.0,0.0,0.0,0.0,0.0,0.0,0.0,0.0,0.0,0.0,0.0,0.0,0.0,0.0,0.0,0.0,0.0,0.0,0.0,4.425,5.0051,5.9977,6.5174,6.5151,6.5119,6.3464,6.0084,5.9749,5.3566,0.0,0.0,0.0,0.0,0.0,0.0,0.0,0.0,0.0,0.0,0.0,0.0,0.0,0.0,0.0,0.0,0.0,0.0,0.0,0.0,0.0,0.0,0.0,0.0,0.0,0.0,0.0,0.0,0.0,0.0,0.0,0.0,0.0,0.0,0.0,0.0,0.0,0.0,0.0,0.0,0.0,5.4142,5.9761,5.8491,5.8722,0.0,6.116,5.9912,6.3605,6.3082,5.9484,5.0995,0.0,0.0,0.0,0.0,0.0,0.0,0.0,0.0,0.0,0.0,0.0,0.0,0.0,0.0,0.0,0.0,0.0,0.0,0.0,0.0,0.0,0.0,0.0,0.0,0.0,0.0,0.0,0.0,0.0,0.0,0.0,0.0,0.0,0.0,0.0,0.0,0.0,0.0,0.0,0.0,0.0,0.0,0.0,0.0,0.0,0.0,0.0,0.0,0.0,0.0,0.0,0.0,0.0,0.0,4.9997,5.9939,6.5118,6.514,6.5123,6.367,6.0531,5.8449,0.0,0.0,0.0,0.0,0.0,0.0,0.0,0.0,0.0,0.0,0.0,0.0,0.0,0.0,0.0,0.0,0.0,0.0,0.0,0.0,0.0,0.0,0.0,0.0,0.0,0.0,0.0,1.8869,0.0,0.0,0.0,0.0,0.0,0.0,0.0,0.0,0.0,0.0,0.0,0.0,0.0,0.0,5.4015,5.8804,5.5854,5.4133,0.0,0.0,5.2706,5.4368,5.4342,5.2817,0.0,0.0,0.0,0.0,0.0,0.0,0.0,0.0,0.0,0.0,0.0,0.0,0.0,0.0,0.0,0.0,0.0,0.0,0.0,0.0,0.0,0.0,0.0,0.0,0.0,0.0,0.0,0.0,0.0,0.0,0.0,0.0,0.0,0.0,0.0,0.0,0.0,0.0,0.0,0.0,0.0,0.0,0.0,0.0,0.0,0.0,0.0,0.0,0.0,0.0,0.0,0.0,0.0,0.0,4.1999,4.9015,5.783,6.3003,6.4307,6.4355,6.2937,5.9994,5.725,5.1158,0.0,0.0,0.0,0.0,0.0,0.0,0.0,0.0,0.0,0.0,0.0,0.0,0.0,0.0,0.0,0.0,0.0,0.0,0.0,0.0,0.0,0.0,0.0,0.0,0.0,0.0,0.0,0.0,0.0,0.0,0.0,0.0,0.0,0.0,0.0,0.0,0.0,0.0,0.0,0.0,0.0,0.0,5.3784,5.1457,0.0,0.0,0.0,4.9362,5.152,0.0,0.0,0.0,0.0,0.0,0.0,0.0,0.0,0.0,0.0,0.0,0.0,0.0,0.0,0.0,0.0,0.0,0.0,0.0,0.0,0.0,0.0,0.0,0.0,0.0,0.0,0.0,0.0,0.0,0.0,0.0,0.0,0.0,0.0,0.0,0.0,0.0,0.0,0.0,0.0,0.0,0.0,0.0,0.0,0.0,0.0,0.0,0.0,0.0,0.0,0.0,0.0,0.0,0.0,0.0,0.0,0.0,4.7765,5.5162,6.0388,6.3136,6.3048,6.1629,5.8999,5.6002,5.0305,0.0,0.0,0.0,0.0,0.0,0.0,0.0,0.0,0.0,0.0,0.0,0.0,0.0,0.0,0.0,0.0,0.0,0.0,0.0,0.0,0.0,0.0,0.0,0.0,0.0,0.0,0.0,0.0,0.0,0.0,0.0,0.0,0.0,0.0,0.0,0.0,0.0,0.0,0.0,0.0,0.0,5.0287,4.8009,4.6964,4.7306,0.0,0.0,4.7488,5.0941,5.0637,0.0,0.0,0.0,0.0,0.0,0.0,0.0,0.0,0.0,0.0,0.0,0.0,0.0,0.0,0.0,0.0,0.0,0.0,0.0,0.0,0.0,0.0,0.0,0.0,0.0,0.0,0.0,0.0,0.0,0.0,0.0,0.0,0.0,0.0,0.0,0.0,0.0,0.0,0.0,0.0,0.0,0.0,0.0,0.0,0.0,0.0,0.0,0.0,0.0,0.0,0.0,0.0,0.0,0.0,0.0,0.0,4.8154,5.6246,6.1282,6.2859,6.1142,5.9796,5.9177,5.4529,4.9098,0.0,0.0,0.0,0.0,0.0,0.0,0.0,0.0,0.0,0.0,0.0,0.0,0.0,0.0,0.0,0.0,0.0,0.0,0.0,0.0,0.0,0.0,0.0,0.0,0.0,0.0,0.0,0.0,0.0,0.0,0.0,0.0,0.0,0.0,0.0,0.0,0.0,0.0,0.0,0.0,0.0,4.5665,4.9596,4.6554,0.0,0.0,0.0,0.0,4.2912,4.1445,0.0,0.0,0.0,0.0,0.0,0.0,0.0,0.0,0.0,0.0,0.0,0.0,0.0,0.0,0.0,0.0,0.0,0.0,0.0,0.0,0.0,0.0,0.0,0.0,0.0,0.0,0.0,0.0,0.0,0.0,0.0,0.0,0.0,0.0,0.0,0.0,0.0,0.0,0.0,0.0,0.0,0.0,0.0,0.0,0.0,0.0,0.0,0.0,0.0,0.0,0.0,0.0,0.0,0.0,0.0,0.0,4.966,5.4957,5.9294,6.2776,6.1134,5.9952,5.9212,5.4097,4.8743,0.0,0.0,0.0,0.0,0.0,0.0,0.0,0.0,0.0,0.0,0.0,0.0,0.0,0.0,0.0,0.0,0.0,0.0,0.0,0.0,0.0,0.0,0.0,0.0,0.0,0.0,0.0,0.0,0.0,0.0,0.0,0.0,0.0,0.0,0.0,0.0,0.0,0.0,0.0,0.0,4.1012,4.3428,4.6568,0.0,0.0,0.0,0.0,0.0,0.0,3.8348,3.5525,0.0,0.0,0.0,0.0,0.0,0.0,0.0,0.0,0.0,0.0,0.0,0.0,0.0,0.0,0.0,0.0,0.0,0.0,0.0,0.0,0.0,0.0,0.0,0.0,0.0,0.0,0.0,0.0,0.0,0.0,0.0,0.0,0.0,0.0,0.0,0.0,0.0,0.0,0.0,0.0,0.0,0.0,0.0,0.0,0.0,0.0,0.0,0.0,0.0,0.0,0.0,0.0,0.0,0.0,0.0,4.9691,5.2706,5.6758,6.2077,6.1313,6.0249,5.884,5.3792,4.8325,4.2604,0.0,0.0,0.0,0.0,0.0,0.0,0.0,0.0,0.0,0.0,0.0,0.0,0.0,0.0,0.0,0.0,0.0,0.0,0.0,0.0,0.0,0.0,0.0,0.0,0.0,0.0,0.0,0.0,0.0,0.0,0.0,0.0,0.0,0.0,0.0,0.0,0.0,0.0,0.0,3.93,4.1647,0.0,0.0,0.0,0.0,0.0,0.0,0.0,0.0,3.4186,0.0,0.0,0.0,0.0,0.0,0.0,0.0,0.0,0.0,0.0,0.0,0.0,0.0,0.0,0.0,0.0,0.0,0.0,0.0,0.0,0.0,0.0,0.0,0.0,0.0,0.0,0.0,0.0,0.0,0.0,0.0,0.0,0.0,0.0,0.0,0.0,0.0,0.0,0.0,0.0,0.0,0.0,0.0,0.0,0.0,0.0,0.0,0.0,0.0,0.0,0.0,0.0,0.0,0.0,0.0,0.0,5.0176,5.6128,5.9046,5.9234,5.8663,5.7419,5.2418,4.66,4.0076,0.0,0.0,0.0,0.0,0.0,0.0,0.0,0.0,0.0,0.0,0.0,0.0,0.0,0.0,0.0,0.0,0.0,0.0,0.0,0.0,0.0,0.0,0.0,0.0,0.0,0.0,0.0,0.0,0.0,0.0,0.0,0.0,0.0,0.0,0.0,0.0,0.0,0.0,2.8525,3.3653,0.0,0.0,0.0,0.0,0.0,0.0,0.0,0.0,3.371,0.0,0.0,0.0,0.0,0.0,0.0,0.0,0.0,0.0,0.0,0.0,0.0,0.0,0.0,0.0,0.0,0.0,0.0,0.0,0.0,0.0,0.0,0.0,0.0,0.0,0.0,0.0,0.0,0.0,0.0,0.0,0.0,0.0,0.0,0.0,0.0,0.0,0.0,0.0,0.0,0.0,0.0,0.0,0.0,0.0,0.0,0.0,0.0,0.0,0.0,0.0,0.0,0.0,0.0,0.0,0.0,0.0,0.0,5.4621,5.8845,5.8942,5.8007,5.5981,4.9922,4.4045,0.0,0.0,0.0,0.0,0.0,0.0,0.0,0.0,0.0,0.0,0.0,0.0,0.0,0.0,0.0,0.0,0.0,0.0,0.0,0.0,0.0,0.0,0.0,0.0,0.0,0.0,0.0,0.0,0.0,0.0,0.0,0.0,0.0,0.0,0.0,0.0,0.0,0.0,0.0,0.0,0.0,0.0,0.0,0.0,0.0,0.0,0.0,0.0,0.0,0.0,0.0,0.0,0.0,0.0,0.0,0.0,0.0,0.0,0.0,0.0,0.0,0.0,0.0,0.0,0.0,0.0,0.0,0.0,0.0,0.0,0.0,0.0,0.0,0.0,0.0,0.0,0.0,0.0,0.0,0.0,0.0,0.0,0.0,0.0,0.0,0.0,0.0,0.0,0.0,0.0,0.0,0.0,0.0,0.0,0.0,0.0,0.0,0.0,0.0,0.0,0.0,0.0,0.0,0.0,0.0,0.0,0.0,0.0,5.2848,5.7925,5.8391,5.734,5.4777,4.7775,4.1802,0.0,0.0,0.0,0.0,0.0,0.0,0.0,0.0,0.0,0.0,0.0,0.0,0.0,0.0,0.0,0.0,0.0,0.0,0.0,0.0,0.0,0.0,0.0,0.0,0.0,0.0,0.0,0.0,0.0,0.0,0.0,0.0,0.0,0.0,0.0,0.0,0.0,0.0,0.0,0.0,0.0,0.0,0.0,0.0,0.0,0.0,0.0,0.0,3.4327,0.0,0.0,0.0,0.0,0.0,0.0,0.0,0.0,0.0,0.0,0.0,0.0,0.0,0.0,0.0,0.0,0.0,0.0,0.0,0.0,0.0,0.0,0.0,0.0,0.0,0.0,0.0,0.0,0.0,0.0,0.0,0.0,0.0,0.0,0.0,0.0,0.0,0.0,0.0,0.0,0.0,0.0,0.0,0.0,0.0,0.0,0.0,0.0,0.0,0.0,0.0,0.0,0.0,0.0,0.0,0.0,0.0,0.0,0.0,5.1383,5.3526,5.615,5.6174,5.328,4.6997,4.0764,0.0,0.0,0.0,0.0,0.0,0.0,0.0,0.0,0.0,0.0,0.0,0.0,0.0,0.0,0.0,0.0,0.0,0.0,0.0,0.0,0.0,0.0,0.0,0.0,0.0,0.0,0.0,0.0,0.0,0.0,0.0,0.0,0.0,0.0,0.0,0.0,0.0,0.0,0.0,0.0,0.0,0.0,0.0,0.0,0.0,0.0,0.0,0.0,0.0,0.0,0.0,0.0,0.0,0.0,0.0,0.0,0.0,0.0,0.0,0.0,0.0,0.0,0.0,0.0,0.0,0.0,0.0,0.0,0.0,0.0,0.0,0.0,0.0,0.0,0.0,0.0,0.0,0.0,0.0,0.0,0.0,0.0,0.0,0.0,0.0,0.0,0.0,0.0,0.0,0.0,0.0,0.0,0.0,0.0,0.0,0.0,0.0,0.0,0.0,0.0,0.0,0.0,0.0,0.0,0.0,0.0,0.0,0.0,4.6845,5.08,5.5073,5.4839,4.9697,4.2811,3.6982,0.0,0.0,0.0,0.0,0.0,0.0,0.0,0.0,0.0,0.0,0.0,0.0,0.0,0.0,0.0,0.0,0.0,0.0,0.0,0.0,0.0,0.0,0.0,0.0,0.0,0.0,0.0,0.0,0.0,0.0,0.0,0.0,0.0,0.0,0.0,0.0,0.0,0.0,0.0,0.0,0.0,0.0,0.0,0.0,0.0,0.0,0.0,0.0,0.0,0.0,0.0,0.0,0.0,0.0,0.0,0.0,0.0,0.0,0.0,0.0,0.0,0.0,0.0,0.0,0.0,0.0,0.0,0.0,0.0,0.0,0.0,0.0,0.0,0.0,0.0,0.0,0.0,0.0,0.0,0.0,0.0,0.0,0.0,0.0,0.0,0.0,0.0,0.0,0.0,0.0,0.0,0.0,0.0,0.0,0.0,0.0,0.0,0.0,0.0,0.0,0.0,0.0,0.0,0.0,0.0,0.0,0.0,0.0,0.0,4.7227,5.2514,5.202,4.5282,3.8814,3.3482,0.0,0.0,0.0,0.0,0.0,0.0,0.0,0.0,0.0,0.0,0.0,0.0,0.0,0.0,0.0,0.0,0.0,0.0,0.0,0.0,0.0,0.0,0.0,0.0,0.0,0.0,0.0,0.0,0.0,0.0,0.0,0.0,0.0,0.0,0.0,0.0,0.0,0.0,0.0,0.0,0.0,0.0,0.0,0.0,0.0,0.0,0.0,0.0,0.0,0.0,0.0,0.0,0.0,0.0,0.0,0.0,0.0,0.0,0.0,0.0,0.0,0.0,0.0,0.0,0.0,0.0,0.0,0.0,0.0,0.0,0.0,0.0,0.0,0.0,0.0,0.0,0.0,0.0,0.0,0.0,0.0,0.0,0.0,0.0,0.0,0.0,0.0,0.0,0.0,0.0,0.0,0.0,0.0,0.0,0.0,0.0,0.0,0.0,0.0,0.0,0.0,0.0,0.0,0.0,0.0,0.0,0.0,0.0,0.0,4.168,4.7098,4.6769,4.0317,3.606,3.1061,0.0,0.0,0.0,0.0,0.0,0.0,0.0,0.0,0.0,0.0,0.0,0.0,0.0,0.0,0.0,0.0,0.0,0.0,0.0,0.0,0.0,0.0,0.0,0.0,0.0,0.0,0.0,0.0,0.0,0.0,0.0,0.0,0.0,0.0,0.0,0.0,0.0,0.0,0.0,0.0,0.0,0.0,0.0,0.0,0.0,0.0,0.0,0.0,0.0,0.0,0.0,0.0,0.0,0.0,0.0,0.0,0.0,0.0,0.0,0.0,0.0,0.0,0.0,0.0,0.0,0.0,0.0,0.0,0.0,0.0,0.0,0.0,0.0,0.0,0.0,0.0,0.0,0.0,0.0,0.0,0.0,0.0,0.0,0.0,0.0,0.0,0.0,0.0,0.0,0.0,0.0,0.0,0.0,0.0,0.0,0.0,0.0,0.0,0.0,0.0,0.0,0.0,0.0,0.0,0.0,0.0,0.0,0.0,0.0,3.1961,3.601,3.8443,3.8656,3.202,2.8132,2.7425,0.0,0.0,0.0,0.0,0.0,0.0,0.0,0.0,0.0,0.0,0.0,0.0,0.0,0.0,0.0,0.0,0.0,0.0,0.0,0.0,0.0,0.0,0.0,0.0,0.0,0.0,0.0,0.0,0.0,0.0,0.0,0.0,0.0,0.0,0.0,0.0,0.0,0.0,0.0,0.0,0.0,0.0,0.0,0.0,0.0,0.0,0.0,0.0,0.0,0.0,0.0,0.0,0.0,0.0,0.0,0.0,0.0,0.0,0.0,0.0,0.0,0.0,0.0,0.0,0.0,0.0,0.0,0.0,0.0,0.0,0.0,0.0,0.0,0.0,0.0,0.0,0.0,0.0,0.0,0.0,0.0,0.0,0.0,0.0,0.0,0.0,0.0,0.0,0.0,0.0,0.0,0.0,0.0,0.0,0.0,0.0,0.0,0.0,0.0,0.0,0.0,0.0,0.0,0.0,0.0,0.0,0.0,0.0,2.7576,3.1685,3.4465,3.5418,2.992,2.6365,0.0,0.0,0.0,0.0,0.0,0.0,0.0,0.0,0.0,0.0,0.0,0.0,0.0,0.0,0.0,0.0,0.0,0.0,0.0,0.0,0.0,0.0,0.0,0.0,0.0,0.0,0.0,0.0,0.0,0.0,0.0,0.0,0.0,0.0,0.0,0.0,0.0,0.0,0.0,0.0,0.0,0.0,0.0,0.0,0.0,0.0,0.0,0.0,0.0,0.0,0.0,0.0,0.0,0.0,0.0,0.0,0.0,0.0,0.0,0.0,0.0,0.0,0.0,0.0,0.0,0.0,0.0,0.0,0.0,0.0,0.0,0.0,0.0,0.0,0.0,0.0,0.0,0.0,0.0,0.0,0.0,0.0,0.0,0.0,0.0,0.0,0.0,0.0,0.0,0.0,0.0,0.0,0.0,0.0,0.0,0.0,0.0,0.0,0.0,0.0,0.0,0.0,0.0,0.0,0.0,0.0,0.0,0.0,2.295,3.0614,3.5587,3.5579,3.0706,3.0225,2.5887,0.0,0.0,0.0,0.0,0.0,0.0,0.0,0.0,0.0,0.0,0.0,0.0,0.0,0.0,0.0,0.0,0.0,0.0,0.0,0.0,0.0,0.0,0.0,0.0,0.0,0.0,0.0,0.0,0.0,0.0,0.0,0.0,0.0,0.0,0.0,0.0,0.0,0.0,0.0,0.0,0.0,0.0,0.0,0.0,0.0,0.0,0.0,0.0,0.0,0.0,0.0,0.0,0.0,0.0,0.0,0.0,0.0,0.0,0.0,0.0,0.0,0.0,0.0,0.0,0.0,0.0,0.0,0.0,0.0,0.0,0.0,0.0,0.0,0.0,0.0,0.0,0.0,0.0,0.0,0.0,0.0,0.0,0.0,0.0,0.0,0.0,0.0,0.0,0.0,0.0,0.0,0.0,0.0,0.0,0.0,0.0,0.0,0.0,0.0,0.0,0.0,0.0,0.0,0.0,0.0,0.0,0.0,0.0,0.0,2.28,2.6914,3.1029,3.4457,2.9141,2.57,0.0,0.0,0.0,0.0,0.0,0.0,0.0,0.0,0.0,0.0,0.0,0.0,0.0,0.0,0.0,0.0,0.0,0.0,0.0,0.0,0.0,0.0,0.0,0.0,0.0,0.0,0.0,0.0,0.0,0.0,0.0,0.0,0.0,0.0,0.0,0.0,0.0,0.0,0.0,0.0,0.0,0.0,0.0,0.0,0.0,0.0,0.0,0.0,0.0,0.0,0.0,0.0,0.0,0.0,0.0,0.0,0.0,0.0,0.0,0.0,0.0,0.0,0.0,0.0,0.0,0.0,0.0,0.0,0.0,0.0,0.0,0.0,0.0,0.0,0.0,0.0,0.0,0.0,0.0,0.0,0.0,0.0,0.0,0.0,0.0,0.0,0.0,0.0,0.0,0.0,0.0,0.0,0.0,0.0,0.0,0.0,0.0,0.0,0.0,0.0,0.0,0.0,0.0,0.0,0.0,0.0,0.0,0.0,0.0,2.3727,2.4236,2.7793,3.4171,2.924,2.6676,0.0,0.0,0.0,0.0,0.0,0.0,0.0,0.0,0.0,0.0,0.0,0.0,0.0,0.0,0.0,0.0,0.0,0.0,0.0,0.0,0.0,0.0,0.0,0.0,0.0,0.0,0.0,0.0,0.0,0.0,0.0,0.0,0.0,0.0,0.0,0.0,0.0,0.0,0.0,0.0,0.0,0.0,0.0,0.0,0.0,0.0,0.0,0.0,0.0,0.0,0.0,0.0,0.0,0.0,0.0,0.0,0.0,0.0,0.0,0.0,0.0,0.0,0.0,0.0,0.0,0.0,0.0,0.0,0.0,0.0,0.0,0.0,0.0,0.0,0.0,0.0,0.0,0.0,0.0,0.0,0.0,0.0,0.0,0.0,0.0,0.0,0.0,0.0,0.0,0.0,0.0,0.0,0.0,0.0,0.0,0.0,0.0,0.0,0.0,0.0,0.0,0.0,0.0,0.0,0.0,0.0,0.0,0.0,0.0,3.1611,2.722,2.6394,3.0042,3.0075,2.8419,0.0,0.0,0.0,0.0,0.0,0.0,0.0,0.0,0.0,0.0,0.0,0.0,0.0,0.0,0.0,0.0,0.0,0.0,0.0,0.0,0.0,0.0,0.0,0.0,0.0,0.0,0.0,0.0,0.0,0.0,0.0,0.0,0.0,0.0,0.0,0.0,0.0,0.0,0.0,0.0,0.0,0.0,0.0,0.0,0.0,0.0,0.0,0.0,0.0,0.0,0.0,0.0,0.0,0.0,0.0,0.0,0.0,0.0,0.0,0.0,0.0,0.0,0.0,0.0,0.0,0.0,0.0,0.0,0.0,0.0,0.0,0.0,0.0,0.0,0.0,0.0,0.0,0.0,0.0,0.0,0.0,0.0,0.0,0.0,0.0,0.0,0.0,0.0,0.0,0.0,0.0,0.0,0.0,0.0,0.0,0.0,0.0,0.0,0.0,0.0,0.0,0.0,0.0,0.0,0.0,0.0,0.0,0.0,0.0,0.0,2.5924,2.6499,2.7427,2.6959,2.6554,2.6219,0.0,0.0,0.0,0.0,0.0,0.0,0.0,0.0,0.0,0.0,0.0,0.0,0.0,0.0,0.0,0.0,0.0,0.0,0.0,0.0,0.0,0.0,0.0,0.0,0.0,0.0,0.0,0.0,0.0,0.0,0.0,0.0,0.0,0.0,0.0,0.0,0.0,0.0,0.0,0.0,0.0,0.0,0.0,0.0,0.0,0.0,0.0,0.0,0.0,0.0,0.0,0.0,0.0,0.0,0.0,0.0,0.0,0.0,0.0,0.0,0.0,0.0,0.0,0.0,0.0,0.0,0.0,0.0,0.0,0.0,0.0,0.0,0.0,0.0,0.0,0.0,0.0,0.0,0.0,0.0,0.0,0.0,0.0,0.0,0.0,0.0,0.0,0.0,0.0,0.0,0.0,0.0,0.0,0.0,0.0,0.0,0.0,0.0,0.0,0.0,0.0,0.0,0.0,0.0,0.0,0.0,0.0,0.0,0.0,0.0,2.5824,2.7653,2.6914,2.6829,0.0,0.0,0.0,0.0,0.0,0.0,0.0,0.0,0.0,0.0,0.0,0.0,0.0,0.0,0.0,0.0,0.0,0.0,0.0,0.0,0.0,0.0,0.0,0.0,0.0,0.0,0.0,0.0,0.0,0.0,0.0,0.0,0.0,0.0,0.0,0.0,0.0,0.0,0.0,0.0,0.0,0.0,0.0,0.0,0.0,0.0,0.0,0.0,0.0,0.0,0.0,0.0,0.0,0.0,0.0,0.0,0.0,0.0,0.0,0.0,0.0,0.0,0.0,0.0,0.0,0.0,0.0,0.0,0.0,0.0,0.0,0.0,0.0,0.0,0.0,0.0,0.0,0.0,0.0,0.0,0.0,0.0,0.0,0.0,0.0,0.0,0.0,0.0,0.0,0.0,0.0,0.0,0.0,0.0,0.0,0.0,0.0,0.0,0.0,0.0,0.0,0.0,0.0,0.0,0.0,0.0,0.0,0.0,0.0,0.0,0.0,2.4909,2.8925,2.8627,0.0,2.8118,0.0,0.0,0.0,0.0,0.0,0.0,0.0,0.0,0.0,0.0,0.0,0.0,0.0,0.0,0.0,0.0,0.0,0.0,0.0,0.0,0.0,0.0,0.0,0.0,0.0,0.0,0.0,0.0,0.0,0.0,0.0,0.0,0.0,0.0,0.0,0.0,0.0,0.0,0.0,0.0,0.0,0.0,0.0,0.0,0.0,0.0,0.0,0.0,0.0,0.0,0.0,0.0,0.0,0.0,0.0,0.0,0.0,0.0,0.0,0.0,0.0,0.0,0.0,0.0,0.0,0.0,0.0,0.0,0.0,0.0,0.0,0.0,0.0,0.0,0.0,0.0,0.0,0.0,0.0,0.0,0.0,0.0,0.0,0.0,0.0,0.0,0.0,0.0,0.0,0.0,0.0,0.0,0.0,0.0,0.0,0.0,0.0,0.0,0.0,0.0,0.0,0.0,0.0,0.0,0.0,0.0,0.0,0.0,0.0,0.0,0.0,0.0,2.8683,2.8015,2.3084,0.0,0.0,0.0,0.0,0.0,0.0,0.0,0.0,0.0,0.0,0.0,0.0,0.0,0.0,0.0,0.0,0.0,0.0,0.0,0.0,0.0,0.0,0.0,0.0,0.0,0.0,0.0,0.0,0.0,0.0,0.0,0.0,0.0,0.0,0.0,0.0,0.0,0.0,0.0,0.0,0.0,0.0,0.0,0.0,0.0,0.0,0.0,0.0,0.0,0.0,0.0,0.0,0.0,0.0,0.0,0.0,0.0,0.0,0.0,0.0,0.0,0.0,0.0,0.0,0.0,0.0,0.0,0.0,0.0,0.0,0.0,0.0,0.0,0.0,0.0,0.0,0.0,0.0,0.0,0.0,0.0,0.0,0.0,0.0,0.0,0.0,0.0,0.0,0.0,0.0,0.0,0.0,0.0,0.0,0.0,0.0,0.0,0.0,0.0,0.0,0.0,0.0,0.0,0.0,0.0,0.0,0.0,0.0,0.0,0.0,2.7418,2.4921,2.7551,2.6673,2.1693,0.0,0.0,0.0,0.0,0.0,0.0,0.0,0.0,0.0,0.0,0.0,0.0,0.0,0.0,0.0,0.0,0.0,0.0,0.0,0.0,0.0,0.0,0.0,0.0,0.0,0.0,0.0,0.0,0.0,0.0,0.0,0.0,0.0,0.0,0.0,0.0,0.0,0.0,0.0,0.0,0.0,0.0,0.0,0.0,0.0,0.0,0.0,0.0,0.0,0.0,0.0,0.0,0.0,0.0,0.0,0.0,0.0,0.0,0.0,0.0,0.0,0.0,0.0,0.0,0.0,0.0,0.0,0.0,0.0,0.0,0.0,0.0,0.0,0.0,0.0,0.0,0.0,0.0,0.0,0.0,0.0,0.0,0.0,0.0,0.0,0.0,0.0,0.0,0.0,0.0,0.0,0.0,0.0,0.0,0.0,0.0,0.0,0.0,0.0,0.0,0.0,0.0,0.0,0.0,0.0,0.0,0.0,0.0,0.0,0.0,2.8494,0.0,0.0,0.0,2.2446,0.0,0.0,0.0,0.0,0.0,0.0,0.0,0.0,0.0,0.0,0.0,0.0,0.0,0.0,0.0,0.0,0.0,0.0,0.0,0.0,0.0,0.0,0.0,0.0,0.0,0.0,0.0,0.0,0.0,0.0,0.0,0.0,0.0,0.0,0.0,0.0,0.0,0.0,0.0,0.0,0.0,0.0,0.0,0.0,0.0,0.0,0.0,0.0,0.0,0.0,0.0,0.0,0.0,0.0,0.0,0.0,0.0,0.0,0.0,0.0,0.0,0.0,0.0,0.0,0.0,0.0,0.0,0.0,0.0,0.0,0.0,0.0,0.0,0.0,0.0,0.0,0.0,0.0,0.0,0.0,0.0,0.0,0.0,0.0,0.0,0.0,0.0,0.0,0.0,0.0,0.0,0.0,0.0,0.0,0.0,0.0,0.0,0.0,0.0,0.0,0.0,0.0,0.0,0.0,0.0,0.0,0.0,0.0,0.0,0.0,0.0,0.0,0.0,0.0,0.0,0.0,0.0,0.0,0.0,0.0,0.0,0.0,0.0,0.0,0.0,0.0,0.0,0.0,0.0,0.0,0.0,0.0,0.0,0.0,0.0,0.0,0.0,0.0,0.0,0.0,0.0,0.0,0.0,0.0,0.0,0.0,0.0,0.0,0.0,0.0,0.0,0.0,0.0,0.0,0.0,0.0,0.0,0.0,0.0,0.0,0.0,0.0,0.0,0.0,0.0,0.0,0.0,0.0,0.0,0.0,0.0,0.0,0.0,0.0,0.0,0.0,0.0,0.0,0.0,0.0,0.0,0.0,0.0,0.0,0.0,0.0,0.0,0.0,0.0,0.0,0.0,0.0,0.0,0.0,0.0,0.0,0.0,0.0,0.0,0.0,0.0,0.0,0.0,0.0,0.0,0.0,0.0,0.0,0.0,0.0,0.0,0.0,0.0,0.0,0.0,0.0,0.0,0.0,0.0,0.0,0.0,0.0,0.0,0.0,0.0,0.0,0.0,0.0,0.0,0.0,0.0,0.0,0.0,0.0,0.0,0.0,0.0,0.0,0.0,0.0,0.0,0.0,0.0,0.0,0.0,0.0,0.0,0.0,0.0,0.0,0.0,0.0,0.0,0.0,0.0,0.0,0.0,0.0,0.0,0.0,0.0,0.0,0.0,0.0,0.0,0.0,0.0,0.0,0.0,0.0,0.0,0.0,0.0,0.0,0.0,0.0,0.0,0.0,0.0,0.0,0.0,0.0,0.0,0.0,0.0,0.0,0.0,0.0,0.0,0.0,0.0,0.0,0.0,0.0,0.0,0.0,0.0,0.0,0.0,0.0,0.0,0.0,0.0,0.0,0.0,0.0,0.0,0.0,0.0,0.0,0.0,0.0,0.0,0.0,0.0,0.0,0.0,0.0,0.0,0.0,0.0,0.0,0.0,0.0,0.0,0.0,0.0,0.0,0.0,0.0,0.0,0.0,0.0,0.0,0.0,0.0,0.0,0.0,0.0,0.0,0.0,0.0,0.0,0.0,0.0,0.0,0.0,0.0,0.0,0.0,0.0,0.0,0.0,0.0,0.0,0.0,0.0,0.0,0.0,0.0,0.0,0.0,0.0,0.0,0.0,0.0,0.0,0.0,0.0,0.0,0.0,0.0,0.0,0.0,0.0,0.0,0.0,0.0,0.0,0.0,0.0,0.0,0.0,0.0,0.0,0.0,0.0,0.0,0.0,0.0,0.0,0.0,0.0,0.0,0.0,0.0,0.0,0.0,0.0,0.0,0.0,0.0,0.0,0.0,0.0,0.0,0.0,0.0,0.0,0.0,0.0,0.0,0.0,0.0,0.0,0.0,0.0,0.0,0.0,0.0,0.0,0.0,0.0,0.0,0.0,0.0,0.0,0.0,0.0,0.0,0.0,0.0,0.0,0.0,0.0,0.0,0.0,0.0,0.0,0.0,0.0,0.0,0.0,0.0,0.0,0.0,0.0,0.0,0.0,0.0,0.0,0.0,0.0,0.0,0.0,0.0,0.0,0.0,0.0,0.0,0.0,0.0,0.0,0.0,0.0,0.0,0.0,0.0,0.0,0.0,0.0,0.0,0.0,0.0,0.0,0.0,0.0,0.0,0.0,0.0,0.0,0.0,0.0,0.0,0.0,0.0,0.0,0.0,0.0,0.0,0.0,0.0,0.0,0.0,0.0,0.0,0.0,0.0,0.0,0.0,0.0,0.0,0.0,0.0,0.0,0.0,0.0,0.0,0.0,0.0,0.0,0.0,0.0,0.0,0.0,0.0,0.0,0.0,0.0,0.0,0.0,0.0,0.0,0.0,0.0,0.0,0.0,0.0,0.0,0.0,0.0,0.0,0.0,0.0,0.0,0.0,0.0,0.0,0.0,0.0,0.0,0.0,0.0,0.0,0.0,0.0,0.0,0.0,0.0,0.0,0.0,0.0,0.0,0.0,0.0,0.0,0.0,0.0,0.0,0.0,0.0,0.0,0.0,0.0,0.0,0.0,0.0,0.0,0.0,0.0,0.0,0.0,0.0,0.0,0.0,0.0,0.0,0.0,0.0,0.0,0.0,0.0,0.0,0.0,0.0,0.0,0.0,0.0,0.0,0.0,0.0,0.0,0.0,0.0,0.0,0.0,0.0,0.0,0.0,0.0,0.0,0.0,0.0,0.0,0.0,0.0,0.0,0.0,0.0,0.0,0.0,0.0,0.0,0.0,0.0,0.0,0.0,0.0,0.0,0.0,0.0,0.0,0.0,0.0,0.0,0.0,0.0,0.0,0.0,0.0,0.0,0.0,0.0,0.0,0.0,0.0,0.0,0.0,0.0,0.0,0.0,0.0,0.0,0.0,0.0,0.0,0.0,0.0,0.0,0.0,0.0,0.0,0.0,0.0,0.0,0.0,0.0,0.0,0.0,0.0,0.0,0.0,0.0,0.0,0.0,0.0,0.0,0.0,0.0,0.0,0.0,0.0,0.0,0.0,0.0,0.0,0.0,0.0,0.0,0.0,0.0,0.0,0.0,0.0,0.0,0.0,0.0,0.0,0.0,0.0,0.0,0.0,0.0,0.0,0.0,0.0,0.0,0.0,0.0,0.0,0.0,0.0,0.0,0.0,0.0,0.0,0.0,0.0,0.0,0.0,0.0,0.0,0.0,0.0,0.0,0.0,0.0,0.0,0.0,0.0,0.0,0.0,0.0,0.0,0.0,0.0,0.0,0.0,0.0,0.0,0.0,0.0,0.0,0.0,0.0,0.0,0.0,0.0,0.0,0.0,0.0,0.0,0.0,0.0,0.0,0.0,0.0,0.0,0.0,0.0,0.0,0.0,0.0,0.0,0.0,0.0,0.0,0.0,0.0,0.0,0.0,0.0,0.0,0.0,0.0,0.0,0.0,0.0,0.0,0.0,0.0,0.0,0.0,0.0,0.0,0.0,0.0,0.0,0.0,0.0,0.0,0.0,0.0,0.0,0.0,0.0,0.0,0.0,0.0,0.0,0.0,0.0,0.0,0.0,0.0,0.0,0.0,0.0,0.0,0.0,0.0,0.0,0.0,0.0,0.0,0.0,0.0,0.0,0.0,0.0,0.0,0.0,0.0,0.0,0.0,0.0,0.0,0.0,0.0,0.0,0.0,0.0,0.0,0.0,0.0,0.0,0.0,0.0,0.0,0.0,0.0,0.0,0.0,0.0,0.0,0.0,0.0,0.0,0.0,0.0,0.0,0.0,0.0,0.0,0.0,0.0,0.0,0.0,0.0,0.0,0.0,0.0,0.0,0.0,0.0,0.0,0.0,0.0,0.0,0.0,0.0,0.0,0.0,0.0,0.0,0.0,0.0,0.0,0.0,0.0,0.0,0.0,0.0,0.0,0.0,0.0,0.0,0.0,0.0,0.0,0.0,0.0,0.0,0.0,0.0,0.0,0.0,0.0,0.0,0.0,0.0,0.0,0.0,0.0,0.0,0.0,0.0,0.0,0.0,0.0,0.0,0.0,0.0,0.0,0.0,0.0,0.0,0.0,0.0,0.0,0.0,0.0,0.0,0.0,0.0,0.0,0.0,0.0,0.0,0.0,0.0,0.0,0.0,0.0,0.0,0.0,0.0,0.0,0.0,0.0,0.0,0.0,0.0,0.0,0.0,0.0,0.0,0.0,0.0,0.0,0.0,0.0,0.0,0.0,0.0,0.0,0.0,0.0,0.0,0.0,0.0,0.0,0.0,0.0,0.0,0.0,0.0,0.0,0.0,0.0,0.0,0.0,0.0,0.0,0.0,0.0,0.0,0.0,0.0,0.0,0.0,0.0,0.0,0.0,0.0,0.0,0.0,0.0,0.0,0.0,0.0,0.0,0.0,0.0,0.0,0.0,0.0,0.0]}],[{"header":{"parameterUnit":"kt","parameterCategory":2,"dx":1,"dy":1,"la1":29.587661999999998,"la2":31.0,"lo1":-88.76705300000003,"lo2":-86.6583820000003,"nx":115,"ny":88,"refTime":"2022-11-02T06:00:00:Z","depth":0,"parameterNumber":2,"parameterNumberName":"V-component_of_WINDS"},"data":[10.3997,10.3997,10.3997,10.3997,10.3997,10.3997,10.3997,10.3997,10.3997,10.3997,10.3997,10.3997,10.3997,10.3997,10.3997,10.3997,10.3997,10.3997,10.3997,10.3997,10.3997,10.3997,10.3997,10.3997,10.3997,10.3997,10.3997,10.3997,10.3997,10.3997,10.3997,10.3997,10.3997,10.3997,10.3997,10.3997,10.3997,10.3997,10.3997,10.3997,10.3997,10.3997,10.3997,10.3997,10.3997,10.3997,10.3997,10.3997,10.3997,10.3997,10.3997,10.3997,10.3997,10.3997,10.3997,10.3997,10.3997,10.3701,10.3437,10.3635,10.3138,10.3204,10.2904,10.3038,10.3734,10.3734,10.347,10.347,10.3899,10.3899,10.3866,10.3866,10.3899,10.3899,10.3931,10.3931,10.3964,10.3997,10.3997,10.3997,10.3964,10.3931,10.3931,10.3931,10.3899,10.2905,10.2839,10.2165,10.1927,10.2265,10.2398,10.2229,10.2093,10.0429,9.8701,9.8774,9.8516,9.8262,9.8076,9.7858,9.767,9.7475,9.7331,9.7368,9.8416,9.9654,10.0574,10.1096,10.1992,10.287,10.3271,10.38,10.3997,10.3997,10.3997,10.3997,10.3997,10.3997,10.3997,10.3997,10.3997,10.3997,10.3997,10.3997,10.3997,10.3997,10.3997,10.3997,10.3997,10.3997,10.3997,10.3997,10.3997,10.3997,10.3997,10.3997,10.3997,10.3997,10.3997,10.3997,10.3997,10.3997,10.3997,10.3997,10.3997,10.3997,10.3997,10.3997,10.3997,10.3997,10.3997,10.3997,10.3997,10.3997,10.3997,10.3997,10.3997,10.3997,10.3997,10.3997,10.3997,10.3997,10.3997,10.3997,10.3997,10.3997,10.3997,10.3997,10.3668,10.3701,10.3404,10.3304,10.2366,10.196,10.2468,10.2197,10.1822,10.1412,10.1822,10.3005,10.3072,10.2637,10.2804,10.347,10.3668,10.3668,10.3668,10.3767,10.38,10.3833,10.3833,10.3931,10.3997,10.3997,10.3997,10.3931,10.3866,10.3833,10.3833,10.3039,10.1555,10.0658,9.9882,9.9523,10.0259,9.9825,9.9287,9.8921,9.8738,9.8032,9.7544,9.7126,9.6782,9.6126,9.6096,9.5823,9.4929,9.456,9.5028,9.5979,9.7027,9.8001,9.9323,10.0223,10.1169,10.1822,10.2535,10.3038,10.3997,10.3997,10.3997,10.3997,10.3997,10.3997,10.3997,10.3997,10.3997,10.3997,10.3997,10.3997,10.3997,10.3997,10.3997,10.3997,10.3997,10.3997,10.3997,10.3997,10.3997,10.3997,10.3997,10.3997,10.3997,10.3997,10.3997,10.3997,10.3997,10.3997,10.3997,10.3997,10.3997,10.3997,10.3997,10.3997,10.3997,10.3997,10.3997,10.3997,10.3997,10.3997,10.3997,10.3997,10.3997,10.3997,10.3997,10.3997,10.3997,10.3997,10.3997,10.3997,10.3997,10.3997,10.3833,10.3005,10.2468,10.2095,10.134,10.0287,9.9794,9.9794,9.9933,9.9577,9.9292,10.0188,10.141,9.9721,9.9292,10.0574,10.1236,10.1407,10.1375,10.1511,10.1581,10.2127,10.2265,10.277,10.3171,10.3204,10.327,10.3071,10.2568,10.2434,10.2129,10.1994,10.0684,9.9202,9.9156,9.8496,9.8385,9.8774,9.6905,9.5728,9.4929,9.46,9.5286,9.5413,9.5374,9.4849,9.4147,9.4147,9.3986,9.2668,9.2143,9.3323,9.4329,9.4988,9.6173,9.7739,9.8748,9.9618,10.0436,10.1343,10.2804,10.3997,10.3997,10.3997,10.3997,10.3997,10.3997,10.3997,10.3997,10.3997,10.3997,10.3997,10.3997,10.3997,10.3997,10.3997,10.3997,10.3997,10.3997,10.3997,10.3997,10.3997,10.3997,10.3997,10.3997,10.3997,10.3997,10.3997,10.3997,10.3997,10.3997,10.3997,10.3997,10.3997,10.3997,10.3997,10.3997,10.3997,10.3997,10.3997,10.3997,10.3997,10.3997,10.3997,10.3997,10.3997,10.3997,10.3997,10.3997,10.3997,10.3997,10.3997,10.3964,10.3997,10.3931,10.3866,10.1994,10.0856,10.008,9.9073,9.8188,9.7814,9.8039,9.7964,9.7664,9.7475,9.8527,9.8342,9.6212,9.5823,9.7324,9.8188,9.8262,9.8336,9.8485,9.8738,9.9509,10.0223,10.1169,10.2095,10.2195,10.2229,10.165,10.0888,10.0365,9.991,9.9083,9.7802,9.7238,9.7117,9.6644,9.6307,9.5971,9.4188,9.369,9.2448,9.2184,9.2364,9.2834,9.327,9.297,9.297,9.2614,9.2143,9.1962,9.2046,9.2544,9.2817,9.3375,9.441,9.5854,9.7065,9.8194,9.9078,10.0259,10.1719,10.3271,10.3602,10.3997,10.3997,10.3997,10.3997,10.3997,10.3997,10.3997,10.3997,10.3997,10.3997,10.3997,10.3997,10.3997,10.3997,10.3997,10.3997,10.3997,10.3997,10.3997,10.3997,10.3997,10.3997,10.3997,10.3997,10.3997,10.3997,10.3997,10.3997,10.3997,10.3997,10.3997,10.3997,10.3997,10.3997,10.3997,10.3997,10.3997,10.3997,10.3997,10.3997,10.3997,10.3997,10.3997,10.3997,10.3997,10.3997,10.3997,10.3997,10.3997,10.3964,10.3899,10.3701,10.3004,10.1583,9.9757,9.8596,9.7475,9.6444,9.5815,9.6243,9.6135,9.5628,9.5146,9.6135,9.6483,9.5216,9.5018,9.6126,9.6281,9.632,9.6281,9.6359,9.6905,9.7739,9.8268,9.8927,9.9685,10.0041,10.0041,9.9753,9.9031,9.8342,9.7827,9.6621,9.5385,9.4805,9.4309,9.34,9.3064,9.3076,9.249,9.2406,9.2046,9.2046,9.1962,9.1962,9.1962,9.1962,9.2101,9.1962,9.1962,9.1962,9.1962,9.2143,9.2364,9.2502,9.2639,9.3147,9.4279,9.6096,9.8007,9.9182,10.0574,10.2095,10.2501,10.3997,10.3997,10.3997,10.3997,10.3997,10.3997,10.3997,10.3997,10.3997,10.3997,10.3997,10.3997,10.3997,10.3997,10.3997,10.3997,10.3997,10.3997,10.3997,10.3997,10.3997,10.3997,10.3997,10.3997,10.3997,10.3997,10.3997,10.3997,10.3997,10.3997,10.3997,10.3997,10.3997,10.3997,10.3866,10.3701,10.3833,10.3833,10.3899,10.3997,10.3997,10.3997,10.3997,10.3997,10.3997,10.3997,10.3997,10.3997,10.3204,10.2265,10.2163,10.1684,10.0184,9.9721,9.8262,9.6521,9.5423,9.4158,9.3701,9.4238,9.3823,9.3323,9.3147,9.3742,9.3823,9.4147,9.4319,9.456,9.452,9.452,9.444,9.448,9.5256,9.5971,9.632,9.6667,9.7134,9.7664,9.7664,9.7581,9.7088,9.6328,9.545,9.419,9.3245,9.3149,9.2617,9.1963,9.1935,9.1962,9.1962,9.1962,9.1962,9.1962,9.1962,9.1962,9.1962,9.1962,9.1962,9.1962,9.1962,9.1962,9.1962,9.1962,9.1962,9.2059,9.2239,9.2101,9.2419,9.477,9.6943,9.7399,9.8231,10.0045,10.0783,10.3997,10.3997,10.3997,10.3997,10.3997,10.3997,10.3997,10.3997,10.3997,10.3997,10.3997,10.3997,10.3997,10.3997,10.3997,10.3997,10.3997,10.3997,10.3997,10.3997,10.3997,10.3997,10.3997,10.3997,10.3997,10.3997,10.3997,10.3997,10.3997,10.3997,10.3997,10.3931,10.3997,10.3997,10.3569,10.277,10.2703,10.2669,10.2804,10.2804,10.287,10.3635,10.3338,10.3038,10.2804,10.2195,10.1923,10.1785,10.134,10.0259,10.0116,9.9685,9.7814,9.7286,9.6752,9.475,9.3229,9.1962,9.1962,9.2004,9.2101,9.2268,9.2101,9.1962,9.1962,9.2226,9.231,9.2627,9.2834,9.3011,9.3094,9.3094,9.3404,9.3864,9.4107,9.444,9.473,9.5128,9.5128,9.4999,9.468,9.4077,9.3915,9.2888,9.2652,9.2222,9.1975,9.1958,9.1962,9.1962,9.1962,9.1962,9.1962,9.1962,9.1962,9.1962,9.1962,9.1962,9.1962,9.1962,9.1962,9.1962,9.1962,9.1962,9.1962,9.1962,9.1962,9.2017,9.2143,9.4198,9.5462,9.5462,9.5862,9.7664,9.8774,10.3997,10.3997,10.3997,10.3997,10.3997,10.3997,10.3997,10.3997,10.3997,10.3997,10.3997,10.3997,10.3997,10.3997,10.3997,10.3997,10.3997,10.3997,10.3997,10.3997,10.3997,10.3997,10.3997,10.3997,10.3997,10.3997,10.3997,10.3997,10.3997,10.3997,10.3833,10.3734,10.3104,10.2936,10.1992,10.0853,10.0009,10.068,10.1029,10.1029,10.1236,10.2398,10.206,10.1444,10.0994,10.0326,9.9649,9.8963,9.8596,9.8151,9.8001,9.7889,9.7241,9.5979,9.5344,9.4329,9.297,9.2226,9.1962,9.1962,9.1962,9.1962,9.1962,9.1962,9.1962,9.1962,9.1962,9.1962,9.1962,9.1962,9.1962,9.2017,9.2101,9.2268,9.2448,9.2614,9.2834,9.2929,9.3,9.2876,9.2668,9.2544,9.2544,9.2448,9.2193,9.1962,9.1962,9.1962,9.1962,9.1962,9.1962,9.1962,9.1962,9.1962,9.1962,9.1962,9.1962,9.1962,9.1962,9.1962,9.1962,9.1962,9.1962,9.1962,9.1962,9.1962,9.1962,9.2004,9.2101,9.2668,9.3904,9.4077,9.4209,9.5815,9.6436,10.3997,10.3997,10.3997,10.3997,10.3997,10.3997,10.3997,10.3997,10.3997,10.3997,10.3997,10.3997,10.3997,10.3997,10.3997,10.3997,10.3997,10.3997,10.3997,10.3997,10.3997,10.3997,10.3997,10.3997,10.3701,10.3997,10.3997,10.3833,10.3569,10.3866,10.3171,10.1923,10.0677,10.0465,9.9717,9.8995,9.8151,9.8527,9.8963,9.8963,9.9219,9.9613,9.9794,9.9219,9.889,9.8596,9.8113,9.7739,9.7399,9.6328,9.5736,9.5304,9.4198,9.3352,9.3064,9.2941,9.2268,9.2101,9.1962,9.1962,9.1962,9.1962,9.1962,9.1962,9.1962,9.1962,9.1962,9.1962,9.1962,9.1962,9.1962,9.1962,9.2004,9.2004,9.2101,9.2143,9.231,9.2323,9.2394,9.231,9.2184,9.2101,9.2059,9.1962,9.1962,9.1962,9.1962,9.1962,9.1962,9.1962,9.1962,9.1962,9.1962,9.1962,9.1962,9.1962,9.1962,9.1962,9.1962,9.1962,9.1962,9.1962,9.1962,9.1962,9.1962,9.1962,9.1962,9.1962,9.2004,9.2364,9.2888,9.2941,9.2899,9.3188,9.3364,10.3997,10.3997,10.3997,10.3997,10.3997,10.3997,10.3997,10.3997,10.3997,10.3997,10.3997,10.3997,10.3997,10.3997,10.3997,10.3997,10.3997,10.3997,10.3997,10.3997,10.3997,10.3964,10.3635,10.3271,10.2804,10.277,10.206,10.165,10.2127,10.1511,10.0783,10.0184,9.8958,9.7324,9.6281,9.5932,9.6444,9.6828,9.6905,9.6943,9.6989,9.7626,9.7776,9.695,9.6943,9.6444,9.561,9.5413,9.4929,9.4077,9.3904,9.3445,9.2614,9.2268,9.2059,9.2017,9.2004,9.1962,9.1962,9.1962,9.1962,9.1962,9.1962,9.1962,9.1962,9.1962,9.1962,9.1962,9.1962,9.1962,9.1962,9.1962,9.1962,9.1962,9.1962,9.1962,9.1962,9.1962,9.1962,9.1962,9.1962,9.1962,9.1962,9.1962,9.1962,9.1962,9.1962,9.1962,9.1962,9.1962,9.1962,9.1962,9.1962,9.1962,9.1962,9.1962,9.1962,9.1962,9.1962,9.1962,9.1962,9.1962,9.1962,9.1962,9.1962,9.1962,9.1962,9.1962,9.1962,9.1962,9.2184,9.2323,9.2406,9.2197,9.1932,10.3997,10.3997,10.3997,10.3997,10.3997,10.3997,10.3997,10.3997,10.3997,10.3997,10.3997,10.3997,10.3997,10.3997,10.3997,10.3997,10.3997,10.3997,10.3734,10.3536,10.3304,10.3503,10.2838,10.1788,10.0853,10.033,9.9757,9.9036,9.8522,9.9031,9.8485,9.7851,9.6981,9.561,9.2364,9.2059,9.3023,9.453,9.478,9.4819,9.5107,9.6212,9.5893,9.5186,9.4819,9.4238,9.3486,9.3176,9.3094,9.2585,9.2531,9.2352,9.2004,9.1962,9.1962,9.1962,9.1962,9.1962,9.1962,9.1962,9.1962,9.1962,9.1962,9.1962,9.1962,9.1962,9.1962,9.1962,9.1962,9.1962,9.1962,9.1962,9.1962,9.1962,9.1962,9.1962,9.1962,9.1962,9.1962,9.1962,9.1962,9.1962,9.1962,9.1962,9.1962,9.1962,9.1962,9.1962,9.1962,9.1962,9.1962,9.1962,9.1962,9.1962,9.1962,9.1962,9.1962,9.1962,9.1962,9.1962,9.1962,9.1962,9.1962,9.1962,9.1962,9.1962,9.1962,9.1962,9.1962,9.1962,9.1962,9.1962,9.1962,9.1962,9.1962,10.3997,10.3997,10.3997,10.3997,10.3997,10.3997,10.3997,10.3997,10.3997,10.3997,10.3997,10.3997,10.3997,10.3997,10.3931,10.3899,10.38,10.3602,10.2938,10.2265,10.1617,10.0892,10.0005,9.9214,9.8817,9.8743,9.8076,9.7739,9.7513,9.7851,9.6981,9.5658,9.445,9.365,9.1962,9.2004,9.2226,9.271,9.2805,9.2805,9.2888,9.3609,9.3311,9.3229,9.3011,9.246,9.2184,9.1962,9.1962,9.1962,9.1962,9.1962,9.1962,9.1962,9.1962,9.1962,9.1962,9.1962,9.1962,9.1962,9.1962,9.1962,9.1962,9.1962,9.1962,9.1962,9.1962,9.1962,9.1962,9.1962,9.1962,9.1962,9.1962,9.1962,9.1962,9.1962,9.1962,9.1962,9.1962,9.1962,9.1962,9.1962,9.1962,9.1962,9.1962,9.1962,9.1962,9.1962,9.1962,9.1962,9.1962,9.1962,9.1962,9.1962,9.1962,9.1962,9.1962,9.1962,9.1962,9.1962,9.1962,9.1962,9.1962,9.1962,9.1962,9.1962,9.1962,9.1962,9.1962,9.1962,9.1962,9.1962,9.1962,9.1962,9.1962,10.3997,10.3997,10.3997,10.3997,10.3997,10.3997,10.3997,10.3997,10.3997,10.3997,10.3997,10.3997,10.3997,10.3701,10.3437,10.2804,10.2703,10.2161,10.0924,10.0045,9.9726,9.9073,9.8119,9.7475,9.6752,9.6598,9.5884,9.5649,9.5776,9.5216,9.457,9.3986,9.2846,9.2088,9.1962,9.1962,9.2004,9.2046,9.2046,9.2004,9.1962,9.1962,9.1962,9.1962,9.1962,9.1962,9.1962,9.1962,9.1962,9.1962,9.1962,9.1962,9.1962,9.1962,9.1962,9.1962,9.1962,9.1962,9.1962,9.1962,9.1962,9.1962,9.1962,9.1962,9.1962,9.1962,9.1962,9.1962,9.1962,9.1962,9.1962,9.1962,9.1962,9.1962,9.1962,9.1962,9.1962,9.1962,9.1962,9.1962,9.1962,9.1962,9.1962,9.1962,9.1962,9.1962,9.1962,9.1962,9.1962,9.1962,9.1962,9.1962,9.1962,9.1962,9.1962,9.1962,9.1962,9.1962,9.1962,9.1962,9.1962,9.1962,9.1962,9.1962,9.1962,9.1962,9.1962,9.1962,9.1962,9.1962,9.1962,9.1962,9.1962,9.1962,9.1962,10.3997,10.3997,10.3997,10.3997,10.3997,10.3997,10.3997,10.3997,10.3997,10.3997,10.3997,10.3964,10.3866,10.3204,10.1719,10.0716,10.0613,9.8817,9.8225,9.7964,9.7701,9.7399,9.6475,9.5383,9.462,9.441,9.362,9.2751,9.2268,9.3011,9.249,9.1962,9.2088,9.2004,9.1962,9.1962,9.1962,9.1962,9.1962,9.1962,9.1962,9.1962,9.1962,9.1962,9.1962,9.1962,9.1962,9.1962,9.1962,9.1962,9.1962,9.1962,9.1962,9.1962,9.1962,9.1962,9.1962,9.1962,9.1962,9.1962,9.1962,9.1962,9.1962,9.1962,9.1962,9.1962,9.1962,9.1962,9.1962,9.1962,9.1962,9.1962,9.1962,9.1962,9.1962,9.1962,9.1962,9.1962,9.1962,9.1962,9.1962,9.1962,9.1962,9.1962,9.1962,9.1962,9.1962,9.1962,9.1962,9.1962,9.1962,9.1962,9.1962,9.1962,9.1962,9.1962,9.1962,9.1962,9.1962,9.1962,9.1962,9.1962,9.1962,9.1962,9.1962,9.1962,9.1962,9.1962,9.1962,9.1962,9.1962,9.1962,9.1962,9.1962,9.1962,10.3997,10.3997,10.3997,10.3997,10.3997,10.3997,10.3997,10.3997,10.3997,10.3997,10.3997,10.3866,10.3038,10.1514,9.9794,9.8669,9.8664,9.8219,9.7096,9.6087,9.5501,9.4859,9.4066,9.3393,9.2805,9.2627,9.2143,9.1975,9.1962,9.1962,9.1962,9.1962,9.1962,9.1962,9.1962,9.1962,9.1962,9.1962,9.1962,9.1962,9.1962,9.1962,9.1962,9.1962,9.1962,9.1962,9.1962,9.1962,9.1962,9.1962,9.1962,9.1962,9.1962,9.1962,9.1962,9.1962,9.1962,9.1962,9.1962,9.1962,9.1962,9.1962,9.1962,9.1962,9.1962,9.1962,9.1962,9.1962,9.1962,9.1962,9.1962,9.1962,9.1962,9.1962,9.1962,9.1962,9.1962,9.1962,9.1962,9.1962,9.1962,9.1962,9.1962,9.1962,9.1962,9.1962,9.1962,9.1962,9.1962,9.1962,9.1962,9.1962,9.1962,9.1962,9.1962,9.1962,9.1962,9.1962,9.1962,9.1962,9.1962,9.1962,9.1962,9.1962,9.1962,9.1962,9.1962,9.1962,9.1962,9.1962,9.1962,9.1962,9.1962,9.1962,9.1962,10.3997,10.3997,10.3997,10.3997,10.3997,10.3997,10.3997,10.3997,10.3997,10.3997,10.3833,10.3138,10.2028,10.0507,9.7814,9.6675,9.6436,9.564,9.464,9.3742,9.3568,9.3064,9.2143,9.1962,9.1962,9.2059,9.1962,9.1962,9.1962,9.1962,9.1962,9.1962,9.1962,9.1962,9.1962,9.1962,9.1962,9.1962,9.1962,9.1962,9.1962,9.1962,9.1962,9.1962,9.1962,9.1962,9.1962,9.1962,9.1962,9.1962,9.1962,9.1962,9.1962,9.1962,9.1962,9.1962,9.1962,9.1962,9.1962,9.1962,9.1962,9.1962,9.1962,9.1962,9.1962,9.1962,9.1962,9.1962,9.1962,9.1962,9.1962,9.1962,9.1962,9.1962,9.1962,9.1962,9.1962,9.1962,9.1962,9.1962,9.1962,9.1962,9.1962,9.1962,9.1962,9.1962,9.1962,9.1962,9.1962,9.1962,9.1962,9.1962,9.1962,9.1962,9.1962,9.1962,9.1962,9.1962,9.1962,9.1962,9.1962,9.1962,9.1962,9.1962,9.1962,9.1962,9.1962,9.1962,9.1962,9.1962,9.1962,9.1962,9.1962,9.1962,9.1962,10.3997,10.3997,10.3997,10.3997,10.3997,10.3997,10.3997,10.3997,10.3997,10.3997,10.3899,10.1994,10.0856,9.9618,9.656,9.4909,9.4168,9.327,9.2531,9.2406,9.2281,9.2184,9.1962,9.1962,9.1962,9.1962,9.1962,9.1962,9.1962,9.1962,9.1962,9.1962,9.1962,9.1962,9.1962,9.1962,9.1962,9.1962,9.1962,9.1962,9.1962,9.1962,9.1962,9.1962,9.1962,9.1962,9.1962,9.1962,9.1962,9.1962,9.1962,9.1962,9.1962,9.1962,9.1962,9.1962,9.1962,9.1962,9.1962,9.1962,9.1962,9.1962,9.1962,9.1962,9.1962,9.1962,9.1962,9.1962,9.1962,9.1962,9.1962,9.1962,9.1962,9.1962,9.1962,9.1962,9.1962,9.1962,9.1962,9.1962,9.1962,9.1962,9.1962,9.1962,9.1962,9.1962,9.1962,9.1962,9.1962,9.1962,9.1962,9.1962,9.1962,9.1962,9.1962,9.1962,9.1962,9.1962,9.1962,9.1962,9.1962,9.1962,9.1962,9.1962,9.1962,9.1962,9.1962,9.1962,9.1962,9.1962,9.1962,9.1962,9.1962,9.1962,9.1962,10.3997,10.3997,10.3997,10.3997,10.3997,10.3997,10.3964,10.3997,10.3899,10.3866,10.3701,10.1721,9.9865,9.8262,9.6057,9.3966,9.2502,9.2281,9.1962,9.1962,9.1962,9.1962,9.1962,9.1962,9.1962,9.1962,9.1962,9.1962,9.1962,9.1962,9.1962,9.1962,9.1962,9.1962,9.1962,9.1962,9.1962,9.1962,9.1962,9.1962,9.1962,9.1962,9.1962,9.1962,9.1962,9.1962,9.1962,9.1962,9.1962,9.1962,9.1962,9.1962,9.1962,9.1962,9.1962,9.1962,9.1962,9.1962,9.1962,9.1962,9.1962,9.1962,9.1962,9.1962,9.1962,9.1962,9.1962,9.1962,9.1962,9.1962,9.1962,9.1962,9.1962,9.1962,9.1962,9.1962,9.1962,9.1962,9.1962,9.1962,9.1962,9.1962,9.1962,9.1962,9.1962,9.1962,9.1962,9.1962,9.1962,9.1962,9.1962,9.1962,9.1962,9.1962,9.1962,9.1962,9.1962,9.1962,9.1962,9.1962,9.1962,9.1962,9.1962,9.1962,9.1962,9.1962,9.1962,9.1962,9.1962,9.1962,9.1962,9.1962,9.1962,9.1962,9.1962,10.3997,10.3997,10.3997,10.3997,10.3997,10.3997,10.347,10.2603,10.2501,10.2501,10.1617,9.9437,9.7858,9.721,9.4939,9.3023,9.2184,9.1962,9.1962,9.1962,9.1962,9.1962,9.1962,9.1962,9.1962,9.1962,9.1962,9.1962,9.1962,9.1962,9.1962,9.1962,9.1962,9.1962,9.1962,9.1962,9.1962,9.1962,9.1962,9.1962,9.1962,9.1962,9.1962,9.1962,9.1962,9.1962,9.1962,9.1962,9.1962,9.1962,9.1962,9.1962,9.1962,9.1962,9.1962,9.1962,9.1962,9.1962,9.1962,9.1962,9.1962,9.1962,9.1962,9.1962,9.1962,9.1962,9.1962,9.1962,9.1962,9.1962,9.1962,9.1962,9.1962,9.1962,9.1962,9.1962,9.1962,9.1962,9.1962,9.1962,9.1962,9.1962,9.1962,9.1962,9.1962,9.1962,9.1962,9.1962,9.1962,9.1962,9.1962,9.1962,9.1962,9.1962,9.1962,9.1962,9.1962,9.1962,9.1962,9.1962,9.1962,9.1962,9.1962,9.1962,9.1962,9.1962,9.1962,9.1962,9.1962,9.1962,9.1962,9.1962,9.1962,9.1962,9.1962,10.3997,10.3997,10.3997,10.3997,10.3997,10.3997,10.3072,10.1548,10.1273,10.0927,10.0401,9.6767,9.6135,9.6087,9.3445,9.2059,9.2046,9.1962,9.1962,9.1962,9.1962,9.1962,9.1962,9.1962,9.1962,9.1962,9.1962,9.1962,9.1962,9.1962,9.1962,9.1962,9.1962,9.1962,9.1962,9.1962,9.1962,9.1962,9.1962,9.1962,9.1962,9.1962,9.1962,9.1962,9.1962,9.1962,9.1962,9.1962,9.1962,9.1962,9.1962,9.1962,9.1962,9.1962,9.1962,9.1962,9.1962,9.1962,9.1962,9.1962,9.1962,9.1962,9.1962,9.1962,9.1962,9.1962,9.1962,9.1962,9.1962,9.1962,9.1962,9.1962,9.1962,9.1962,9.1962,9.1962,9.1962,9.1962,9.1962,9.1962,9.1962,9.1962,9.1962,9.1962,9.1962,9.1962,9.1962,9.1962,9.1962,9.1962,9.1962,9.1962,9.1962,9.1962,9.1962,9.1962,9.1962,9.1962,9.1962,9.1962,9.1962,9.1962,9.1962,9.1962,9.1962,9.1962,9.1962,9.1962,9.1962,9.1962,9.1962,9.1962,9.1962,9.1962,9.1962,10.3997,10.3997,10.3997,10.3997,10.3997,10.3964,10.3701,10.3105,10.1687,10.0821,10.0116,9.6614,9.5067,9.4899,9.2929,9.2017,9.1962,9.1962,9.1962,9.1962,9.1962,9.1962,9.1962,9.1962,9.1962,9.1962,9.1962,9.1962,9.1962,9.1962,9.1962,9.1962,9.1962,9.1962,9.1962,9.1962,9.1962,9.1962,9.1962,9.1962,9.1962,9.1962,9.1962,9.1962,9.1962,9.1962,9.1962,9.1962,9.1962,9.1962,9.1962,9.1962,9.1962,9.1962,9.1962,9.1962,9.1962,9.1962,9.1962,9.1962,9.1962,9.1962,9.1962,9.1962,9.1962,9.1962,9.1962,9.1962,9.1962,9.1962,9.1962,9.1962,9.1962,9.1962,9.1962,9.1962,9.1962,9.1962,9.1962,9.1962,9.1962,9.1962,9.1962,9.1962,9.1962,9.1962,9.1962,9.1962,9.1962,9.1962,9.1962,9.1962,9.1962,9.1962,9.1962,9.1962,9.1962,9.1962,9.1962,9.1962,9.1962,9.1962,9.1962,9.1962,9.1962,9.1962,9.1962,9.1962,9.1962,9.1962,9.1962,9.1962,9.1962,9.1962,9.1962,10.3997,10.3997,10.3997,10.3997,10.3997,10.3997,10.3371,10.2265,10.1273,10.033,9.8853,9.6259,9.4869,9.47,9.2929,9.1962,9.1962,9.1962,9.1962,9.1962,9.1962,9.1962,9.1962,9.1962,9.1962,9.1962,9.1962,9.1962,9.1962,9.1962,9.1962,9.1962,9.1962,9.1962,9.1962,9.1962,9.1962,9.1962,9.1962,9.1962,9.1962,9.1962,9.1962,9.1962,9.1962,9.1962,9.1962,9.1962,9.1962,9.1962,9.1962,9.1962,9.1962,9.1962,9.1962,9.1962,9.1962,9.1962,9.1962,9.1962,9.1962,9.1962,9.1962,9.1962,9.1962,9.1962,9.1962,9.1962,9.1962,9.1962,9.1962,9.1962,9.1962,9.1962,9.1962,9.1962,9.1962,9.1962,9.1962,9.1962,9.1962,9.1962,9.1962,9.1962,9.1962,9.1962,9.1962,9.1962,9.1962,9.1962,9.1962,9.1962,9.1962,9.1962,9.1962,9.1962,9.1962,9.1962,9.1962,9.1962,9.1962,9.1962,9.1962,9.1962,9.1962,9.1962,9.1962,9.1962,9.1962,9.1962,9.1962,9.1962,9.1962,9.1962,9.1962,10.3997,10.3997,10.3997,10.3997,10.3997,10.3964,10.3072,10.1652,10.1137,10.0116,9.8336,9.5979,9.4909,9.474,9.2929,9.1962,9.1962,9.1962,9.1962,9.1962,9.1962,9.1962,9.1962,9.1962,9.1962,9.1962,9.1962,9.1962,9.1962,9.1962,9.1962,9.1962,9.1962,9.1962,9.1962,9.1962,9.1962,9.1962,9.1962,9.1962,9.1962,9.1962,9.1962,9.1962,9.1962,9.1962,9.1962,9.1962,9.1962,9.1962,9.1962,9.1962,9.1962,9.1962,9.1962,9.1962,9.1962,9.1962,9.1962,9.1962,9.1962,9.1962,9.1962,9.1962,9.1962,9.1962,9.1962,9.1962,9.1962,9.1962,9.1962,9.1962,9.1962,9.1962,9.1962,9.1962,9.1962,9.1962,9.1962,9.1962,9.1962,9.1962,9.1962,9.1962,9.1962,9.1962,9.1962,9.1962,9.1962,9.1962,9.1962,9.1962,9.1962,9.1962,9.1962,9.1962,9.1962,9.1962,9.1962,9.1962,9.1962,9.1962,9.1962,9.1962,9.1962,9.1962,9.1962,9.1962,9.1962,9.1962,9.1962,9.1962,9.1962,9.1962,9.1962,10.3997,10.3997,10.3997,10.3997,10.3997,10.3997,10.3767,10.3271,10.179,10.0754,9.9582,9.6452,9.4988,9.474,9.2763,9.1962,9.1962,9.1962,9.1962,9.1962,9.1962,9.1962,9.1962,9.1962,9.1962,9.1962,9.1962,9.1962,9.1962,9.1962,9.1962,9.1962,9.1962,9.1962,9.1962,9.1962,9.1962,9.1962,9.1962,9.1962,9.1962,9.1962,9.1962,9.1962,9.1962,9.1962,9.1962,9.1962,9.1962,9.1962,9.1962,9.1962,9.1962,9.1962,9.1962,9.1962,9.1962,9.1962,9.1962,9.1962,9.1962,9.1962,9.1962,9.1962,9.1962,9.1962,9.1962,9.1962,9.1962,9.1962,9.1962,9.1962,9.1962,9.1962,9.1962,9.1962,9.1962,9.1962,9.1962,9.1962,9.1962,9.1962,9.1962,9.1962,9.1962,9.1962,9.1962,9.1962,9.1962,9.1962,9.1962,9.1962,9.1962,9.1962,9.1962,9.1962,9.1962,9.1962,9.1962,9.1962,9.1962,9.1962,9.1962,9.1962,9.1962,9.1962,9.1962,9.1962,9.1962,9.1962,9.1962,9.1962,9.1962,9.1962,9.1962,10.2938,10.3997,10.3997,10.3997,10.3997,10.3997,10.3997,10.3833,10.2971,10.1514,9.9146,9.7255,9.5383,9.3199,9.2323,9.1962,9.1962,9.1962,9.1962,9.1962,9.1962,9.1962,9.1962,9.1962,9.1962,9.1962,9.1962,9.1962,9.1962,9.1962,9.1962,9.1962,9.1962,9.1962,9.1962,9.1962,9.1962,9.1962,9.1962,9.1962,9.1962,9.1962,9.1962,9.1962,9.1962,9.1962,9.1962,9.1962,9.1962,9.1962,9.1962,9.1962,9.1962,9.1962,9.1962,9.1962,9.1962,9.1962,9.1962,9.1962,9.1962,9.1962,9.1962,9.1962,9.1962,9.1962,9.1962,9.1962,9.1962,9.1962,9.1962,9.1962,9.1962,9.1962,9.1962,9.1962,9.1962,9.1962,9.1962,9.1962,9.1962,9.1962,9.1962,9.1962,9.1962,9.1962,9.1962,9.1962,9.1962,9.1962,9.1962,9.1962,9.1962,9.1962,9.1962,9.1962,9.1962,9.1962,9.1962,9.1962,9.1962,9.1962,9.1962,9.1962,9.1962,9.1962,9.1962,9.1962,9.1962,9.1962,9.1962,9.1962,9.1962,9.1962,9.1962,10.1029,10.2398,10.2432,10.2703,10.3138,10.3138,10.3437,10.3899,10.3371,10.1375,9.9031,9.7664,9.5344,9.2846,9.231,9.1962,9.1962,9.1962,9.1962,9.1962,9.1962,9.1962,9.1962,9.1962,9.1962,9.1962,9.1962,9.1962,9.1962,9.1962,9.1962,9.1962,9.1962,9.1962,9.1962,9.1962,9.1962,9.1962,9.1962,9.1962,9.1962,9.1962,9.1962,9.1962,9.1962,9.1962,9.1962,9.1962,9.1962,9.1962,9.1962,9.1962,9.1962,9.1962,9.1962,9.1962,9.1962,9.1962,9.1962,9.1962,9.1962,9.1962,9.1962,9.1962,9.1962,9.1962,9.1962,9.1962,9.1962,9.1962,9.1962,9.1962,9.1962,9.1962,9.1962,9.1962,9.1962,9.1962,9.1962,9.1962,9.1962,9.1962,9.1962,9.1962,9.1962,9.1962,9.1962,9.1962,9.1962,9.1962,9.1962,9.1962,9.1962,9.1962,9.1962,9.1962,9.1962,9.1962,9.1962,9.1962,9.1962,9.1962,9.1962,9.1962,9.1962,9.1962,9.1962,9.1962,9.1962,9.1962,9.1962,9.1962,9.1962,9.1962,9.1962,9.8225,9.8262,9.8368,9.9577,10.1169,10.1067,10.2026,10.3271,10.1925,10.0684,9.9618,9.6721,9.4859,9.4209,9.2585,9.1962,9.1962,9.1962,9.1962,9.1962,9.1962,9.1962,9.1962,9.1962,9.1962,9.1962,9.1962,9.1962,9.1962,9.1962,9.1962,9.1962,9.1962,9.1962,9.1962,9.1962,9.1962,9.1962,9.1962,9.1962,9.1962,9.1962,9.1962,9.1962,9.1962,9.1962,9.1962,9.1962,9.1962,9.1962,9.1962,9.1962,9.1962,9.1962,9.1962,9.1962,9.1962,9.1962,9.1962,9.1962,9.1962,9.1962,9.1962,9.1962,9.1962,9.1962,9.1962,9.1962,9.1962,9.1962,9.1962,9.1962,9.1962,9.1962,9.1962,9.1962,9.1962,9.1962,9.1962,9.1962,9.1962,9.1962,9.1962,9.1962,9.1962,9.1962,9.1962,9.1962,9.1962,9.1962,9.1962,9.1962,9.1962,9.1962,9.1962,9.1962,9.1962,9.1962,9.1962,9.1962,9.1962,9.1962,9.1962,9.1962,9.1962,9.1962,9.1962,9.1962,9.1962,9.1962,9.1962,9.1962,9.1962,9.1962,9.1962,9.7513,9.9582,9.8485,9.9073,10.0684,9.9541,9.9541,10.0005,9.936,9.8305,9.7065,9.5471,9.4209,9.3064,9.231,9.1962,9.1962,9.1962,9.1962,9.1962,9.1962,9.1962,9.1962,9.1962,9.1962,9.1962,9.1962,9.1962,9.1962,9.1962,9.1962,9.1962,9.1962,9.1962,9.1962,9.1962,9.1962,9.1962,9.1962,9.1962,9.1962,9.1962,9.1962,9.1962,9.1962,9.1962,9.1962,9.1962,9.1962,9.1962,9.1962,9.1962,9.1962,9.1962,9.1962,9.1962,9.1962,9.1962,9.1962,9.1962,9.1962,9.1962,9.1962,9.1962,9.1962,9.1962,9.1962,9.1962,9.1962,9.1962,9.1962,9.1962,9.1962,9.1962,9.1962,9.1962,9.1962,9.1962,9.1962,9.1962,9.1962,9.1962,9.1962,9.1962,9.1962,9.1962,9.1962,9.1962,9.1962,9.1962,9.1962,9.1962,9.1962,9.1962,9.1962,9.1962,9.1962,9.1962,9.1962,9.1962,9.1962,9.1962,9.1962,9.1962,9.1962,9.1962,9.1962,9.1962,9.1962,9.1962,9.1962,9.1962,9.1962,9.1962,9.1962,9.4853,9.6695,9.6019,9.6615,9.7634,9.6857,9.6788,9.7342,9.7055,9.6212,9.4909,9.4209,9.3241,9.2184,9.1962,9.1962,9.1962,9.1962,9.1962,9.1962,9.1962,9.1962,9.1962,9.1962,9.1962,9.1962,9.1962,9.1962,9.1962,9.1962,9.1962,9.1962,9.1962,9.1962,9.1962,9.1962,9.1962,9.1962,9.1962,9.1962,9.1962,9.1962,9.1962,9.1962,9.1962,9.1962,9.1962,9.1962,9.1962,9.1962,9.1962,9.1962,9.1962,9.1962,9.1962,9.1962,9.1962,9.1962,9.1962,9.1962,9.1962,9.1962,9.1962,9.1962,9.1962,9.1962,9.1962,9.1962,9.1962,9.1962,9.1962,9.1962,9.1962,9.1962,9.1962,9.1962,9.1962,9.1962,9.1962,9.1962,9.1962,9.1962,9.1962,9.1962,9.1962,9.1962,9.1962,9.1962,9.1962,9.1962,9.1962,9.1962,9.1962,9.1962,9.1962,9.1962,9.1962,9.1962,9.1962,9.1962,9.1962,9.1962,9.1962,9.1962,9.1962,9.1962,9.1962,9.1962,9.1962,9.1962,9.1962,9.1962,9.1962,9.1962,9.1962,8.9918,8.9261,9.0131,9.1455,9.2122,9.2731,9.412,9.5253,9.4908,9.4398,9.3791,9.2652,9.1805,9.1845,9.1729,9.1816,9.1613,9.1525,9.1613,9.1787,9.1816,9.1845,9.1962,9.1962,9.1962,9.1962,9.1962,9.1962,9.1962,9.1962,9.1962,9.1962,9.1962,9.1962,9.1962,9.1962,9.1962,9.1962,9.1962,9.1962,9.1962,9.1962,9.1962,9.1962,9.1962,9.1962,9.1962,9.1962,9.1962,9.1962,9.1962,9.1962,9.1962,9.1962,9.1962,9.1962,9.1962,9.1962,9.1962,9.1962,9.1962,9.1962,9.1962,9.1962,9.1962,9.1962,9.1962,9.1962,9.1962,9.1962,9.1962,9.1962,9.1962,9.1962,9.1962,9.1962,9.1962,9.1962,9.1962,9.1962,9.1962,9.1962,9.1962,9.1962,9.1962,9.1962,9.1962,9.1962,9.1962,9.1962,9.1962,9.1962,9.1962,9.1962,9.1962,9.1962,9.1962,9.1962,9.1962,9.1962,9.1962,9.1962,9.1962,9.1962,9.1962,9.1962,9.1962,9.1962,9.1962,9.1962,9.1962,9.1962,9.1962,9.1962,9.1962,8.8591,8.9886,8.9272,8.9751,9.0947,9.007,9.0011,9.0513,9.0335,9.0291,9.0171,8.9583,8.9768,9.0495,9.064,9.0175,8.9373,8.9344,8.9809,9.0553,9.0611,9.1076,9.1845,9.1962,9.1962,9.1962,9.1962,9.1962,9.1962,9.1962,9.1962,9.1962,9.1962,9.1962,9.1962,9.1962,9.1962,9.1962,9.1962,9.1962,9.1962,9.1962,9.1962,9.1962,9.1962,9.1962,9.1962,9.1962,9.1962,9.1962,9.1962,9.1962,9.1962,9.1962,9.1962,9.1962,9.1932,9.1962,9.1962,9.1962,9.1962,9.1962,9.1962,9.1962,9.1962,9.1962,9.1962,9.1962,9.1962,9.1962,9.1962,9.1962,9.1962,9.1962,9.1962,9.1962,9.1962,9.1962,9.1962,9.1962,9.1962,9.1962,9.1962,9.1962,9.1962,9.1962,9.1962,9.1962,9.1962,9.1962,9.1962,9.1962,9.1962,9.1962,9.1962,9.1962,9.1962,9.1962,9.1962,9.1962,9.1962,9.1962,9.1962,9.1962,9.1962,9.1962,9.1962,9.1962,9.1962,9.1962,9.1962,9.1962,9.1962,9.1962,9.1962,8.7098,8.954,8.8261,8.803,8.853,8.7768,8.7337,8.7366,8.7832,8.8035,8.8035,8.8035,8.8501,8.9245,8.8809,8.8373,8.8064,8.8035,8.8501,8.9228,8.9274,8.9972,9.1135,9.1264,9.1425,9.1874,9.1962,9.1962,9.1962,9.1962,9.1962,9.1962,9.1962,9.1962,9.1962,9.1962,9.1962,9.1962,9.1962,9.1962,9.1962,9.1962,9.17,9.1251,9.0798,9.0536,9.0536,9.0536,9.0536,9.0536,9.0536,9.0536,9.0536,9.0536,9.0536,9.0595,9.1002,9.1222,9.1322,9.1629,9.1962,9.1962,9.1962,9.1962,9.1962,9.1962,9.1962,9.1962,9.1962,9.1962,9.1962,9.1962,9.1962,9.1962,9.1962,9.1962,9.1962,9.1962,9.1962,9.1962,9.1962,9.1962,9.1962,9.1962,9.1962,9.1962,9.1962,9.1962,9.1962,9.1962,9.1962,9.1962,9.1962,9.1962,9.1962,9.1962,9.1962,9.1962,9.1962,9.1962,9.1962,9.1962,9.1962,9.1962,9.1962,9.1962,9.1962,9.1962,9.1962,9.1962,9.1962,9.1962,9.1962,9.1962,9.1962,8.5236,8.6875,8.6955,8.5949,8.4342,8.5524,8.6018,8.6105,8.725,8.7774,8.7686,8.7744,8.7832,8.7744,8.6668,8.6687,8.7686,8.7657,8.7774,8.7948,8.8017,8.8675,8.9855,8.9943,9.0524,9.138,9.1409,9.1583,9.1787,9.1932,9.1962,9.1962,9.1962,9.1962,9.1962,9.1962,9.1962,9.1962,9.1962,9.1962,9.1962,9.1787,9.106,8.9943,8.8762,8.8239,8.8181,8.8093,8.8123,8.8093,8.821,8.8152,8.8123,8.8152,8.821,8.8268,8.9245,8.9914,9.0059,9.1047,9.1758,9.1816,9.1803,9.1877,9.1481,9.1722,9.1764,9.168,9.1337,9.1408,9.1495,9.168,9.1962,9.1962,9.1962,9.1962,9.1962,9.1962,9.1962,9.1962,9.1962,9.1962,9.1962,9.1962,9.1962,9.1962,9.1962,9.1962,9.1962,9.1962,9.1962,9.1962,9.1962,9.1962,9.1962,9.1962,9.1962,9.1962,9.1962,9.1962,9.1962,9.1962,9.1962,9.1962,9.1962,9.1962,9.1962,9.1962,9.1962,9.1962,9.1962,9.1962,9.1962,9.1962,9.1962,8.4533,8.4924,8.4933,8.4657,8.4206,8.4565,8.471,8.4758,8.5088,8.5233,8.5233,8.5233,8.5262,8.5175,8.4885,8.4885,8.5204,8.5233,8.5698,8.6571,8.6639,8.7297,8.8501,8.8617,8.8791,8.9082,8.9199,8.9623,9.0553,9.1396,9.1962,9.1962,9.1962,9.1962,9.1962,9.1962,9.1962,9.1932,9.1962,9.1962,9.1671,9.01,8.8937,8.8617,8.8239,8.8035,8.8035,8.8035,8.8035,8.8035,8.8035,8.8035,8.8035,8.8035,8.8035,8.8093,8.8413,8.8588,8.8617,8.9768,9.0553,9.0611,9.1467,9.1227,8.9999,9.0943,9.1071,8.9468,8.8586,8.8472,8.9296,9.0871,9.1877,9.1962,9.1962,9.1962,9.1962,9.1962,9.1962,9.1962,9.1962,9.1962,9.1962,9.1962,9.1962,9.1962,9.1962,9.1962,9.1962,9.1962,9.1962,9.1962,9.1962,9.1962,9.1962,9.1962,9.1962,9.1962,9.1962,9.1962,9.1962,9.1962,9.1962,9.1962,9.1962,9.1962,9.1962,9.1962,9.1962,9.1962,9.1962,9.1962,9.1962,9.1962,9.1962,8.4177,8.4177,8.4177,8.4177,8.4177,8.4177,8.4177,8.4177,8.4177,8.4177,8.4061,8.3082,8.2975,8.3469,8.3469,8.3722,8.4187,8.4177,8.4584,8.5292,8.5321,8.6018,8.7163,8.7279,8.7599,8.7977,8.8035,8.8472,8.9228,8.9943,9.0362,9.0362,9.0362,9.0362,9.0362,9.0362,9.0362,9.0362,9.0362,9.0362,9.0129,8.8326,8.7239,8.7192,8.6756,8.6454,8.6454,8.6494,8.6494,8.6494,8.6454,8.6454,8.6494,8.6494,8.6494,8.6494,8.6454,8.6727,8.725,8.846,8.9187,8.9216,8.9926,8.9359,8.7162,8.8119,8.7506,8.4693,8.425,8.5144,8.6691,8.809,8.9618,9.0922,9.1135,9.138,9.1874,9.1962,9.1962,9.1962,9.1962,9.1962,9.1962,9.1962,9.1962,9.1962,9.1962,9.1962,9.1962,9.1962,9.1962,9.1962,9.1962,9.1962,9.1962,9.1962,9.1962,9.1962,9.1962,9.1962,9.1962,9.1962,9.1962,9.1962,9.1962,9.1962,9.1962,9.1962,9.1962,9.1962,9.1962,9.1962,9.1962,9.1962,9.1962,8.3809,8.3829,8.3751,8.38,8.3751,8.378,8.3712,8.3712,8.3838,8.3838,8.3518,8.15,8.118,8.2111,8.2236,8.278,8.3654,8.3954,8.4012,8.4041,8.4119,8.4797,8.5844,8.5931,8.6581,8.7483,8.757,8.7599,8.7861,8.7919,8.7977,8.8035,8.8035,8.8123,8.8093,8.8093,8.8093,8.8105,8.7803,8.7715,8.7599,8.6552,8.5931,8.5941,8.471,8.4012,8.41,8.3858,8.3838,8.38,8.3838,8.3829,8.38,8.3838,8.3829,8.3829,8.3829,8.4216,8.5162,8.6462,8.6914,8.7105,8.7092,8.6349,8.4249,8.3871,8.1818,7.8741,7.9436,8.1643,8.3769,8.4377,8.594,8.8784,8.9273,9.0097,9.1122,9.1671,9.1787,9.1816,9.1845,9.1835,9.151,9.1722,9.1764,9.1312,9.1524,9.1962,9.1962,9.1962,9.1962,9.1962,9.1962,9.1962,9.1962,9.1962,9.1962,9.1962,9.1962,9.1962,9.1962,9.1962,9.1962,9.1962,9.1962,9.1962,9.1962,9.1962,9.1962,9.1962,9.1962,9.1962,9.1962,9.1962,9.1962,8.1354,8.1288,8.1288,8.1288,8.1325,8.1288,8.1325,8.1288,8.1325,8.1288,8.123,8.0743,8.0627,8.0889,8.0889,8.1034,8.1404,8.2373,8.2809,8.2896,8.3722,8.4332,8.4555,8.4623,8.4768,8.5001,8.5059,8.5553,8.6465,8.6552,8.7046,8.7948,8.8035,8.8035,8.8035,8.8035,8.8035,8.7919,8.6076,8.5059,8.5059,8.4729,8.4623,8.4536,8.3411,8.2838,8.2751,8.1811,8.1317,8.1288,8.1288,8.1325,8.1288,8.1288,8.1288,8.1288,8.1288,8.0776,7.9546,7.9785,8.0069,8.0124,8.1757,8.1758,7.941,7.7588,7.558,7.4154,7.5662,7.7692,7.9083,8.0771,8.3094,8.5503,8.5924,8.682,8.8639,8.9868,9.0437,9.0553,9.1309,9.1055,8.9956,9.0743,9.1156,8.997,9.0786,9.1848,9.1962,9.1962,9.1962,9.1962,9.1962,9.1816,9.1962,9.1874,9.1816,9.1962,9.1874,9.1758,9.1874,9.1932,9.1962,9.1962,9.1962,9.1962,9.1962,9.1962,9.1962,9.1962,9.1962,9.1962,9.1962,9.1962,9.1962,8.0481,8.0481,8.0481,8.0481,8.0481,8.0481,8.0481,8.0336,7.859,7.8125,7.8641,7.87,7.9019,7.9579,7.9572,7.9899,8.051,8.1209,8.15,8.1595,8.216,8.2472,8.248,8.2509,8.28,8.3353,8.3382,8.4022,8.5117,8.5204,8.5582,8.6193,8.628,8.6319,8.6319,8.6319,8.629,8.6222,8.3789,8.2472,8.248,8.189,8.16,8.1571,8.1616,8.15,8.1537,8.0831,8.0481,8.0481,8.0481,8.0481,8.0481,8.0481,8.0481,8.0445,7.958,7.8584,7.7403,7.6629,7.6155,7.6168,7.7784,7.7157,7.328,7.1746,7.0768,7.0217,7.1256,7.2751,7.4413,7.6206,7.8405,8.1237,8.2968,8.4559,8.6301,8.801,8.8661,8.7863,8.8211,8.8346,8.7622,8.8686,8.9314,9.02,9.0943,9.1919,9.1962,9.0973,9.0129,9.0187,9.0158,9.0158,9.0129,9.0158,9.0158,9.0158,9.0158,9.0391,9.0989,9.106,9.128,9.1774,9.1962,9.1962,9.1962,9.1962,9.1962,9.1962,9.1962,9.1962,9.1962,9.1962,9.1962,7.9754,7.9929,7.9958,7.9929,7.9899,7.9725,7.9667,7.9376,7.5878,7.4977,7.6018,7.6047,7.6658,7.774,7.7914,7.8583,7.9667,8.0045,8.0219,8.0219,8.0394,8.0481,8.0481,8.0481,8.1063,8.209,8.2148,8.2626,8.3547,8.3635,8.3751,8.3925,8.3925,8.4012,8.4119,8.4177,8.4012,8.3635,8.1587,8.0481,8.0452,7.9405,7.8641,7.8351,7.955,8.0074,7.9696,7.9812,7.9608,7.891,7.8881,7.8765,7.859,7.8416,7.8715,7.8852,7.7287,7.6088,7.5458,7.3837,7.2768,7.2701,7.3776,7.2363,6.7527,6.714,6.7286,6.7457,6.7647,6.8325,7.0183,7.1373,7.3242,7.6466,7.9325,8.173,8.3149,8.5067,8.5623,8.4155,8.4083,8.4752,8.4982,8.5567,8.6808,8.8987,8.9342,9.0689,9.0172,8.9021,8.7828,8.7995,8.8035,8.8035,8.8326,8.8064,8.8268,8.8035,8.821,8.8704,8.9594,8.9751,9.0071,9.1076,9.1118,9.1176,9.1234,9.1409,9.1176,9.1089,9.138,9.1542,9.1525,9.1293,9.1234,7.6315,7.7239,7.7239,7.7239,7.7152,7.6146,7.5675,7.5564,7.3784,0.0,0.0,7.3373,7.3523,7.3814,7.4861,7.5442,7.5826,7.7914,7.8881,7.8932,7.9987,8.0481,8.0481,8.0481,8.0598,8.0801,8.0801,8.0918,8.1151,8.1113,8.1674,8.2605,8.2722,8.3207,8.409,8.4177,8.3169,8.1201,8.0714,8.0481,8.0481,8.0249,7.9107,7.6948,7.8205,7.7892,7.5797,7.6693,7.532,7.128,7.1051,7.0556,6.9512,6.9427,7.0116,7.1689,7.1452,6.985,6.6711,6.6164,6.5546,6.4676,6.6495,6.6835,6.5107,6.5671,6.6549,6.7384,6.7457,6.7584,6.8045,6.8236,6.936,7.1871,7.2683,7.4265,7.7037,7.8734,7.9954,8.0298,8.1096,8.1251,7.9741,8.1022,8.1839,8.1093,8.4011,8.601,8.5925,8.5642,8.5647,8.729,8.7606,8.789,8.7977,8.789,8.8035,8.7832,8.789,8.8123,8.8355,8.8413,8.8501,8.8908,8.8733,8.8821,8.8762,8.8937,8.8733,8.8762,8.9577,9.0321,9.0233,8.9548,8.8908,7.4046,7.4594,7.4594,7.4623,0.0,7.393,7.3319,7.2742,7.2069,7.2156,7.2675,7.2675,7.2675,7.2733,7.3377,7.3668,7.3726,7.5006,7.5588,7.5675,7.6896,7.7514,7.7543,7.8176,7.8845,7.9492,7.9456,7.9805,8.0452,8.0481,8.0801,8.145,8.145,8.1383,8.1338,8.1948,8.1695,8.0481,7.8129,7.7431,7.8424,7.7863,7.6896,7.5704,7.6867,0.0,0.0,0.0,0.0,0.0,0.0,0.0,0.0,6.6467,0.0,6.4926,6.1148,5.8018,5.6169,5.5541,5.6217,5.8377,5.9594,5.9277,5.7118,6.0976,6.2767,6.1189,6.2986,6.4231,6.4231,6.4677,6.5672,6.7412,6.9062,7.0888,7.3095,7.4876,7.5927,7.5988,7.6414,7.6905,7.6772,7.7938,7.8614,7.9481,8.1566,8.3454,8.4266,8.2728,8.1896,8.4053,8.5265,8.6047,8.6076,8.6076,8.6047,8.6076,8.6076,8.6378,8.6919,8.7076,8.7308,8.7919,8.8035,8.8035,8.8035,8.8035,8.8035,8.8093,8.8588,8.8809,8.814,8.8024,8.8035,7.2505,7.2675,7.2675,7.2675,7.2646,7.2152,7.1458,7.0589,7.0589,7.1109,7.1977,7.201,7.1977,7.2006,7.2239,7.2388,7.2355,7.2592,7.2675,7.2737,7.3784,7.4279,7.4308,7.5355,7.6431,7.7355,7.7071,7.7657,7.8961,7.8315,7.8546,7.9717,7.9396,7.9106,7.8896,0.0,0.0,0.0,7.4725,7.3863,7.5878,7.498,7.4367,7.4308,7.5791,0.0,7.5582,7.596,7.521,7.2999,7.2858,0.0,0.0,0.0,0.0,0.0,0.0,0.0,0.0,0.0,0.0,0.0,5.159,5.0906,4.9515,5.5128,5.7373,5.3981,5.8057,6.0766,6.018,6.1424,6.2693,6.3655,6.6093,6.811,6.9264,7.1144,7.2145,7.1339,7.1482,7.2296,7.3882,7.4576,7.5678,7.7895,7.9459,8.0483,8.1722,7.8797,7.753,7.9612,8.2114,8.3587,8.379,8.3664,8.346,8.346,8.346,8.3867,8.4681,8.4952,8.5447,8.6592,8.6999,8.6941,8.7221,8.7337,8.7163,8.7279,8.7483,8.7163,8.5476,8.6058,8.7028,7.1778,7.2675,7.2675,7.2675,7.2501,7.0382,6.9422,6.9247,6.9277,6.9364,6.9509,6.9477,6.9448,6.9567,7.0673,7.12,7.1258,7.2214,7.2675,7.2675,7.2883,7.297,7.2937,7.3116,7.3256,7.3335,7.1822,7.1976,7.3562,7.0506,7.1701,7.6801,7.5484,7.6584,7.9738,7.3628,7.0261,7.0149,7.0535,7.1785,7.3818,7.3686,7.3411,7.3102,7.5291,7.5059,7.1894,7.376,7.2276,6.6777,6.6339,6.5757,6.4448,6.3547,6.0086,0.0,5.3147,0.0,0.0,0.0,0.0,0.0,0.0,0.0,0.0,4.9564,5.0589,4.9166,5.6348,5.9887,5.7068,5.9497,6.1278,6.1464,6.1866,6.2477,6.3534,6.4806,6.5903,6.6649,6.7521,6.8184,6.8734,6.9363,6.9973,7.1077,7.3335,7.4588,7.3218,7.3084,7.3916,7.6153,7.9184,8.1314,8.2152,8.1658,8.1121,8.1026,8.1151,8.0997,8.1412,8.1383,8.1703,8.2867,8.3304,8.3595,8.4507,8.471,8.4681,8.4739,8.5495,8.5127,8.2451,8.2518,8.3109,7.0178,7.0611,7.064,6.9629,6.791,6.5869,6.5331,6.5873,6.5906,6.6098,6.637,6.5452,6.4674,6.424,6.5317,6.5876,6.6026,6.8064,6.903,6.9153,7.0915,7.172,7.1749,7.2388,7.2149,7.1178,7.0366,6.988,6.9628,6.8076,6.8685,7.1311,7.059,6.9975,6.958,6.8529,6.7351,6.6189,6.7794,6.9558,7.1462,7.1505,7.1873,7.2667,7.3809,7.3639,7.201,7.2999,7.1952,6.8579,6.8346,6.7795,6.6338,5.8574,5.3387,0.0,0.0,0.0,0.0,0.0,0.0,0.0,0.0,0.0,0.0,0.0,4.3097,4.6245,5.3713,5.6019,5.0426,5.3479,5.597,5.6556,5.4982,5.6007,6.1205,6.0595,6.1156,6.4615,6.5427,6.6159,6.7286,6.7847,6.8164,6.8189,6.9437,6.9817,6.8579,6.9011,7.0508,7.2783,7.5291,7.7555,7.9379,8.0038,8.0481,8.0481,8.0481,8.0481,8.0481,8.0481,8.0627,8.1217,8.1325,8.1674,8.2559,8.2414,8.2268,8.2617,8.2917,8.2335,8.0831,8.0947,8.1362,6.8549,6.8315,6.5706,6.3689,6.2113,6.0818,6.1172,6.2592,6.2626,6.2935,6.3261,6.17,6.0197,5.8707,5.8761,5.9321,6.0392,6.2795,6.4307,6.5256,6.8322,6.9541,6.9209,7.0523,7.013,6.8437,6.7708,6.7008,6.631,6.5176,6.485,6.5177,6.3803,6.1708,5.9214,6.223,6.3735,6.3408,6.4953,6.645,6.7814,6.877,7.0158,7.2015,7.2475,7.2592,7.2301,7.2301,7.172,7.0527,6.9057,6.7602,6.6039,5.3594,0.0,0.0,0.0,0.0,0.0,0.0,0.0,0.0,0.0,3.3819,2.5891,0.0,3.7094,0.0,5.0077,5.2034,4.6624,4.8832,0.0,0.0,4.9027,4.9654,5.6031,5.6007,5.7032,6.1196,6.2783,6.4231,6.6067,6.653,6.6549,6.5969,6.5939,6.5768,6.5238,6.5994,6.7461,6.9489,7.1729,7.388,7.5841,7.7902,7.9225,7.9499,7.9521,7.9579,7.9514,7.9579,7.9659,7.9958,8.0045,8.0066,8.035,8.0532,8.0268,7.9135,7.8084,7.7523,7.8307,7.864,7.9097,6.7213,6.6334,5.6289,5.3619,5.6066,5.6002,5.7632,6.0467,6.0462,6.0532,6.05,5.9321,5.7147,5.4185,5.1336,0.0,5.5967,5.7136,5.9208,6.2269,6.5134,6.5589,6.4069,6.5773,6.566,6.3832,6.1215,6.1206,6.3328,5.9221,5.7883,5.9335,5.3952,5.2001,5.3604,5.4033,5.6552,6.1164,6.141,6.1656,6.1828,6.5249,6.8065,7.013,7.1846,7.2185,7.1141,7.1112,7.0498,6.907,6.3644,5.9629,5.7477,0.0,0.0,0.0,0.0,0.0,0.0,0.0,0.0,0.0,0.0,0.0,0.0,0.0,0.0,3.8656,4.5025,0.0,4.9345,4.8825,0.0,0.0,0.0,4.402,4.4654,4.9808,5.3504,5.3919,0.0,0.0,6.2823,6.3914,6.3857,6.1831,6.1522,6.1864,6.2701,6.3816,6.4999,6.6103,6.9041,7.1416,7.2256,7.4183,7.5785,7.6553,7.689,7.6855,7.6791,7.682,7.7349,7.8048,7.8605,7.8214,7.7117,7.844,7.8546,7.2441,6.9905,6.9431,7.2149,7.3614,7.5133,5.8858,5.4393,4.7645,4.6301,4.8559,4.762,4.9393,5.3,5.3,5.2449,5.148,4.9985,4.7445,4.4126,4.181,0.0,0.0,0.0,5.1177,5.542,5.9233,6.1221,6.1581,6.3197,6.2486,5.974,5.8595,5.8034,5.8048,5.6174,5.1414,4.3991,0.0,4.4126,4.2612,4.8149,5.2478,5.5237,5.7826,5.9169,5.9207,6.1721,6.454,6.7531,6.9472,7.0265,6.98,6.9771,6.7805,6.3559,5.9771,5.5703,0.0,0.0,0.0,0.0,0.0,0.0,0.0,0.0,0.0,0.0,0.0,2.3394,1.8669,0.0,0.0,0.0,3.1326,3.3282,3.6029,4.1138,0.0,0.0,0.0,0.0,0.0,0.0,0.0,4.9637,5.3713,5.6837,5.8531,6.0263,6.1107,6.0229,6.0619,6.0936,6.0726,0.0,6.2514,6.2889,6.5181,6.6943,6.7256,6.8721,7.0454,7.2281,7.3474,7.388,7.2857,7.2585,7.2376,7.1873,7.1724,7.1201,6.9411,7.092,7.1124,6.7434,6.6892,6.7562,6.8812,6.9495,7.018,4.7855,0.0,0.0,0.0,0.0,3.8883,4.0668,4.4528,4.4276,4.3525,4.2349,4.0789,0.0,0.0,0.0,0.0,0.0,0.0,4.4089,4.895,5.4287,5.7103,5.781,5.9448,5.8743,5.6142,5.5508,5.4337,5.2722,5.0028,4.3232,3.2854,0.0,0.0,0.0,0.0,4.8815,5.1583,5.575,5.7886,5.7886,5.9203,6.1622,6.5216,6.7718,6.8986,6.8986,6.7282,6.3997,5.8945,5.3705,0.0,0.0,0.0,0.0,0.0,0.0,0.0,0.0,0.0,0.0,0.0,0.0,0.0,0.0,0.0,0.0,0.0,0.0,0.0,2.7675,3.4909,3.8038,0.0,0.0,0.0,0.0,0.0,0.0,0.0,0.0,0.0,5.2483,5.5214,5.752,0.0,0.0,5.996,5.9531,6.0092,6.0595,6.0595,6.1599,0.0,6.271,6.3776,6.5395,6.7854,6.9874,7.0291,6.7799,6.8375,6.8391,6.5842,6.6436,6.591,6.2495,6.2003,6.1791,6.0993,6.1707,6.3015,6.4264,6.5348,6.6177,0.0,0.0,0.0,0.0,3.0833,0.0,0.0,0.0,3.5003,3.4543,0.0,3.2967,0.0,0.0,0.0,0.0,2.878,3.3803,0.0,0.0,5.0808,5.3431,5.196,5.3651,5.4034,5.3089,5.0892,4.9286,4.7776,3.9023,0.0,0.0,0.0,0.0,0.0,0.0,4.5152,5.1257,5.5701,5.7886,5.791,5.8023,5.9777,6.3417,6.7016,6.8864,6.8722,6.3155,5.8944,5.6566,4.4256,0.0,0.0,0.0,0.0,0.0,0.0,0.0,0.0,0.0,0.0,0.0,0.0,0.0,0.0,0.0,0.0,0.0,0.0,0.0,0.0,3.2035,0.0,0.0,0.0,0.0,0.0,0.0,0.0,0.0,0.0,4.7142,4.424,4.8498,5.2869,5.5873,0.0,0.0,0.0,0.0,5.9507,5.9507,5.8767,5.8511,5.9352,6.0317,6.1659,6.3755,0.0,0.0,6.182,6.4532,6.5723,6.182,6.414,6.4614,5.6338,5.2517,5.0942,5.1761,5.2132,5.3477,5.7112,5.9768,6.2781,0.0,0.0,0.0,0.0,0.0,0.0,0.0,0.0,0.0,2.7095,2.5967,2.5531,0.0,0.0,0.0,0.0,0.0,0.0,0.0,0.0,4.0606,4.3801,4.4269,4.7334,4.7372,4.4677,4.2463,3.9387,0.0,0.0,0.0,0.0,0.0,0.0,0.0,0.0,4.202,4.6177,5.3872,5.7886,5.7886,5.7886,5.9693,6.3244,6.4642,6.4123,6.16,5.8379,5.4067,0.0,0.0,0.0,0.0,0.0,0.0,0.0,0.0,0.0,0.0,0.0,0.0,0.0,0.0,0.0,0.0,0.0,0.0,0.0,0.0,0.0,0.0,0.0,2.7423,0.0,0.0,0.0,0.0,0.0,0.0,0.0,0.0,0.0,3.8265,4.4073,4.9548,5.2722,5.525,5.719,5.8325,0.0,0.0,0.0,0.0,0.0,0.0,0.0,5.4828,5.7253,5.5526,5.3877,5.408,5.6119,5.6815,5.4093,0.0,0.0,4.6944,4.4351,4.3691,4.411,4.525,4.6412,4.7214,4.8747,5.0359,0.0,0.0,0.0,0.0,0.0,0.0,0.0,0.0,0.0,1.998,1.8867,0.0,0.0,0.0,0.0,0.0,0.0,0.0,0.0,0.0,0.0,0.0,3.7582,4.0074,0.0,0.0,0.0,0.0,0.0,0.0,0.0,0.0,0.0,0.0,0.0,0.0,3.9275,4.302,5.2379,5.752,5.7886,5.7886,5.9681,6.3218,6.3356,6.1702,5.8205,0.0,0.0,0.0,0.0,0.0,0.0,0.0,0.0,0.0,0.0,0.0,0.0,0.0,0.0,0.0,0.0,0.0,0.0,0.0,0.0,0.0,0.0,0.0,0.0,0.0,2.2986,0.0,0.0,0.0,0.0,0.0,0.0,0.0,0.0,0.0,0.0,3.8346,4.3718,4.7489,5.1155,5.4155,5.6151,5.6975,5.7349,0.0,0.0,0.0,0.0,0.0,0.0,0.0,0.0,0.0,0.0,0.0,0.0,0.0,0.0,4.6563,3.9853,3.7532,3.6779,3.7094,0.0,0.0,0.0,0.0,0.0,0.0,0.0,0.0,0.0,0.0,0.0,0.0,0.0,0.0,0.0,1.3052,0.0,0.0,1.2105,0.0,0.0,0.0,0.0,0.0,0.0,0.0,0.0,0.0,0.0,0.0,0.0,0.0,0.0,0.0,0.0,0.0,0.0,0.0,0.0,0.0,0.0,3.6977,4.1903,5.1249,5.6677,5.785,5.7886,5.9656,6.3129,6.3329,6.2005,5.9223,0.0,0.0,0.0,0.0,0.0,0.0,0.0,0.0,0.0,0.0,0.0,0.0,0.0,0.0,0.0,0.0,0.0,0.0,0.0,0.0,0.0,0.0,0.0,0.0,0.0,0.0,2.1943,2.5213,2.6588,0.0,0.0,0.0,0.0,0.0,0.0,0.0,0.0,0.0,4.0312,4.5004,4.9314,5.2897,5.4881,5.5934,5.6129,5.5263,5.425,5.3381,5.306,5.195,0.0,0.0,0.0,0.0,0.0,0.0,0.0,0.0,0.0,0.0,0.0,0.0,0.0,0.0,0.0,0.0,0.0,0.0,0.0,0.0,0.0,0.0,0.0,0.0,0.0,0.0,0.0,0.0,0.0,0.0,0.0,0.0,0.0,0.0,0.0,0.0,0.0,0.0,0.0,0.0,0.0,0.0,0.0,0.0,0.0,0.0,0.0,0.0,0.0,0.0,0.0,0.0,0.0,0.0,3.4383,3.9522,4.9237,5.5032,5.6702,5.7495,5.9205,6.1896,6.2012,6.0787,0.0,0.0,0.0,0.0,0.0,0.0,0.0,0.0,0.0,0.0,0.0,0.0,0.0,0.0,0.0,0.0,0.0,0.0,0.0,0.0,0.0,0.0,0.0,0.0,0.0,0.0,0.0,0.0,2.5934,2.7255,2.6496,0.0,0.0,0.0,0.0,0.0,0.0,0.0,0.0,0.0,0.0,4.6475,5.0763,5.1109,5.1877,5.467,5.3601,5.2844,5.3981,5.263,5.0698,4.8581,0.0,0.0,0.0,0.0,0.0,0.0,0.0,0.0,0.0,0.0,0.0,0.0,0.0,0.0,0.0,0.0,0.0,0.0,0.0,0.0,0.0,0.0,0.0,0.0,0.0,0.0,0.0,0.0,0.0,0.0,0.0,0.0,0.0,0.0,0.0,0.0,0.0,0.0,0.0,0.0,0.0,0.0,0.0,0.0,0.0,0.0,0.0,0.0,0.0,0.0,0.0,0.0,0.0,3.2381,3.804,4.7417,5.3293,5.5508,5.63,5.7997,6.0767,6.0834,5.861,0.0,0.0,0.0,0.0,0.0,0.0,0.0,0.0,0.0,0.0,0.0,0.0,0.0,0.0,0.0,0.0,0.0,0.0,0.0,0.0,0.0,0.0,0.0,0.0,0.0,0.0,0.0,0.0,2.2206,2.4243,2.52,0.0,0.0,0.0,0.0,0.0,0.0,0.0,0.0,0.0,0.0,4.1847,4.7102,4.7269,0.0,0.0,5.2502,5.1696,5.425,5.2912,5.0322,4.6371,4.2767,0.0,0.0,0.0,0.0,0.0,0.0,0.0,0.0,0.0,0.0,0.0,0.0,0.0,0.0,0.0,0.0,0.0,0.0,0.0,0.0,0.0,0.0,0.0,0.0,0.0,0.0,0.0,0.0,0.0,0.0,0.0,0.0,0.0,0.0,0.0,0.0,0.0,0.0,0.0,0.0,0.0,0.0,0.0,0.0,0.0,0.0,0.0,0.0,0.0,0.0,0.0,0.0,3.0662,3.7036,4.5505,5.1321,5.4186,5.452,5.621,5.9432,5.9554,5.5834,0.0,0.0,0.0,0.0,0.0,0.0,0.0,0.0,0.0,0.0,0.0,0.0,0.0,0.0,0.0,0.0,0.0,0.0,0.0,0.0,0.0,0.0,0.0,0.0,0.0,0.0,0.0,0.0,0.0,0.0,0.0,0.0,0.0,0.0,0.0,0.0,0.0,0.0,0.0,0.0,0.0,3.6305,4.2529,4.3628,4.6137,0.0,5.1206,5.0272,5.3135,5.305,5.019,4.2884,0.0,0.0,0.0,0.0,0.0,0.0,0.0,0.0,0.0,0.0,0.0,0.0,0.0,0.0,0.0,0.0,0.0,0.0,0.0,0.0,0.0,0.0,0.0,0.0,0.0,0.0,0.0,0.0,0.0,0.0,0.0,0.0,0.0,0.0,0.0,0.0,0.0,0.0,0.0,0.0,0.0,0.0,0.0,0.0,0.0,0.0,0.0,0.0,0.0,0.0,0.0,0.0,0.0,0.0,3.3962,4.2607,4.846,5.118,5.3445,5.5226,5.6446,5.6815,0.0,0.0,0.0,0.0,0.0,0.0,0.0,0.0,0.0,0.0,0.0,0.0,0.0,0.0,0.0,0.0,0.0,0.0,0.0,0.0,0.0,0.0,0.0,0.0,0.0,0.0,0.0,1.0826,0.0,0.0,0.0,0.0,0.0,0.0,0.0,0.0,0.0,0.0,0.0,0.0,0.0,0.0,3.5879,4.1319,4.1001,4.1585,0.0,0.0,4.3738,4.3683,4.6567,4.6986,0.0,0.0,0.0,0.0,0.0,0.0,0.0,0.0,0.0,0.0,0.0,0.0,0.0,0.0,0.0,0.0,0.0,0.0,0.0,0.0,0.0,0.0,0.0,0.0,0.0,0.0,0.0,0.0,0.0,0.0,0.0,0.0,0.0,0.0,0.0,0.0,0.0,0.0,0.0,0.0,0.0,0.0,0.0,0.0,0.0,0.0,0.0,0.0,0.0,0.0,0.0,0.0,0.0,0.0,2.5267,3.2289,3.9052,4.4784,4.9344,5.1133,5.2869,5.4675,5.5105,5.1606,0.0,0.0,0.0,0.0,0.0,0.0,0.0,0.0,0.0,0.0,0.0,0.0,0.0,0.0,0.0,0.0,0.0,0.0,0.0,0.0,0.0,0.0,0.0,0.0,0.0,0.0,0.0,0.0,0.0,0.0,0.0,0.0,0.0,0.0,0.0,0.0,0.0,0.0,0.0,0.0,0.0,0.0,3.8942,3.7687,0.0,0.0,0.0,3.9972,4.0615,0.0,0.0,0.0,0.0,0.0,0.0,0.0,0.0,0.0,0.0,0.0,0.0,0.0,0.0,0.0,0.0,0.0,0.0,0.0,0.0,0.0,0.0,0.0,0.0,0.0,0.0,0.0,0.0,0.0,0.0,0.0,0.0,0.0,0.0,0.0,0.0,0.0,0.0,0.0,0.0,0.0,0.0,0.0,0.0,0.0,0.0,0.0,0.0,0.0,0.0,0.0,0.0,0.0,0.0,0.0,0.0,0.0,3.0871,3.5652,4.1165,4.7307,4.8052,4.9739,5.2774,5.361,5.0635,0.0,0.0,0.0,0.0,0.0,0.0,0.0,0.0,0.0,0.0,0.0,0.0,0.0,0.0,0.0,0.0,0.0,0.0,0.0,0.0,0.0,0.0,0.0,0.0,0.0,0.0,0.0,0.0,0.0,0.0,0.0,0.0,0.0,0.0,0.0,0.0,0.0,0.0,0.0,0.0,0.0,3.4279,3.6342,3.4633,3.4488,0.0,0.0,3.7144,3.9755,4.1051,0.0,0.0,0.0,0.0,0.0,0.0,0.0,0.0,0.0,0.0,0.0,0.0,0.0,0.0,0.0,0.0,0.0,0.0,0.0,0.0,0.0,0.0,0.0,0.0,0.0,0.0,0.0,0.0,0.0,0.0,0.0,0.0,0.0,0.0,0.0,0.0,0.0,0.0,0.0,0.0,0.0,0.0,0.0,0.0,0.0,0.0,0.0,0.0,0.0,0.0,0.0,0.0,0.0,0.0,0.0,0.0,2.7453,3.4934,3.9892,4.2051,4.4832,4.6613,4.7335,5.0131,4.8565,0.0,0.0,0.0,0.0,0.0,0.0,0.0,0.0,0.0,0.0,0.0,0.0,0.0,0.0,0.0,0.0,0.0,0.0,0.0,0.0,0.0,0.0,0.0,0.0,0.0,0.0,0.0,0.0,0.0,0.0,0.0,0.0,0.0,0.0,0.0,0.0,0.0,0.0,0.0,0.0,0.0,3.261,3.5663,3.4803,0.0,0.0,0.0,0.0,3.1428,3.1802,0.0,0.0,0.0,0.0,0.0,0.0,0.0,0.0,0.0,0.0,0.0,0.0,0.0,0.0,0.0,0.0,0.0,0.0,0.0,0.0,0.0,0.0,0.0,0.0,0.0,0.0,0.0,0.0,0.0,0.0,0.0,0.0,0.0,0.0,0.0,0.0,0.0,0.0,0.0,0.0,0.0,0.0,0.0,0.0,0.0,0.0,0.0,0.0,0.0,0.0,0.0,0.0,0.0,0.0,0.0,0.0,2.7953,3.2818,3.7006,4.0379,4.2956,4.4717,4.5692,4.9084,4.7952,0.0,0.0,0.0,0.0,0.0,0.0,0.0,0.0,0.0,0.0,0.0,0.0,0.0,0.0,0.0,0.0,0.0,0.0,0.0,0.0,0.0,0.0,0.0,0.0,0.0,0.0,0.0,0.0,0.0,0.0,0.0,0.0,0.0,0.0,0.0,0.0,0.0,0.0,0.0,0.0,2.7663,3.1299,3.2911,0.0,0.0,0.0,0.0,0.0,0.0,2.815,2.7974,0.0,0.0,0.0,0.0,0.0,0.0,0.0,0.0,0.0,0.0,0.0,0.0,0.0,0.0,0.0,0.0,0.0,0.0,0.0,0.0,0.0,0.0,0.0,0.0,0.0,0.0,0.0,0.0,0.0,0.0,0.0,0.0,0.0,0.0,0.0,0.0,0.0,0.0,0.0,0.0,0.0,0.0,0.0,0.0,0.0,0.0,0.0,0.0,0.0,0.0,0.0,0.0,0.0,0.0,0.0,2.8437,3.02,3.3726,3.9215,4.1016,4.2826,4.4743,4.8117,4.7076,4.1142,0.0,0.0,0.0,0.0,0.0,0.0,0.0,0.0,0.0,0.0,0.0,0.0,0.0,0.0,0.0,0.0,0.0,0.0,0.0,0.0,0.0,0.0,0.0,0.0,0.0,0.0,0.0,0.0,0.0,0.0,0.0,0.0,0.0,0.0,0.0,0.0,0.0,0.0,0.0,2.5919,2.9809,0.0,0.0,0.0,0.0,0.0,0.0,0.0,0.0,2.6232,0.0,0.0,0.0,0.0,0.0,0.0,0.0,0.0,0.0,0.0,0.0,0.0,0.0,0.0,0.0,0.0,0.0,0.0,0.0,0.0,0.0,0.0,0.0,0.0,0.0,0.0,0.0,0.0,0.0,0.0,0.0,0.0,0.0,0.0,0.0,0.0,0.0,0.0,0.0,0.0,0.0,0.0,0.0,0.0,0.0,0.0,0.0,0.0,0.0,0.0,0.0,0.0,0.0,0.0,0.0,0.0,2.7492,3.1554,3.4781,3.7103,3.9105,4.091,4.4082,4.355,3.8786,0.0,0.0,0.0,0.0,0.0,0.0,0.0,0.0,0.0,0.0,0.0,0.0,0.0,0.0,0.0,0.0,0.0,0.0,0.0,0.0,0.0,0.0,0.0,0.0,0.0,0.0,0.0,0.0,0.0,0.0,0.0,0.0,0.0,0.0,0.0,0.0,0.0,0.0,1.3301,2.1439,0.0,0.0,0.0,0.0,0.0,0.0,0.0,0.0,2.3141,0.0,0.0,0.0,0.0,0.0,0.0,0.0,0.0,0.0,0.0,0.0,0.0,0.0,0.0,0.0,0.0,0.0,0.0,0.0,0.0,0.0,0.0,0.0,0.0,0.0,0.0,0.0,0.0,0.0,0.0,0.0,0.0,0.0,0.0,0.0,0.0,0.0,0.0,0.0,0.0,0.0,0.0,0.0,0.0,0.0,0.0,0.0,0.0,0.0,0.0,0.0,0.0,0.0,0.0,0.0,0.0,0.0,0.0,2.9889,3.245,3.5767,3.8031,3.9062,3.9576,3.8968,0.0,0.0,0.0,0.0,0.0,0.0,0.0,0.0,0.0,0.0,0.0,0.0,0.0,0.0,0.0,0.0,0.0,0.0,0.0,0.0,0.0,0.0,0.0,0.0,0.0,0.0,0.0,0.0,0.0,0.0,0.0,0.0,0.0,0.0,0.0,0.0,0.0,0.0,0.0,0.0,0.0,0.0,0.0,0.0,0.0,0.0,0.0,0.0,0.0,0.0,0.0,0.0,0.0,0.0,0.0,0.0,0.0,0.0,0.0,0.0,0.0,0.0,0.0,0.0,0.0,0.0,0.0,0.0,0.0,0.0,0.0,0.0,0.0,0.0,0.0,0.0,0.0,0.0,0.0,0.0,0.0,0.0,0.0,0.0,0.0,0.0,0.0,0.0,0.0,0.0,0.0,0.0,0.0,0.0,0.0,0.0,0.0,0.0,0.0,0.0,0.0,0.0,0.0,0.0,0.0,0.0,0.0,0.0,2.7731,3.0557,3.4095,3.6617,3.8,3.596,3.4998,0.0,0.0,0.0,0.0,0.0,0.0,0.0,0.0,0.0,0.0,0.0,0.0,0.0,0.0,0.0,0.0,0.0,0.0,0.0,0.0,0.0,0.0,0.0,0.0,0.0,0.0,0.0,0.0,0.0,0.0,0.0,0.0,0.0,0.0,0.0,0.0,0.0,0.0,0.0,0.0,0.0,0.0,0.0,0.0,0.0,0.0,0.0,0.0,2.1294,0.0,0.0,0.0,0.0,0.0,0.0,0.0,0.0,0.0,0.0,0.0,0.0,0.0,0.0,0.0,0.0,0.0,0.0,0.0,0.0,0.0,0.0,0.0,0.0,0.0,0.0,0.0,0.0,0.0,0.0,0.0,0.0,0.0,0.0,0.0,0.0,0.0,0.0,0.0,0.0,0.0,0.0,0.0,0.0,0.0,0.0,0.0,0.0,0.0,0.0,0.0,0.0,0.0,0.0,0.0,0.0,0.0,0.0,0.0,2.42,2.8236,3.0013,3.2924,3.6962,3.446,3.2973,0.0,0.0,0.0,0.0,0.0,0.0,0.0,0.0,0.0,0.0,0.0,0.0,0.0,0.0,0.0,0.0,0.0,0.0,0.0,0.0,0.0,0.0,0.0,0.0,0.0,0.0,0.0,0.0,0.0,0.0,0.0,0.0,0.0,0.0,0.0,0.0,0.0,0.0,0.0,0.0,0.0,0.0,0.0,0.0,0.0,0.0,0.0,0.0,0.0,0.0,0.0,0.0,0.0,0.0,0.0,0.0,0.0,0.0,0.0,0.0,0.0,0.0,0.0,0.0,0.0,0.0,0.0,0.0,0.0,0.0,0.0,0.0,0.0,0.0,0.0,0.0,0.0,0.0,0.0,0.0,0.0,0.0,0.0,0.0,0.0,0.0,0.0,0.0,0.0,0.0,0.0,0.0,0.0,0.0,0.0,0.0,0.0,0.0,0.0,0.0,0.0,0.0,0.0,0.0,0.0,0.0,0.0,0.0,2.1534,2.5571,2.8555,3.0593,3.1585,2.9872,2.8699,0.0,0.0,0.0,0.0,0.0,0.0,0.0,0.0,0.0,0.0,0.0,0.0,0.0,0.0,0.0,0.0,0.0,0.0,0.0,0.0,0.0,0.0,0.0,0.0,0.0,0.0,0.0,0.0,0.0,0.0,0.0,0.0,0.0,0.0,0.0,0.0,0.0,0.0,0.0,0.0,0.0,0.0,0.0,0.0,0.0,0.0,0.0,0.0,0.0,0.0,0.0,0.0,0.0,0.0,0.0,0.0,0.0,0.0,0.0,0.0,0.0,0.0,0.0,0.0,0.0,0.0,0.0,0.0,0.0,0.0,0.0,0.0,0.0,0.0,0.0,0.0,0.0,0.0,0.0,0.0,0.0,0.0,0.0,0.0,0.0,0.0,0.0,0.0,0.0,0.0,0.0,0.0,0.0,0.0,0.0,0.0,0.0,0.0,0.0,0.0,0.0,0.0,0.0,0.0,0.0,0.0,0.0,0.0,0.0,2.2242,2.6218,2.7915,2.7175,2.569,2.4578,0.0,0.0,0.0,0.0,0.0,0.0,0.0,0.0,0.0,0.0,0.0,0.0,0.0,0.0,0.0,0.0,0.0,0.0,0.0,0.0,0.0,0.0,0.0,0.0,0.0,0.0,0.0,0.0,0.0,0.0,0.0,0.0,0.0,0.0,0.0,0.0,0.0,0.0,0.0,0.0,0.0,0.0,0.0,0.0,0.0,0.0,0.0,0.0,0.0,0.0,0.0,0.0,0.0,0.0,0.0,0.0,0.0,0.0,0.0,0.0,0.0,0.0,0.0,0.0,0.0,0.0,0.0,0.0,0.0,0.0,0.0,0.0,0.0,0.0,0.0,0.0,0.0,0.0,0.0,0.0,0.0,0.0,0.0,0.0,0.0,0.0,0.0,0.0,0.0,0.0,0.0,0.0,0.0,0.0,0.0,0.0,0.0,0.0,0.0,0.0,0.0,0.0,0.0,0.0,0.0,0.0,0.0,0.0,0.0,1.8015,2.1619,2.4281,2.5747,2.289,2.1298,0.0,0.0,0.0,0.0,0.0,0.0,0.0,0.0,0.0,0.0,0.0,0.0,0.0,0.0,0.0,0.0,0.0,0.0,0.0,0.0,0.0,0.0,0.0,0.0,0.0,0.0,0.0,0.0,0.0,0.0,0.0,0.0,0.0,0.0,0.0,0.0,0.0,0.0,0.0,0.0,0.0,0.0,0.0,0.0,0.0,0.0,0.0,0.0,0.0,0.0,0.0,0.0,0.0,0.0,0.0,0.0,0.0,0.0,0.0,0.0,0.0,0.0,0.0,0.0,0.0,0.0,0.0,0.0,0.0,0.0,0.0,0.0,0.0,0.0,0.0,0.0,0.0,0.0,0.0,0.0,0.0,0.0,0.0,0.0,0.0,0.0,0.0,0.0,0.0,0.0,0.0,0.0,0.0,0.0,0.0,0.0,0.0,0.0,0.0,0.0,0.0,0.0,0.0,0.0,0.0,0.0,0.0,0.0,0.0,1.261,1.6009,1.8958,2.118,1.9097,1.851,1.9607,0.0,0.0,0.0,0.0,0.0,0.0,0.0,0.0,0.0,0.0,0.0,0.0,0.0,0.0,0.0,0.0,0.0,0.0,0.0,0.0,0.0,0.0,0.0,0.0,0.0,0.0,0.0,0.0,0.0,0.0,0.0,0.0,0.0,0.0,0.0,0.0,0.0,0.0,0.0,0.0,0.0,0.0,0.0,0.0,0.0,0.0,0.0,0.0,0.0,0.0,0.0,0.0,0.0,0.0,0.0,0.0,0.0,0.0,0.0,0.0,0.0,0.0,0.0,0.0,0.0,0.0,0.0,0.0,0.0,0.0,0.0,0.0,0.0,0.0,0.0,0.0,0.0,0.0,0.0,0.0,0.0,0.0,0.0,0.0,0.0,0.0,0.0,0.0,0.0,0.0,0.0,0.0,0.0,0.0,0.0,0.0,0.0,0.0,0.0,0.0,0.0,0.0,0.0,0.0,0.0,0.0,0.0,0.0,1.1405,1.4149,1.637,1.8046,1.7122,1.6555,0.0,0.0,0.0,0.0,0.0,0.0,0.0,0.0,0.0,0.0,0.0,0.0,0.0,0.0,0.0,0.0,0.0,0.0,0.0,0.0,0.0,0.0,0.0,0.0,0.0,0.0,0.0,0.0,0.0,0.0,0.0,0.0,0.0,0.0,0.0,0.0,0.0,0.0,0.0,0.0,0.0,0.0,0.0,0.0,0.0,0.0,0.0,0.0,0.0,0.0,0.0,0.0,0.0,0.0,0.0,0.0,0.0,0.0,0.0,0.0,0.0,0.0,0.0,0.0,0.0,0.0,0.0,0.0,0.0,0.0,0.0,0.0,0.0,0.0,0.0,0.0,0.0,0.0,0.0,0.0,0.0,0.0,0.0,0.0,0.0,0.0,0.0,0.0,0.0,0.0,0.0,0.0,0.0,0.0,0.0,0.0,0.0,0.0,0.0,0.0,0.0,0.0,0.0,0.0,0.0,0.0,0.0,0.0,0.9771,1.5431,1.6571,1.7209,1.7506,1.7429,1.5593,0.0,0.0,0.0,0.0,0.0,0.0,0.0,0.0,0.0,0.0,0.0,0.0,0.0,0.0,0.0,0.0,0.0,0.0,0.0,0.0,0.0,0.0,0.0,0.0,0.0,0.0,0.0,0.0,0.0,0.0,0.0,0.0,0.0,0.0,0.0,0.0,0.0,0.0,0.0,0.0,0.0,0.0,0.0,0.0,0.0,0.0,0.0,0.0,0.0,0.0,0.0,0.0,0.0,0.0,0.0,0.0,0.0,0.0,0.0,0.0,0.0,0.0,0.0,0.0,0.0,0.0,0.0,0.0,0.0,0.0,0.0,0.0,0.0,0.0,0.0,0.0,0.0,0.0,0.0,0.0,0.0,0.0,0.0,0.0,0.0,0.0,0.0,0.0,0.0,0.0,0.0,0.0,0.0,0.0,0.0,0.0,0.0,0.0,0.0,0.0,0.0,0.0,0.0,0.0,0.0,0.0,0.0,0.0,0.0,0.9737,1.2443,1.5704,1.9124,1.6571,1.5461,0.0,0.0,0.0,0.0,0.0,0.0,0.0,0.0,0.0,0.0,0.0,0.0,0.0,0.0,0.0,0.0,0.0,0.0,0.0,0.0,0.0,0.0,0.0,0.0,0.0,0.0,0.0,0.0,0.0,0.0,0.0,0.0,0.0,0.0,0.0,0.0,0.0,0.0,0.0,0.0,0.0,0.0,0.0,0.0,0.0,0.0,0.0,0.0,0.0,0.0,0.0,0.0,0.0,0.0,0.0,0.0,0.0,0.0,0.0,0.0,0.0,0.0,0.0,0.0,0.0,0.0,0.0,0.0,0.0,0.0,0.0,0.0,0.0,0.0,0.0,0.0,0.0,0.0,0.0,0.0,0.0,0.0,0.0,0.0,0.0,0.0,0.0,0.0,0.0,0.0,0.0,0.0,0.0,0.0,0.0,0.0,0.0,0.0,0.0,0.0,0.0,0.0,0.0,0.0,0.0,0.0,0.0,0.0,0.0,0.8739,1.0997,1.4526,1.9014,1.6628,1.6049,0.0,0.0,0.0,0.0,0.0,0.0,0.0,0.0,0.0,0.0,0.0,0.0,0.0,0.0,0.0,0.0,0.0,0.0,0.0,0.0,0.0,0.0,0.0,0.0,0.0,0.0,0.0,0.0,0.0,0.0,0.0,0.0,0.0,0.0,0.0,0.0,0.0,0.0,0.0,0.0,0.0,0.0,0.0,0.0,0.0,0.0,0.0,0.0,0.0,0.0,0.0,0.0,0.0,0.0,0.0,0.0,0.0,0.0,0.0,0.0,0.0,0.0,0.0,0.0,0.0,0.0,0.0,0.0,0.0,0.0,0.0,0.0,0.0,0.0,0.0,0.0,0.0,0.0,0.0,0.0,0.0,0.0,0.0,0.0,0.0,0.0,0.0,0.0,0.0,0.0,0.0,0.0,0.0,0.0,0.0,0.0,0.0,0.0,0.0,0.0,0.0,0.0,0.0,0.0,0.0,0.0,0.0,0.0,0.0,1.1721,1.2137,1.3923,1.7214,1.7386,1.7203,0.0,0.0,0.0,0.0,0.0,0.0,0.0,0.0,0.0,0.0,0.0,0.0,0.0,0.0,0.0,0.0,0.0,0.0,0.0,0.0,0.0,0.0,0.0,0.0,0.0,0.0,0.0,0.0,0.0,0.0,0.0,0.0,0.0,0.0,0.0,0.0,0.0,0.0,0.0,0.0,0.0,0.0,0.0,0.0,0.0,0.0,0.0,0.0,0.0,0.0,0.0,0.0,0.0,0.0,0.0,0.0,0.0,0.0,0.0,0.0,0.0,0.0,0.0,0.0,0.0,0.0,0.0,0.0,0.0,0.0,0.0,0.0,0.0,0.0,0.0,0.0,0.0,0.0,0.0,0.0,0.0,0.0,0.0,0.0,0.0,0.0,0.0,0.0,0.0,0.0,0.0,0.0,0.0,0.0,0.0,0.0,0.0,0.0,0.0,0.0,0.0,0.0,0.0,0.0,0.0,0.0,0.0,0.0,0.0,0.0,1.214,1.3721,1.5047,1.6019,1.6896,1.7685,0.0,0.0,0.0,0.0,0.0,0.0,0.0,0.0,0.0,0.0,0.0,0.0,0.0,0.0,0.0,0.0,0.0,0.0,0.0,0.0,0.0,0.0,0.0,0.0,0.0,0.0,0.0,0.0,0.0,0.0,0.0,0.0,0.0,0.0,0.0,0.0,0.0,0.0,0.0,0.0,0.0,0.0,0.0,0.0,0.0,0.0,0.0,0.0,0.0,0.0,0.0,0.0,0.0,0.0,0.0,0.0,0.0,0.0,0.0,0.0,0.0,0.0,0.0,0.0,0.0,0.0,0.0,0.0,0.0,0.0,0.0,0.0,0.0,0.0,0.0,0.0,0.0,0.0,0.0,0.0,0.0,0.0,0.0,0.0,0.0,0.0,0.0,0.0,0.0,0.0,0.0,0.0,0.0,0.0,0.0,0.0,0.0,0.0,0.0,0.0,0.0,0.0,0.0,0.0,0.0,0.0,0.0,0.0,0.0,0.0,1.27,1.3712,1.5343,1.703,0.0,0.0,0.0,0.0,0.0,0.0,0.0,0.0,0.0,0.0,0.0,0.0,0.0,0.0,0.0,0.0,0.0,0.0,0.0,0.0,0.0,0.0,0.0,0.0,0.0,0.0,0.0,0.0,0.0,0.0,0.0,0.0,0.0,0.0,0.0,0.0,0.0,0.0,0.0,0.0,0.0,0.0,0.0,0.0,0.0,0.0,0.0,0.0,0.0,0.0,0.0,0.0,0.0,0.0,0.0,0.0,0.0,0.0,0.0,0.0,0.0,0.0,0.0,0.0,0.0,0.0,0.0,0.0,0.0,0.0,0.0,0.0,0.0,0.0,0.0,0.0,0.0,0.0,0.0,0.0,0.0,0.0,0.0,0.0,0.0,0.0,0.0,0.0,0.0,0.0,0.0,0.0,0.0,0.0,0.0,0.0,0.0,0.0,0.0,0.0,0.0,0.0,0.0,0.0,0.0,0.0,0.0,0.0,0.0,0.0,0.0,1.1351,1.2973,1.5141,0.0,1.901,0.0,0.0,0.0,0.0,0.0,0.0,0.0,0.0,0.0,0.0,0.0,0.0,0.0,0.0,0.0,0.0,0.0,0.0,0.0,0.0,0.0,0.0,0.0,0.0,0.0,0.0,0.0,0.0,0.0,0.0,0.0,0.0,0.0,0.0,0.0,0.0,0.0,0.0,0.0,0.0,0.0,0.0,0.0,0.0,0.0,0.0,0.0,0.0,0.0,0.0,0.0,0.0,0.0,0.0,0.0,0.0,0.0,0.0,0.0,0.0,0.0,0.0,0.0,0.0,0.0,0.0,0.0,0.0,0.0,0.0,0.0,0.0,0.0,0.0,0.0,0.0,0.0,0.0,0.0,0.0,0.0,0.0,0.0,0.0,0.0,0.0,0.0,0.0,0.0,0.0,0.0,0.0,0.0,0.0,0.0,0.0,0.0,0.0,0.0,0.0,0.0,0.0,0.0,0.0,0.0,0.0,0.0,0.0,0.0,0.0,0.0,0.0,1.4872,1.5709,1.5062,0.0,0.0,0.0,0.0,0.0,0.0,0.0,0.0,0.0,0.0,0.0,0.0,0.0,0.0,0.0,0.0,0.0,0.0,0.0,0.0,0.0,0.0,0.0,0.0,0.0,0.0,0.0,0.0,0.0,0.0,0.0,0.0,0.0,0.0,0.0,0.0,0.0,0.0,0.0,0.0,0.0,0.0,0.0,0.0,0.0,0.0,0.0,0.0,0.0,0.0,0.0,0.0,0.0,0.0,0.0,0.0,0.0,0.0,0.0,0.0,0.0,0.0,0.0,0.0,0.0,0.0,0.0,0.0,0.0,0.0,0.0,0.0,0.0,0.0,0.0,0.0,0.0,0.0,0.0,0.0,0.0,0.0,0.0,0.0,0.0,0.0,0.0,0.0,0.0,0.0,0.0,0.0,0.0,0.0,0.0,0.0,0.0,0.0,0.0,0.0,0.0,0.0,0.0,0.0,0.0,0.0,0.0,0.0,0.0,0.0,1.178,1.1687,1.3661,1.4126,1.2842,0.0,0.0,0.0,0.0,0.0,0.0,0.0,0.0,0.0,0.0,0.0,0.0,0.0,0.0,0.0,0.0,0.0,0.0,0.0,0.0,0.0,0.0,0.0,0.0,0.0,0.0,0.0,0.0,0.0,0.0,0.0,0.0,0.0,0.0,0.0,0.0,0.0,0.0,0.0,0.0,0.0,0.0,0.0,0.0,0.0,0.0,0.0,0.0,0.0,0.0,0.0,0.0,0.0,0.0,0.0,0.0,0.0,0.0,0.0,0.0,0.0,0.0,0.0,0.0,0.0,0.0,0.0,0.0,0.0,0.0,0.0,0.0,0.0,0.0,0.0,0.0,0.0,0.0,0.0,0.0,0.0,0.0,0.0,0.0,0.0,0.0,0.0,0.0,0.0,0.0,0.0,0.0,0.0,0.0,0.0,0.0,0.0,0.0,0.0,0.0,0.0,0.0,0.0,0.0,0.0,0.0,0.0,0.0,0.0,0.0,1.1567,0.0,0.0,0.0,1.1966,0.0,0.0,0.0,0.0,0.0,0.0,0.0,0.0,0.0,0.0,0.0,0.0,0.0,0.0,0.0,0.0,0.0,0.0,0.0,0.0,0.0,0.0,0.0,0.0,0.0,0.0,0.0,0.0,0.0,0.0,0.0,0.0,0.0,0.0,0.0,0.0,0.0,0.0,0.0,0.0,0.0,0.0,0.0,0.0,0.0,0.0,0.0,0.0,0.0,0.0,0.0,0.0,0.0,0.0,0.0,0.0,0.0,0.0,0.0,0.0,0.0,0.0,0.0,0.0,0.0,0.0,0.0,0.0,0.0,0.0,0.0,0.0,0.0,0.0,0.0,0.0,0.0,0.0,0.0,0.0,0.0,0.0,0.0,0.0,0.0,0.0,0.0,0.0,0.0,0.0,0.0,0.0,0.0,0.0,0.0,0.0,0.0,0.0,0.0,0.0,0.0,0.0,0.0,0.0,0.0,0.0,0.0,0.0,0.0,0.0,0.0,0.0,0.0,0.0,0.0,0.0,0.0,0.0,0.0,0.0,0.0,0.0,0.0,0.0,0.0,0.0,0.0,0.0,0.0,0.0,0.0,0.0,0.0,0.0,0.0,0.0,0.0,0.0,0.0,0.0,0.0,0.0,0.0,0.0,0.0,0.0,0.0,0.0,0.0,0.0,0.0,0.0,0.0,0.0,0.0,0.0,0.0,0.0,0.0,0.0,0.0,0.0,0.0,0.0,0.0,0.0,0.0,0.0,0.0,0.0,0.0,0.0,0.0,0.0,0.0,0.0,0.0,0.0,0.0,0.0,0.0,0.0,0.0,0.0,0.0,0.0,0.0,0.0,0.0,0.0,0.0,0.0,0.0,0.0,0.0,0.0,0.0,0.0,0.0,0.0,0.0,0.0,0.0,0.0,0.0,0.0,0.0,0.0,0.0,0.0,0.0,0.0,0.0,0.0,0.0,0.0,0.0,0.0,0.0,0.0,0.0,0.0,0.0,0.0,0.0,0.0,0.0,0.0,0.0,0.0,0.0,0.0,0.0,0.0,0.0,0.0,0.0,0.0,0.0,0.0,0.0,0.0,0.0,0.0,0.0,0.0,0.0,0.0,0.0,0.0,0.0,0.0,0.0,0.0,0.0,0.0,0.0,0.0,0.0,0.0,0.0,0.0,0.0,0.0,0.0,0.0,0.0,0.0,0.0,0.0,0.0,0.0,0.0,0.0,0.0,0.0,0.0,0.0,0.0,0.0,0.0,0.0,0.0,0.0,0.0,0.0,0.0,0.0,0.0,0.0,0.0,0.0,0.0,0.0,0.0,0.0,0.0,0.0,0.0,0.0,0.0,0.0,0.0,0.0,0.0,0.0,0.0,0.0,0.0,0.0,0.0,0.0,0.0,0.0,0.0,0.0,0.0,0.0,0.0,0.0,0.0,0.0,0.0,0.0,0.0,0.0,0.0,0.0,0.0,0.0,0.0,0.0,0.0,0.0,0.0,0.0,0.0,0.0,0.0,0.0,0.0,0.0,0.0,0.0,0.0,0.0,0.0,0.0,0.0,0.0,0.0,0.0,0.0,0.0,0.0,0.0,0.0,0.0,0.0,0.0,0.0,0.0,0.0,0.0,0.0,0.0,0.0,0.0,0.0,0.0,0.0,0.0,0.0,0.0,0.0,0.0,0.0,0.0,0.0,0.0,0.0,0.0,0.0,0.0,0.0,0.0,0.0,0.0,0.0,0.0,0.0,0.0,0.0,0.0,0.0,0.0,0.0,0.0,0.0,0.0,0.0,0.0,0.0,0.0,0.0,0.0,0.0,0.0,0.0,0.0,0.0,0.0,0.0,0.0,0.0,0.0,0.0,0.0,0.0,0.0,0.0,0.0,0.0,0.0,0.0,0.0,0.0,0.0,0.0,0.0,0.0,0.0,0.0,0.0,0.0,0.0,0.0,0.0,0.0,0.0,0.0,0.0,0.0,0.0,0.0,0.0,0.0,0.0,0.0,0.0,0.0,0.0,0.0,0.0,0.0,0.0,0.0,0.0,0.0,0.0,0.0,0.0,0.0,0.0,0.0,0.0,0.0,0.0,0.0,0.0,0.0,0.0,0.0,0.0,0.0,0.0,0.0,0.0,0.0,0.0,0.0,0.0,0.0,0.0,0.0,0.0,0.0,0.0,0.0,0.0,0.0,0.0,0.0,0.0,0.0,0.0,0.0,0.0,0.0,0.0,0.0,0.0,0.0,0.0,0.0,0.0,0.0,0.0,0.0,0.0,0.0,0.0,0.0,0.0,0.0,0.0,0.0,0.0,0.0,0.0,0.0,0.0,0.0,0.0,0.0,0.0,0.0,0.0,0.0,0.0,0.0,0.0,0.0,0.0,0.0,0.0,0.0,0.0,0.0,0.0,0.0,0.0,0.0,0.0,0.0,0.0,0.0,0.0,0.0,0.0,0.0,0.0,0.0,0.0,0.0,0.0,0.0,0.0,0.0,0.0,0.0,0.0,0.0,0.0,0.0,0.0,0.0,0.0,0.0,0.0,0.0,0.0,0.0,0.0,0.0,0.0,0.0,0.0,0.0,0.0,0.0,0.0,0.0,0.0,0.0,0.0,0.0,0.0,0.0,0.0,0.0,0.0,0.0,0.0,0.0,0.0,0.0,0.0,0.0,0.0,0.0,0.0,0.0,0.0,0.0,0.0,0.0,0.0,0.0,0.0,0.0,0.0,0.0,0.0,0.0,0.0,0.0,0.0,0.0,0.0,0.0,0.0,0.0,0.0,0.0,0.0,0.0,0.0,0.0,0.0,0.0,0.0,0.0,0.0,0.0,0.0,0.0,0.0,0.0,0.0,0.0,0.0,0.0,0.0,0.0,0.0,0.0,0.0,0.0,0.0,0.0,0.0,0.0,0.0,0.0,0.0,0.0,0.0,0.0,0.0,0.0,0.0,0.0,0.0,0.0,0.0,0.0,0.0,0.0,0.0,0.0,0.0,0.0,0.0,0.0,0.0,0.0,0.0,0.0,0.0,0.0,0.0,0.0,0.0,0.0,0.0,0.0,0.0,0.0,0.0,0.0,0.0,0.0,0.0,0.0,0.0,0.0,0.0,0.0,0.0,0.0,0.0,0.0,0.0,0.0,0.0,0.0,0.0,0.0,0.0,0.0,0.0,0.0,0.0,0.0,0.0,0.0,0.0,0.0,0.0,0.0,0.0,0.0,0.0,0.0,0.0,0.0,0.0,0.0,0.0,0.0,0.0,0.0,0.0,0.0,0.0,0.0,0.0,0.0,0.0,0.0,0.0,0.0,0.0,0.0,0.0,0.0,0.0,0.0,0.0,0.0,0.0,0.0,0.0,0.0,0.0,0.0,0.0,0.0,0.0,0.0,0.0,0.0,0.0,0.0,0.0,0.0,0.0,0.0,0.0,0.0,0.0,0.0,0.0,0.0,0.0,0.0,0.0,0.0,0.0,0.0,0.0,0.0,0.0,0.0,0.0,0.0,0.0,0.0,0.0,0.0,0.0,0.0,0.0,0.0,0.0,0.0,0.0,0.0,0.0,0.0,0.0,0.0,0.0,0.0,0.0,0.0,0.0,0.0,0.0,0.0,0.0,0.0,0.0,0.0,0.0,0.0,0.0,0.0,0.0,0.0,0.0,0.0,0.0,0.0,0.0,0.0,0.0,0.0,0.0,0.0,0.0,0.0,0.0,0.0,0.0,0.0,0.0,0.0,0.0,0.0,0.0,0.0,0.0,0.0,0.0,0.0,0.0,0.0,0.0,0.0,0.0,0.0,0.0,0.0,0.0,0.0,0.0,0.0,0.0,0.0,0.0,0.0,0.0,0.0,0.0,0.0,0.0,0.0,0.0,0.0,0.0,0.0,0.0,0.0,0.0,0.0,0.0,0.0,0.0,0.0,0.0,0.0,0.0,0.0,0.0,0.0,0.0,0.0,0.0,0.0,0.0,0.0,0.0,0.0,0.0,0.0,0.0,0.0,0.0,0.0,0.0,0.0,0.0,0.0,0.0,0.0,0.0,0.0,0.0,0.0,0.0,0.0,0.0,0.0,0.0,0.0,0.0,0.0,0.0,0.0,0.0,0.0,0.0,0.0,0.0,0.0,0.0,0.0,0.0,0.0,0.0,0.0,0.0,0.0,0.0,0.0,0.0,0.0,0.0,0.0,0.0,0.0,0.0,0.0,0.0,0.0,0.0,0.0,0.0,0.0,0.0,0.0,0.0,0.0,0.0,0.0,0.0,0.0,0.0,0.0,0.0,0.0,0.0,0.0,0.0,0.0,0.0,0.0,0.0,0.0,0.0,0.0,0.0,0.0,0.0,0.0,0.0,0.0,0.0,0.0,0.0,0.0,0.0,0.0,0.0,0.0,0.0]}]]]